[[{"header":{"parameterUnit":"m.s-1","parameterCategory":1,"la1":31.0,"la2":29.5877,"lo1":-88.7671,"lo2":-86.6584,"dy":0.0162,"dx":0.0185,"nx":115,"ny":88,"refTime":"2024-04-10T12:00:00:Z","depth":0,"parameterNumber":2,"parameterNumberName":"U-component_of_WINDS"},"data":[0.0,0.0,0.0,0.0,0.0,0.0,0.0,0.0,0.0,0.0,0.0,0.0,0.0,0.0,0.0,0.0,0.0,0.0,0.0,0.0,0.0,0.0,0.0,0.0,0.0,0.0,0.0,0.0,0.0,0.0,0.0,0.0,0.0,0.0,0.0,0.0,0.0,0.0,0.0,0.0,0.0,0.0,0.0,0.0,0.0,0.0,0.0,0.0,0.0,0.0,0.0,0.0,0.0,0.0,0.0,0.0,0.0,0.0,0.0,0.0,0.0,0.0,0.0,0.0,0.0,0.0,0.0,0.0,0.0,0.0,0.0,0.0,0.0,0.0,0.0,0.0,0.0,0.0,0.0,0.0,0.0,0.0,0.0,0.0,0.0,0.0,0.0,0.0,0.0,0.0,0.0,0.0,0.0,0.0,0.0,0.0,0.0,0.0,0.0,0.0,0.0,0.0,0.0,0.0,0.0,0.0,0.0,0.0,0.0,0.0,0.0,0.0,0.0,0.0,0.0,0.0,0.0,0.0,0.0,0.0,0.0,0.0,0.0,0.0,0.0,0.0,0.0,0.0,0.0,0.0,0.0,0.0,0.0,0.0,0.0,0.0,0.0,0.0,0.0,0.0,0.0,0.0,0.0,0.0,0.0,0.0,0.0,0.0,0.0,0.0,0.0,0.0,0.0,0.0,0.0,0.0,0.0,0.0,0.0,0.0,0.0,0.0,0.0,0.0,0.0,0.0,0.0,0.0,0.0,0.0,0.0,0.0,0.0,0.0,0.0,0.0,0.0,0.0,0.0,0.0,0.0,0.0,0.0,0.0,0.0,0.0,0.0,0.0,0.0,0.0,0.0,0.0,0.0,0.0,0.0,0.0,0.0,0.0,0.0,0.0,0.0,0.0,0.0,0.0,0.0,0.0,0.0,0.0,0.0,0.0,0.0,0.0,0.0,0.0,0.0,0.0,0.0,0.0,0.0,0.0,0.0,0.0,0.0,0.0,0.0,0.0,0.0,0.0,0.0,0.0,0.0,0.0,0.0,0.0,0.0,0.0,0.0,0.0,0.0,0.0,0.0,0.0,0.0,0.0,0.0,0.0,0.0,0.0,0.0,0.0,0.0,0.0,0.0,0.0,0.0,0.0,0.0,0.0,0.0,0.0,0.0,0.0,0.0,0.0,0.0,0.0,0.0,0.0,0.0,0.0,0.0,0.0,0.0,0.0,0.0,0.0,0.0,0.0,0.0,0.0,0.0,0.0,0.0,0.0,0.0,0.0,0.0,0.0,0.0,0.0,0.0,0.0,0.0,0.0,0.0,0.0,0.0,0.0,0.0,0.0,0.0,0.0,0.0,0.0,0.0,0.0,0.0,0.0,0.0,0.0,0.0,0.0,0.0,0.0,0.0,0.0,0.0,0.0,0.0,0.0,0.0,0.0,0.0,0.0,0.0,0.0,0.0,0.0,0.0,0.0,0.0,0.0,0.0,0.0,0.0,0.0,0.0,0.0,0.0,0.0,0.0,0.0,0.0,0.0,0.0,0.0,0.0,0.0,0.0,0.0,0.0,0.0,0.0,0.0,0.0,0.0,0.0,0.0,0.0,0.0,0.0,0.0,0.0,0.0,0.0,0.0,0.0,0.0,0.0,0.0,0.0,0.0,0.0,0.0,0.0,0.0,0.0,0.0,0.0,0.0,0.0,0.0,0.0,0.0,0.0,0.0,0.0,0.0,0.0,0.0,0.0,0.0,0.0,0.0,0.0,0.0,0.0,0.0,0.0,0.0,0.0,0.0,0.0,0.0,0.0,0.0,0.0,0.0,0.0,0.0,0.0,0.0,0.0,0.0,0.0,0.0,0.0,0.0,0.0,0.0,0.0,0.0,0.0,0.0,0.0,0.0,0.0,0.0,0.0,0.0,0.0,0.0,0.0,0.0,0.0,0.0,0.0,0.0,0.0,0.0,0.0,0.0,0.0,0.0,0.0,0.0,0.0,0.0,0.0,0.0,0.0,0.0,0.0,0.0,0.0,0.0,0.0,0.0,0.0,0.0,0.0,0.0,0.0,0.0,0.0,0.0,0.0,0.0,0.0,0.0,0.0,0.0,0.0,0.0,0.0,0.0,0.0,0.0,0.0,0.0,0.0,0.0,0.0,0.0,0.0,0.0,0.0,0.0,0.0,0.0,0.0,0.0,0.0,0.0,0.0,0.0,0.0,0.0,0.0,0.0,0.0,0.0,0.0,0.0,0.0,0.0,0.0,0.0,0.0,0.0,0.0,0.0,0.0,0.0,0.0,0.0,0.0,0.0,0.0,0.0,0.0,0.0,0.0,0.0,0.0,0.0,0.0,0.0,0.0,0.0,0.0,0.0,0.0,0.0,0.0,0.0,0.0,0.0,0.0,0.0,0.0,0.0,0.0,0.0,0.0,0.0,0.0,0.0,0.0,0.0,0.0,0.0,0.0,0.0,0.0,0.0,0.0,0.0,0.0,0.0,0.0,0.0,0.0,0.0,0.0,0.0,0.0,0.0,0.0,0.0,0.0,0.0,0.0,0.0,0.0,0.0,0.0,0.0,0.0,0.0,0.0,0.0,0.0,0.0,0.0,0.0,0.0,0.0,0.0,0.0,0.0,0.0,0.0,0.0,0.0,0.0,0.0,0.0,0.0,0.0,0.0,0.0,0.0,0.0,0.0,0.0,0.0,0.0,0.0,0.0,0.0,0.0,0.0,0.0,0.0,0.0,0.0,0.0,0.0,0.0,0.0,0.0,0.0,0.0,0.0,0.0,0.0,0.0,0.0,0.0,0.0,0.0,0.0,0.0,0.0,0.0,0.0,0.0,0.0,0.0,0.0,0.0,0.0,0.0,0.0,0.0,0.0,0.0,0.0,0.0,0.0,0.0,0.0,0.0,0.0,0.0,0.0,0.0,0.0,0.0,0.0,0.0,0.0,0.0,0.0,0.0,0.0,0.0,0.0,0.0,0.0,0.0,0.0,0.0,0.0,0.0,0.0,0.0,0.0,0.0,0.0,0.0,0.0,0.0,0.0,0.0,0.0,0.0,0.0,0.0,0.0,0.0,0.0,0.0,0.0,0.0,0.0,0.0,0.0,0.0,0.0,0.0,0.0,0.0,0.0,0.0,0.0,0.0,0.0,0.0,0.0,0.0,0.0,0.0,0.0,0.0,0.0,0.0,0.0,0.0,0.0,0.0,0.0,0.0,0.0,0.0,0.0,0.0,0.0,0.0,0.0,0.0,0.0,0.0,0.0,0.0,0.0,0.0,0.0,0.0,0.0,0.0,0.0,0.0,0.0,0.0,0.0,0.0,0.0,0.0,0.0,0.0,0.0,0.0,0.0,0.0,0.0,0.0,0.0,0.0,0.0,0.0,0.0,0.0,0.0,0.0,0.0,0.0,0.0,0.0,0.0,0.0,0.0,0.0,0.0,0.0,0.0,0.0,0.0,0.0,0.0,0.0,0.0,0.0,0.0,0.0,0.0,0.0,0.0,0.0,0.0,0.0,0.0,0.0,0.0,0.0,0.0,0.0,0.0,0.0,0.0,0.0,0.0,0.0,0.0,0.0,0.0,0.0,0.0,0.0,0.0,0.0,0.0,0.0,0.0,0.0,0.0,0.0,0.0,0.0,0.0,0.0,0.0,0.0,0.0,0.0,0.0,0.0,0.0,0.0,0.0,0.0,0.0,0.0,0.0,0.0,0.0,0.0,0.0,0.0,0.0,0.0,0.0,0.0,0.0,0.0,0.0,0.0,0.0,0.0,0.0,0.0,0.0,0.0,0.0,0.0,0.0,0.0,0.0,0.0,0.0,0.0,0.0,0.0,0.0,0.0,0.0,0.0,0.0,0.0,0.0,0.0,0.0,0.0,0.0,0.0,0.0,0.0,0.0,0.0,0.0,0.0,0.0,0.0,0.0,0.0,0.0,0.0,0.0,0.0,0.0,0.0,0.0,0.0,0.0,0.0,0.0,0.0,0.0,0.0,0.0,0.0,0.0,0.0,0.0,0.0,0.0,0.0,0.0,0.0,0.0,0.0,0.0,0.0,0.0,0.0,0.0,0.0,0.0,0.0,0.0,0.0,0.0,0.0,0.0,0.0,0.0,0.0,0.0,0.0,0.0,0.0,0.0,0.0,0.0,0.0,0.0,0.0,0.0,0.0,0.0,0.0,0.0,0.0,0.0,0.0,0.0,0.0,0.0,0.0,0.0,0.0,0.0,0.0,0.0,0.0,0.0,0.0,0.0,0.0,0.0,0.0,0.0,0.0,0.0,0.0,3.3826,0.0,0.0,0.0,0.0,0.0,0.0,0.0,0.0,0.0,0.0,0.0,0.0,0.0,0.0,0.0,0.0,0.0,0.0,0.0,0.0,0.0,0.0,0.0,0.0,0.0,0.0,0.0,0.0,0.0,0.0,0.0,0.0,0.0,0.0,0.0,0.0,0.0,0.0,0.0,0.0,0.0,0.0,0.0,0.0,0.0,0.0,0.0,0.0,0.0,0.0,0.0,0.0,0.0,0.0,0.0,0.0,0.0,0.0,0.0,0.0,0.0,0.0,0.0,0.0,0.0,0.0,0.0,0.0,0.0,0.0,0.0,0.0,0.0,0.0,0.0,0.0,0.0,0.0,0.0,0.0,0.0,0.0,0.0,0.0,0.0,0.0,0.0,0.0,0.0,0.0,0.0,0.0,0.0,0.0,0.0,0.0,0.0,0.0,0.0,0.0,0.0,0.0,0.0,0.0,0.0,0.0,0.0,0.0,0.0,0.0,3.5502,3.5484,3.4679,3.4209,3.405,0.0,0.0,0.0,0.0,0.0,0.0,0.0,0.0,0.0,0.0,0.0,0.0,0.0,0.0,0.0,0.0,0.0,0.0,0.0,0.0,0.0,0.0,0.0,0.0,0.0,0.0,0.0,0.0,0.0,0.0,0.0,0.0,0.0,0.0,0.0,0.0,0.0,0.0,0.0,0.0,0.0,0.0,0.0,0.0,0.0,0.0,0.0,0.0,0.0,0.0,0.0,0.0,0.0,0.0,0.0,0.0,0.0,0.0,0.0,0.0,0.0,0.0,0.0,0.0,0.0,0.0,0.0,0.0,0.0,0.0,0.0,0.0,0.0,0.0,0.0,0.0,0.0,0.0,0.0,0.0,0.0,0.0,0.0,0.0,0.0,0.0,0.0,0.0,0.0,0.0,0.0,0.0,0.0,0.0,0.0,0.0,0.0,0.0,0.0,0.0,0.0,0.0,0.0,0.0,0.0,0.0,0.0,0.0,0.0,0.0,0.0,0.0,3.5137,3.4724,3.4771,0.0,0.0,0.0,0.0,0.0,0.0,0.0,0.0,0.0,0.0,0.0,0.0,0.0,0.0,0.0,0.0,0.0,0.0,0.0,0.0,0.0,0.0,0.0,0.0,0.0,0.0,0.0,0.0,0.0,0.0,0.0,0.0,0.0,0.0,0.0,0.0,0.0,0.0,0.0,0.0,0.0,0.0,0.0,0.0,0.0,0.0,0.0,0.0,0.0,0.0,0.0,0.0,0.0,0.0,0.0,0.0,0.0,0.0,0.0,0.0,0.0,0.0,0.0,0.0,0.0,0.0,0.0,0.0,0.0,0.0,0.0,0.0,0.0,0.0,0.0,0.0,0.0,0.0,0.0,0.0,0.0,0.0,0.0,0.0,0.0,0.0,0.0,0.0,0.0,0.0,0.0,0.0,0.0,0.0,0.0,0.0,0.0,0.0,0.0,0.0,0.0,0.0,0.0,0.0,0.0,0.0,0.0,0.0,0.0,0.0,3.5853,3.6606,3.8399,0.0,3.5712,0.0,0.0,0.0,0.0,0.0,0.0,0.0,0.0,0.0,0.0,0.0,0.0,0.0,0.0,0.0,0.0,0.0,0.0,0.0,0.0,0.0,0.0,0.0,0.0,0.0,0.0,0.0,0.0,0.0,0.0,0.0,0.0,0.0,0.0,0.0,0.0,0.0,0.0,0.0,0.0,0.0,0.0,0.0,0.0,0.0,0.0,0.0,0.0,0.0,0.0,0.0,0.0,0.0,0.0,0.0,0.0,0.0,0.0,0.0,0.0,0.0,0.0,0.0,0.0,0.0,0.0,0.0,0.0,0.0,0.0,0.0,0.0,0.0,0.0,0.0,0.0,0.0,0.0,0.0,0.0,0.0,0.0,0.0,0.0,0.0,0.0,0.0,0.0,0.0,0.0,0.0,0.0,0.0,0.0,0.0,0.0,0.0,0.0,0.0,0.0,0.0,0.0,0.0,0.0,0.0,0.0,0.0,0.0,0.0,0.0,3.7754,3.6817,3.6582,3.5066,0.0,0.0,0.0,0.0,0.0,0.0,0.0,0.0,0.0,0.0,0.0,0.0,0.0,0.0,0.0,0.0,0.0,0.0,0.0,0.0,0.0,0.0,0.0,0.0,0.0,0.0,0.0,0.0,0.0,0.0,0.0,0.0,0.0,0.0,0.0,0.0,0.0,0.0,0.0,0.0,0.0,0.0,0.0,0.0,0.0,0.0,0.0,0.0,0.0,0.0,0.0,0.0,0.0,0.0,0.0,0.0,0.0,0.0,0.0,0.0,0.0,0.0,0.0,0.0,0.0,0.0,0.0,0.0,0.0,0.0,0.0,0.0,0.0,0.0,0.0,0.0,0.0,0.0,0.0,0.0,0.0,0.0,0.0,0.0,0.0,0.0,0.0,0.0,0.0,0.0,0.0,0.0,0.0,0.0,0.0,0.0,0.0,0.0,0.0,0.0,0.0,0.0,0.0,0.0,0.0,0.0,0.0,0.0,0.0,0.0,3.8033,3.7969,3.6248,3.4256,3.2239,3.016,0.0,0.0,0.0,0.0,0.0,0.0,0.0,0.0,0.0,0.0,0.0,0.0,0.0,0.0,0.0,0.0,0.0,0.0,0.0,0.0,0.0,0.0,0.0,0.0,0.0,0.0,0.0,0.0,0.0,0.0,0.0,0.0,0.0,0.0,0.0,0.0,0.0,0.0,0.0,0.0,0.0,0.0,0.0,0.0,0.0,0.0,0.0,0.0,0.0,0.0,0.0,0.0,0.0,0.0,0.0,0.0,0.0,0.0,0.0,0.0,0.0,0.0,0.0,0.0,0.0,0.0,0.0,0.0,0.0,0.0,0.0,0.0,0.0,0.0,0.0,0.0,0.0,0.0,0.0,0.0,0.0,0.0,0.0,0.0,0.0,0.0,0.0,0.0,0.0,0.0,0.0,0.0,0.0,0.0,0.0,0.0,0.0,0.0,0.0,0.0,0.0,0.0,0.0,0.0,0.0,0.0,0.0,0.0,3.8754,3.6824,3.5314,3.451,3.2319,3.132,0.0,0.0,0.0,0.0,0.0,0.0,0.0,0.0,0.0,0.0,0.0,0.0,0.0,0.0,0.0,0.0,0.0,0.0,0.0,0.0,0.0,0.0,0.0,0.0,0.0,0.0,0.0,0.0,0.0,0.0,0.0,0.0,0.0,0.0,0.0,0.0,0.0,0.0,0.0,0.0,0.0,0.0,0.0,0.0,0.0,0.0,0.0,0.0,0.0,0.0,0.0,0.0,0.0,0.0,0.0,0.0,0.0,0.0,0.0,0.0,0.0,0.0,0.0,0.0,0.0,0.0,0.0,0.0,0.0,0.0,0.0,0.0,0.0,0.0,0.0,0.0,0.0,0.0,0.0,0.0,0.0,0.0,0.0,0.0,0.0,0.0,0.0,0.0,0.0,0.0,0.0,0.0,0.0,0.0,0.0,0.0,0.0,0.0,0.0,0.0,0.0,0.0,0.0,0.0,0.0,0.0,0.0,0.0,0.0,3.5996,3.5342,3.4811,3.4351,3.2515,3.1101,0.0,0.0,0.0,0.0,0.0,0.0,0.0,0.0,0.0,0.0,0.0,0.0,0.0,0.0,0.0,0.0,0.0,0.0,0.0,0.0,0.0,0.0,0.0,0.0,0.0,0.0,0.0,0.0,0.0,0.0,0.0,0.0,0.0,0.0,0.0,0.0,0.0,0.0,0.0,0.0,0.0,0.0,0.0,0.0,0.0,0.0,0.0,0.0,0.0,0.0,0.0,0.0,0.0,0.0,0.0,0.0,0.0,0.0,0.0,0.0,0.0,0.0,0.0,0.0,0.0,0.0,0.0,0.0,0.0,0.0,0.0,0.0,0.0,0.0,0.0,0.0,0.0,0.0,0.0,0.0,0.0,0.0,0.0,0.0,0.0,0.0,0.0,0.0,0.0,0.0,0.0,0.0,0.0,0.0,0.0,0.0,0.0,0.0,0.0,0.0,0.0,0.0,0.0,0.0,0.0,0.0,0.0,0.0,0.0,3.3988,0.0,3.4777,3.3354,3.2346,3.0764,0.0,0.0,0.0,0.0,0.0,0.0,0.0,0.0,0.0,0.0,0.0,0.0,0.0,0.0,0.0,0.0,0.0,0.0,0.0,0.0,0.0,0.0,0.0,0.0,0.0,0.0,0.0,0.0,0.0,0.0,0.0,0.0,0.0,0.0,0.0,0.0,0.0,0.0,0.0,0.0,0.0,0.0,0.0,0.0,0.0,0.0,0.0,0.0,0.0,0.0,0.0,0.0,0.0,0.0,0.0,0.0,0.0,0.0,0.0,0.0,0.0,0.0,0.0,0.0,0.0,0.0,0.0,0.0,0.0,0.0,0.0,0.0,0.0,0.0,0.0,0.0,0.0,0.0,0.0,0.0,0.0,0.0,0.0,0.0,0.0,0.0,0.0,0.0,0.0,0.0,0.0,0.0,0.0,0.0,0.0,0.0,0.0,0.0,0.0,0.0,0.0,0.0,0.0,0.0,0.0,0.0,0.0,0.0,3.3465,3.3341,3.566,3.5015,3.1264,3.1624,3.0255,0.0,0.0,0.0,0.0,0.0,0.0,0.0,0.0,0.0,0.0,0.0,0.0,0.0,0.0,0.0,0.0,0.0,0.0,0.0,0.0,0.0,0.0,0.0,0.0,0.0,0.0,0.0,0.0,0.0,0.0,0.0,0.0,0.0,0.0,0.0,0.0,0.0,0.0,0.0,0.0,0.0,0.0,0.0,0.0,0.0,0.0,0.0,0.0,0.0,0.0,0.0,0.0,0.0,0.0,0.0,0.0,0.0,0.0,0.0,0.0,0.0,0.0,0.0,0.0,0.0,0.0,0.0,0.0,0.0,0.0,0.0,0.0,0.0,0.0,0.0,0.0,0.0,0.0,0.0,0.0,0.0,0.0,0.0,0.0,0.0,0.0,0.0,0.0,0.0,0.0,0.0,0.0,0.0,0.0,0.0,0.0,0.0,0.0,0.0,0.0,0.0,0.0,0.0,0.0,0.0,0.0,0.0,0.0,0.0,3.5579,3.4821,3.4986,3.6199,3.2882,3.0877,0.0,0.0,0.0,0.0,0.0,0.0,0.0,0.0,0.0,0.0,0.0,0.0,0.0,0.0,0.0,0.0,0.0,0.0,0.0,0.0,0.0,0.0,0.0,0.0,0.0,0.0,0.0,0.0,0.0,0.0,0.0,0.0,0.0,0.0,0.0,0.0,0.0,0.0,0.0,0.0,0.0,0.0,0.0,0.0,0.0,0.0,0.0,0.0,0.0,0.0,0.0,0.0,0.0,0.0,0.0,0.0,0.0,0.0,0.0,0.0,0.0,0.0,0.0,0.0,0.0,0.0,0.0,0.0,0.0,0.0,0.0,0.0,0.0,0.0,0.0,0.0,0.0,0.0,0.0,0.0,0.0,0.0,0.0,0.0,0.0,0.0,0.0,0.0,0.0,0.0,0.0,0.0,0.0,0.0,0.0,0.0,0.0,0.0,0.0,0.0,0.0,0.0,0.0,0.0,0.0,0.0,0.0,0.0,0.0,3.4806,3.4553,3.5325,3.7243,3.3341,3.1138,3.0971,0.0,0.0,0.0,0.0,0.0,0.0,0.0,0.0,0.0,0.0,0.0,0.0,0.0,0.0,0.0,0.0,0.0,0.0,0.0,0.0,0.0,0.0,0.0,0.0,0.0,0.0,0.0,0.0,0.0,0.0,0.0,0.0,0.0,0.0,0.0,0.0,0.0,0.0,0.0,0.0,0.0,0.0,0.0,0.0,0.0,0.0,0.0,0.0,0.0,0.0,0.0,0.0,0.0,0.0,0.0,0.0,0.0,0.0,0.0,0.0,0.0,0.0,0.0,0.0,0.0,0.0,0.0,0.0,0.0,0.0,0.0,0.0,0.0,0.0,0.0,0.0,0.0,0.0,0.0,0.0,0.0,0.0,0.0,0.0,0.0,0.0,0.0,0.0,0.0,0.0,0.0,0.0,0.0,0.0,0.0,0.0,0.0,0.0,0.0,0.0,0.0,0.0,0.0,0.0,0.0,0.0,0.0,0.0,3.1856,3.4894,3.5915,3.4786,3.3109,3.1268,0.0,0.0,0.0,0.0,0.0,0.0,0.0,0.0,0.0,0.0,0.0,0.0,0.0,0.0,0.0,0.0,0.0,0.0,0.0,0.0,0.0,0.0,0.0,0.0,0.0,0.0,0.0,0.0,0.0,0.0,0.0,0.0,0.0,0.0,0.0,0.0,0.0,0.0,0.0,0.0,0.0,0.0,0.0,0.0,0.0,0.0,0.0,0.0,0.0,0.0,0.0,0.0,0.0,0.0,0.0,0.0,0.0,0.0,0.0,0.0,0.0,0.0,0.0,0.0,0.0,0.0,0.0,0.0,0.0,0.0,0.0,0.0,0.0,0.0,0.0,0.0,0.0,0.0,0.0,0.0,0.0,0.0,0.0,0.0,0.0,0.0,0.0,0.0,0.0,0.0,0.0,0.0,0.0,0.0,0.0,0.0,0.0,0.0,0.0,0.0,0.0,0.0,0.0,0.0,0.0,0.0,0.0,0.0,0.0,3.3446,3.4525,3.5182,3.5066,3.2989,3.1551,0.0,0.0,0.0,0.0,0.0,0.0,0.0,0.0,0.0,0.0,0.0,0.0,0.0,0.0,0.0,0.0,0.0,0.0,0.0,0.0,0.0,0.0,0.0,0.0,0.0,0.0,0.0,0.0,0.0,0.0,0.0,0.0,0.0,0.0,0.0,0.0,0.0,0.0,0.0,0.0,0.0,0.0,0.0,0.0,0.0,0.0,0.0,0.0,0.0,0.0,0.0,0.0,0.0,0.0,0.0,0.0,0.0,0.0,0.0,0.0,0.0,0.0,0.0,0.0,0.0,0.0,0.0,0.0,0.0,0.0,0.0,0.0,0.0,0.0,0.0,0.0,0.0,0.0,0.0,0.0,0.0,0.0,0.0,0.0,0.0,0.0,0.0,0.0,0.0,0.0,0.0,0.0,0.0,0.0,0.0,0.0,0.0,0.0,0.0,0.0,0.0,0.0,0.0,0.0,0.0,0.0,0.0,0.0,3.2541,3.2795,3.3969,3.4369,3.3977,3.2771,3.1782,0.0,0.0,0.0,0.0,0.0,0.0,0.0,0.0,0.0,0.0,0.0,0.0,0.0,0.0,0.0,0.0,0.0,0.0,0.0,0.0,0.0,0.0,0.0,0.0,0.0,0.0,0.0,0.0,0.0,0.0,0.0,0.0,0.0,0.0,0.0,0.0,0.0,0.0,0.0,0.0,0.0,0.0,0.0,0.0,0.0,0.0,0.0,0.0,0.0,0.0,0.0,0.0,0.0,0.0,0.0,0.0,0.0,0.0,0.0,0.0,0.0,0.0,0.0,0.0,0.0,0.0,0.0,0.0,0.0,0.0,0.0,0.0,0.0,0.0,0.0,0.0,0.0,0.0,0.0,0.0,0.0,0.0,0.0,0.0,0.0,0.0,0.0,0.0,0.0,0.0,0.0,0.0,0.0,0.0,0.0,0.0,0.0,0.0,0.0,0.0,0.0,0.0,0.0,0.0,0.0,0.0,0.0,0.0,3.1643,3.1329,3.3277,3.3722,3.2353,3.2369,3.1871,0.0,0.0,0.0,0.0,0.0,0.0,0.0,0.0,0.0,0.0,0.0,0.0,0.0,0.0,0.0,0.0,0.0,0.0,0.0,0.0,0.0,0.0,0.0,0.0,0.0,0.0,0.0,0.0,0.0,0.0,0.0,0.0,0.0,0.0,0.0,0.0,0.0,0.0,0.0,0.0,0.0,0.0,0.0,0.0,0.0,0.0,0.0,0.0,0.0,0.0,0.0,0.0,0.0,0.0,0.0,0.0,0.0,0.0,0.0,0.0,0.0,0.0,0.0,0.0,0.0,0.0,0.0,0.0,0.0,0.0,0.0,0.0,0.0,0.0,0.0,0.0,0.0,0.0,0.0,0.0,0.0,0.0,0.0,0.0,0.0,0.0,0.0,0.0,0.0,0.0,0.0,0.0,0.0,0.0,0.0,0.0,0.0,0.0,0.0,0.0,0.0,0.0,0.0,0.0,0.0,0.0,0.0,0.0,3.1824,3.1893,3.238,3.2765,3.288,3.2122,3.1153,0.0,0.0,0.0,0.0,0.0,0.0,0.0,0.0,0.0,0.0,0.0,0.0,0.0,0.0,0.0,0.0,0.0,0.0,0.0,0.0,0.0,0.0,0.0,0.0,0.0,0.0,0.0,0.0,0.0,0.0,0.0,0.0,0.0,0.0,0.0,0.0,0.0,0.0,0.0,0.0,0.0,0.0,0.0,0.0,0.0,0.0,0.0,0.0,3.1204,0.0,0.0,0.0,0.0,0.0,0.0,0.0,0.0,0.0,0.0,0.0,0.0,0.0,0.0,0.0,0.0,0.0,0.0,0.0,0.0,0.0,0.0,0.0,0.0,0.0,0.0,0.0,0.0,0.0,0.0,0.0,0.0,0.0,0.0,0.0,0.0,0.0,0.0,0.0,0.0,0.0,0.0,0.0,0.0,0.0,0.0,0.0,0.0,0.0,0.0,0.0,0.0,0.0,0.0,0.0,0.0,0.0,0.0,0.0,3.119,3.0687,3.0952,3.0947,3.0725,3.0132,2.9805,0.0,0.0,0.0,0.0,0.0,0.0,0.0,0.0,0.0,0.0,0.0,0.0,0.0,0.0,0.0,0.0,0.0,0.0,0.0,0.0,0.0,0.0,0.0,0.0,0.0,0.0,0.0,0.0,0.0,0.0,0.0,0.0,0.0,0.0,0.0,0.0,0.0,0.0,0.0,0.0,0.0,0.0,0.0,0.0,0.0,0.0,0.0,0.0,0.0,0.0,0.0,0.0,0.0,0.0,0.0,0.0,0.0,0.0,0.0,0.0,0.0,0.0,0.0,0.0,0.0,0.0,0.0,0.0,0.0,0.0,0.0,0.0,0.0,0.0,0.0,0.0,0.0,0.0,0.0,0.0,0.0,0.0,0.0,0.0,0.0,0.0,0.0,0.0,0.0,0.0,0.0,0.0,0.0,0.0,0.0,0.0,0.0,0.0,0.0,0.0,0.0,0.0,0.0,0.0,0.0,0.0,0.0,3.0251,3.0177,2.9094,2.9444,2.9148,2.8099,2.7934,2.828,2.9065,0.0,0.0,0.0,0.0,0.0,0.0,0.0,0.0,0.0,0.0,0.0,0.0,0.0,0.0,0.0,0.0,0.0,0.0,0.0,0.0,0.0,0.0,0.0,0.0,0.0,0.0,0.0,0.0,0.0,0.0,0.0,0.0,0.0,0.0,0.0,0.0,0.0,0.0,3.0244,3.1149,0.0,0.0,0.0,0.0,0.0,0.0,0.0,0.0,3.0494,0.0,0.0,0.0,0.0,0.0,0.0,0.0,0.0,0.0,0.0,0.0,0.0,0.0,0.0,0.0,0.0,0.0,0.0,0.0,0.0,0.0,0.0,0.0,0.0,0.0,0.0,0.0,0.0,0.0,0.0,0.0,0.0,0.0,0.0,0.0,0.0,0.0,0.0,0.0,0.0,0.0,0.0,0.0,0.0,0.0,0.0,0.0,0.0,0.0,0.0,0.0,0.0,0.0,0.0,0.0,0.0,2.9884,2.9655,2.9264,2.8846,2.851,2.8441,2.8456,2.766,2.6921,2.6321,0.0,0.0,0.0,0.0,0.0,0.0,0.0,0.0,0.0,0.0,0.0,0.0,0.0,0.0,0.0,0.0,0.0,0.0,0.0,0.0,0.0,0.0,0.0,0.0,0.0,0.0,0.0,0.0,0.0,0.0,0.0,0.0,0.0,0.0,0.0,0.0,0.0,0.0,0.0,3.3383,3.3861,0.0,0.0,0.0,0.0,0.0,0.0,0.0,0.0,2.9789,0.0,0.0,0.0,0.0,0.0,0.0,0.0,0.0,0.0,0.0,0.0,0.0,0.0,0.0,0.0,0.0,0.0,0.0,0.0,0.0,0.0,0.0,0.0,0.0,0.0,0.0,0.0,0.0,0.0,0.0,0.0,0.0,0.0,0.0,0.0,0.0,0.0,0.0,0.0,0.0,0.0,0.0,0.0,0.0,0.0,0.0,0.0,0.0,0.0,0.0,0.0,0.0,0.0,0.0,0.0,2.8619,2.9013,2.8655,2.7799,2.78,2.7428,2.6495,2.5437,2.4716,0.0,0.0,0.0,0.0,0.0,0.0,0.0,0.0,0.0,0.0,0.0,0.0,0.0,0.0,0.0,0.0,0.0,0.0,0.0,0.0,0.0,0.0,0.0,0.0,0.0,0.0,0.0,0.0,0.0,0.0,0.0,0.0,0.0,0.0,0.0,0.0,0.0,0.0,0.0,0.0,3.3499,3.3665,3.4245,0.0,0.0,0.0,0.0,0.0,0.0,2.8755,2.8358,0.0,0.0,0.0,0.0,0.0,0.0,0.0,0.0,0.0,0.0,0.0,0.0,0.0,0.0,0.0,0.0,0.0,0.0,0.0,0.0,0.0,0.0,0.0,0.0,0.0,0.0,0.0,0.0,0.0,0.0,0.0,0.0,0.0,0.0,0.0,0.0,0.0,0.0,0.0,0.0,0.0,0.0,0.0,0.0,0.0,0.0,0.0,0.0,0.0,0.0,0.0,0.0,0.0,0.0,0.0,2.7139,2.7973,2.7826,2.6823,2.6971,2.6318,2.47,2.3597,2.3151,0.0,0.0,0.0,0.0,0.0,0.0,0.0,0.0,0.0,0.0,0.0,0.0,0.0,0.0,0.0,0.0,0.0,0.0,0.0,0.0,0.0,0.0,0.0,0.0,0.0,0.0,0.0,0.0,0.0,0.0,0.0,0.0,0.0,0.0,0.0,0.0,0.0,0.0,0.0,0.0,0.0,3.3537,3.432,3.3077,0.0,0.0,0.0,0.0,2.8985,2.8522,0.0,0.0,0.0,0.0,0.0,0.0,0.0,0.0,0.0,0.0,0.0,0.0,0.0,0.0,0.0,0.0,0.0,0.0,0.0,0.0,0.0,0.0,0.0,0.0,0.0,0.0,0.0,0.0,0.0,0.0,0.0,0.0,0.0,0.0,0.0,0.0,0.0,0.0,0.0,0.0,0.0,0.0,0.0,0.0,0.0,0.0,0.0,0.0,0.0,0.0,0.0,0.0,0.0,0.0,0.0,0.0,2.5935,2.5826,2.6041,2.6472,2.6001,2.5497,2.5115,2.4586,2.3774,0.0,0.0,0.0,0.0,0.0,0.0,0.0,0.0,0.0,0.0,0.0,0.0,0.0,0.0,0.0,0.0,0.0,0.0,0.0,0.0,0.0,0.0,0.0,0.0,0.0,0.0,0.0,0.0,0.0,0.0,0.0,0.0,0.0,0.0,0.0,0.0,0.0,0.0,0.0,0.0,0.0,3.446,3.1578,3.1631,3.1313,0.0,0.0,3.0558,3.0252,3.1063,0.0,0.0,0.0,0.0,0.0,0.0,0.0,0.0,0.0,0.0,0.0,0.0,0.0,0.0,0.0,0.0,0.0,0.0,0.0,0.0,0.0,0.0,0.0,0.0,0.0,0.0,0.0,0.0,0.0,0.0,0.0,0.0,0.0,0.0,0.0,0.0,0.0,0.0,0.0,0.0,0.0,0.0,0.0,0.0,0.0,0.0,0.0,0.0,0.0,0.0,0.0,0.0,0.0,0.0,0.0,2.4096,2.4865,2.477,2.4805,2.5136,2.5487,2.4982,2.3627,2.3373,2.2835,0.0,0.0,0.0,0.0,0.0,0.0,0.0,0.0,0.0,0.0,0.0,0.0,0.0,0.0,0.0,0.0,0.0,0.0,0.0,0.0,0.0,0.0,0.0,0.0,0.0,0.0,0.0,0.0,0.0,0.0,0.0,0.0,0.0,0.0,0.0,0.0,0.0,0.0,0.0,0.0,0.0,0.0,3.1402,3.144,0.0,0.0,0.0,3.0123,2.961,0.0,0.0,0.0,0.0,0.0,0.0,0.0,0.0,0.0,0.0,0.0,0.0,0.0,0.0,0.0,0.0,0.0,0.0,0.0,0.0,0.0,0.0,0.0,0.0,0.0,0.0,0.0,0.0,0.0,0.0,0.0,0.0,0.0,0.0,0.0,0.0,0.0,0.0,0.0,0.0,0.0,0.0,0.0,0.0,0.0,0.0,0.0,0.0,0.0,0.0,0.0,0.0,0.0,0.0,0.0,0.0,0.0,2.3801,2.3546,2.349,2.3856,2.4589,2.4152,2.2492,2.1855,0.0,0.0,0.0,0.0,0.0,0.0,0.0,0.0,0.0,0.0,0.0,0.0,0.0,0.0,0.0,0.0,0.0,0.0,0.0,0.0,0.0,0.0,0.0,0.0,0.0,0.0,0.0,2.3368,0.0,0.0,0.0,0.0,0.0,0.0,0.0,0.0,0.0,0.0,0.0,0.0,0.0,0.0,3.2356,3.1388,3.1367,3.1268,0.0,0.0,2.9536,2.8978,2.925,2.8446,0.0,0.0,0.0,0.0,0.0,0.0,0.0,0.0,0.0,0.0,0.0,0.0,0.0,0.0,0.0,0.0,0.0,0.0,0.0,0.0,0.0,0.0,0.0,0.0,0.0,0.0,0.0,0.0,0.0,0.0,0.0,0.0,0.0,0.0,0.0,0.0,0.0,0.0,0.0,0.0,0.0,0.0,0.0,0.0,0.0,0.0,0.0,0.0,0.0,0.0,0.0,0.0,0.0,0.0,2.1352,2.2563,2.1809,2.1947,2.3144,2.2775,2.2599,2.2385,2.0425,1.9591,0.0,0.0,0.0,0.0,0.0,0.0,0.0,0.0,0.0,0.0,0.0,0.0,0.0,0.0,0.0,0.0,0.0,0.0,0.0,0.0,0.0,0.0,0.0,0.0,0.0,0.0,0.0,0.0,0.0,0.0,0.0,0.0,0.0,0.0,0.0,0.0,0.0,0.0,0.0,0.0,0.0,3.1116,3.0838,3.1045,3.1141,0.0,2.9834,2.8756,2.8864,2.8888,2.7757,2.4352,0.0,0.0,0.0,0.0,0.0,0.0,0.0,0.0,0.0,0.0,0.0,0.0,0.0,0.0,0.0,0.0,0.0,0.0,0.0,0.0,0.0,0.0,0.0,0.0,0.0,0.0,0.0,0.0,0.0,0.0,0.0,0.0,0.0,0.0,0.0,0.0,0.0,0.0,0.0,0.0,0.0,0.0,0.0,0.0,0.0,0.0,0.0,0.0,0.0,0.0,0.0,0.0,0.0,1.9968,2.1181,2.0737,2.0983,2.2013,2.1436,2.1078,2.1078,2.0277,1.9712,0.0,0.0,0.0,0.0,0.0,0.0,0.0,0.0,0.0,0.0,0.0,0.0,0.0,0.0,0.0,0.0,0.0,0.0,0.0,0.0,0.0,0.0,0.0,0.0,0.0,0.0,0.0,0.0,2.266,2.2431,2.2146,0.0,0.0,0.0,0.0,0.0,0.0,0.0,0.0,0.0,0.0,2.88,2.8045,2.822,0.0,0.0,2.8199,2.7758,2.8017,2.7608,2.6277,2.3535,2.26,0.0,0.0,0.0,0.0,0.0,0.0,0.0,0.0,0.0,0.0,0.0,0.0,0.0,0.0,0.0,0.0,0.0,0.0,0.0,0.0,0.0,0.0,0.0,0.0,0.0,0.0,0.0,0.0,0.0,0.0,0.0,0.0,0.0,0.0,0.0,0.0,0.0,0.0,0.0,0.0,0.0,0.0,0.0,0.0,0.0,0.0,0.0,0.0,0.0,0.0,0.0,0.0,1.8915,1.9621,1.9493,1.9618,2.0069,2.0226,1.9903,1.9241,1.934,1.8937,0.0,0.0,0.0,0.0,0.0,0.0,0.0,0.0,0.0,0.0,0.0,0.0,0.0,0.0,0.0,0.0,0.0,0.0,0.0,0.0,0.0,0.0,0.0,0.0,0.0,0.0,0.0,0.0,2.2186,2.1809,2.1419,0.0,0.0,0.0,0.0,0.0,0.0,0.0,0.0,0.0,0.0,2.6648,2.606,2.6311,2.665,2.6929,2.6287,2.5948,2.6201,2.5544,2.4294,2.2245,0.0,0.0,0.0,0.0,0.0,0.0,0.0,0.0,0.0,0.0,0.0,0.0,0.0,0.0,0.0,0.0,0.0,0.0,0.0,0.0,0.0,0.0,0.0,0.0,0.0,0.0,0.0,2.1458,0.0,0.0,2.2252,0.0,0.0,0.0,0.0,0.0,0.0,0.0,0.0,0.0,0.0,0.0,0.0,0.0,0.0,0.0,0.0,0.0,0.0,0.0,0.0,0.0,0.0,1.8127,1.7937,1.779,1.7562,1.71,1.9184,1.9131,1.6787,1.7086,1.6795,1.5604,0.0,0.0,0.0,0.0,0.0,0.0,0.0,0.0,0.0,0.0,0.0,0.0,0.0,0.0,0.0,0.0,0.0,0.0,0.0,0.0,0.0,0.0,0.0,0.0,0.0,0.0,2.1829,2.1094,2.0557,0.0,0.0,0.0,0.0,0.0,0.0,0.0,0.0,0.0,2.3359,2.3965,2.4754,2.5613,2.5674,2.5517,2.5622,2.4281,2.3151,2.3198,2.2681,2.1752,0.0,0.0,0.0,0.0,0.0,0.0,0.0,0.0,0.0,0.0,0.0,0.0,0.0,0.0,0.0,0.0,0.0,0.0,0.0,0.0,0.0,0.0,0.0,0.0,0.0,0.0,0.0,2.1201,2.0747,0.0,0.0,0.0,0.0,0.0,0.0,0.0,0.0,0.0,0.0,0.0,2.022,2.0159,0.0,0.0,0.0,0.0,0.0,0.0,0.0,0.0,0.0,0.0,0.0,0.0,1.6337,1.6669,1.6746,1.6735,1.6692,1.7341,1.7394,1.6536,1.5397,1.5048,1.5638,0.0,0.0,0.0,0.0,0.0,0.0,0.0,0.0,0.0,0.0,0.0,0.0,0.0,0.0,0.0,0.0,0.0,0.0,0.0,0.0,0.0,0.0,0.0,0.0,0.0,2.1747,0.0,0.0,0.0,0.0,0.0,0.0,0.0,0.0,0.0,0.0,0.0,2.1562,2.156,2.2315,2.286,2.2432,2.2959,2.3325,0.0,0.0,0.0,0.0,0.0,0.0,0.0,0.0,0.0,0.0,0.0,0.0,0.0,0.0,1.926,1.7616,1.745,1.7316,1.6982,0.0,0.0,0.0,0.0,0.0,0.0,0.0,0.0,0.0,0.0,0.0,0.0,0.0,0.0,1.9399,0.0,1.8939,0.0,0.0,0.0,0.0,0.0,0.0,0.0,0.0,1.8958,1.8971,1.8839,1.8872,1.8447,0.0,1.7515,1.7831,0.0,0.0,0.0,0.0,0.0,0.0,0.0,0.0,1.5033,1.5233,1.5468,1.5556,1.532,1.5397,1.5356,1.5154,1.3926,1.3711,1.4836,1.43,1.4194,0.0,0.0,0.0,0.0,0.0,0.0,0.0,0.0,0.0,0.0,0.0,0.0,0.0,0.0,0.0,0.0,0.0,0.0,0.0,0.0,0.0,0.0,0.0,2.0651,0.0,0.0,0.0,0.0,0.0,0.0,0.0,0.0,0.0,2.1191,2.0848,2.0459,2.05,2.0879,2.0899,2.0355,0.0,0.0,0.0,0.0,0.0,0.0,0.0,1.7968,1.7541,1.6896,1.6206,1.5787,1.6167,1.6255,1.5815,0.0,0.0,1.5659,1.568,1.5676,1.5343,1.5162,1.504,1.4787,1.4575,1.4311,0.0,0.0,0.0,0.0,0.0,0.0,0.0,0.0,1.6264,1.6082,0.0,1.6259,0.0,0.0,0.0,0.0,1.6288,1.6331,0.0,0.0,1.6521,1.657,1.6286,1.6279,1.619,1.619,1.6176,1.6161,1.6015,1.5538,0.0,0.0,0.0,0.0,0.0,0.0,1.4311,1.3512,1.4005,1.3879,1.3027,1.3387,1.3278,1.2771,1.2735,1.2868,1.3109,1.369,1.3698,1.3167,1.4163,0.0,0.0,0.0,0.0,0.0,0.0,0.0,0.0,0.0,0.0,0.0,0.0,0.0,0.0,0.0,0.0,0.0,0.0,0.0,0.0,1.8619,0.0,0.0,0.0,0.0,0.0,0.0,0.0,0.0,0.0,0.0,1.8979,1.9685,2.0153,2.0062,0.0,0.0,0.0,0.0,1.7601,1.7601,1.7711,1.7436,1.6851,1.7946,1.827,1.6363,0.0,0.0,1.4218,1.4407,1.4424,1.3282,1.3522,1.4268,1.5903,1.627,1.6253,1.5396,1.4503,1.4014,1.3892,1.3043,1.187,1.1621,0.0,0.0,0.0,0.0,1.3748,1.4532,1.4969,1.5742,1.5859,1.5476,1.5637,0.0,0.0,0.0,0.0,0.0,0.0,1.6322,1.6468,1.665,1.6803,1.7026,1.7026,1.6174,1.4752,1.4759,1.4005,1.2428,1.2136,1.3114,1.522,0.0,0.0,0.0,0.0,1.3121,1.2277,1.2369,1.1937,1.0804,1.2553,1.3282,1.2687,1.2939,1.3127,1.3393,1.3207,1.3392,1.4004,1.3743,0.0,0.0,0.0,0.0,0.0,0.0,0.0,0.0,0.0,0.0,0.0,0.0,0.0,0.0,0.0,0.0,0.0,0.0,0.0,1.8519,1.8314,1.8331,0.0,0.0,0.0,0.0,0.0,0.0,0.0,0.0,0.0,1.7299,1.8255,1.8625,0.0,0.0,1.8184,1.7227,1.7246,1.7389,1.72,1.6472,0.0,1.6397,1.5747,1.5176,1.5022,1.4861,1.4128,1.2342,1.2293,1.2003,1.0871,1.0864,1.122,1.1497,1.2322,1.2767,1.2386,1.1571,1.0893,1.0897,1.0551,1.0306,0.8836,0.9328,1.0491,1.0721,1.0538,1.1728,1.2505,1.2819,1.3502,1.3608,1.346,1.3454,1.3085,1.2522,1.259,0.0,0.0,0.0,1.3952,1.4223,1.4322,1.4458,1.4702,1.4709,1.4028,1.2678,1.2587,1.1859,1.0688,1.0309,1.1222,1.3126,0.0,0.0,1.2182,1.1972,1.1478,1.0838,1.0909,1.0665,0.9927,1.1316,1.2073,1.2133,1.2042,1.2294,1.2992,1.2618,1.2909,1.3945,1.3464,1.314,0.0,0.0,0.0,0.0,0.0,0.0,0.0,0.0,0.0,0.0,0.0,1.6952,1.6523,0.0,0.0,0.0,1.696,1.7314,1.7653,1.7492,0.0,0.0,0.0,0.0,0.0,0.0,0.0,1.583,1.5569,1.5383,1.534,1.6138,1.6677,1.6736,1.664,1.638,1.5578,0.0,1.512,1.4982,1.4173,1.3565,1.3803,1.3192,1.2811,1.2889,1.2459,1.1788,1.0747,1.0561,1.0472,0.9788,0.9664,0.9673,0.9649,0.9772,1.0038,1.0439,1.0041,0.9646,0.9646,0.9646,0.9513,0.673,0.6694,0.8375,0.9127,0.936,0.9731,1.0013,1.0266,1.0271,1.0369,1.0369,1.0369,1.0066,0.963,0.9366,0.0,0.9647,0.9927,1.021,1.0419,1.0697,1.0779,1.0779,1.0779,1.0578,1.0266,1.0,1.0005,1.0049,0.9626,0.9545,0.9895,0.9714,0.9593,0.947,0.98,0.9719,0.9367,0.9647,0.9767,0.962,0.9814,1.019,1.0885,1.049,1.0842,1.2068,1.1987,1.2334,1.3229,1.3082,1.2508,1.1688,0.0,0.0,0.0,0.0,0.0,0.0,0.0,0.0,0.0,0.0,0.0,0.0,0.0,0.0,1.5431,1.5745,0.0,1.625,1.6279,0.0,0.0,0.0,1.5647,1.5674,1.5408,1.506,1.4469,0.0,0.0,1.3167,1.3418,1.4309,1.5987,1.4871,1.3953,1.403,1.2767,1.1728,1.1862,1.1277,1.074,1.0634,1.0874,1.1103,1.064,0.9854,0.9549,0.9426,0.9429,0.935,0.9177,0.9246,0.9199,0.9323,0.8532,0.815,0.9068,0.9229,0.9247,0.9244,0.9247,0.8848,0.665,0.6538,0.7044,0.7315,0.7327,0.8113,0.8477,0.8609,0.9402,0.9797,0.9797,0.9797,0.9769,0.9634,0.9502,0.9695,0.9931,1.0215,1.0299,1.0405,1.0449,1.0471,1.0467,1.0471,0.9981,0.9193,0.9158,0.8671,0.8014,0.7748,0.7604,0.7587,0.7605,0.8181,0.947,0.9578,0.9244,0.8446,0.871,0.8496,0.7834,0.8885,0.9153,0.8513,0.9853,1.0858,1.1143,1.1104,1.1376,1.2048,1.1817,1.1625,1.1586,1.1618,0.0,0.0,0.0,0.0,0.0,0.0,0.0,0.0,0.0,1.4936,1.4648,0.0,1.5694,0.0,1.5935,1.6022,1.5541,1.5466,0.0,0.0,1.5093,1.4993,1.5207,1.4298,1.3671,1.376,1.2984,1.2162,1.142,1.1121,1.0921,1.0863,1.1781,1.1996,1.0767,1.041,1.035,1.0229,0.9802,0.9529,0.9871,0.9896,0.9856,0.9618,0.9519,0.9157,0.8394,0.8269,0.802,0.7274,0.7002,0.6993,0.7018,0.6759,0.6763,0.6902,0.7142,0.7252,0.7252,0.725,0.7116,0.5212,0.4984,0.5112,0.5723,0.6692,0.7113,0.7329,0.7329,0.7925,0.8219,0.8219,0.8219,0.8171,0.8185,0.8181,0.8279,0.838,0.8561,0.8704,0.8803,0.8803,0.8803,0.8806,0.8803,0.8411,0.772,0.772,0.7428,0.6833,0.677,0.6675,0.6739,0.6739,0.7246,0.8286,0.8275,0.8063,0.765,0.7908,0.7807,0.7396,0.8142,0.8306,0.778,0.8783,0.9643,1.0192,1.0116,1.0627,1.1724,1.1689,1.1671,1.1837,1.1662,1.1286,0.0,0.0,0.0,0.0,0.0,0.0,0.0,0.0,0.0,0.0,0.0,1.4977,1.5081,1.539,1.545,1.5212,1.5134,1.5173,1.5114,1.4432,1.4022,1.4172,1.3116,1.2355,1.2279,1.1369,1.0617,1.0048,0.9448,0.875,0.8014,0.895,0.9459,0.8961,0.8813,0.8609,0.8549,0.799,0.7562,0.8116,0.7937,0.7859,0.7735,0.7859,0.7614,0.6998,0.6913,0.669,0.6191,0.6094,0.6123,0.6127,0.6157,0.618,0.6194,0.6261,0.6325,0.6333,0.6331,0.6331,0.3002,0.2817,0.3045,0.4599,0.6674,0.6438,0.6439,0.6437,0.6437,0.6437,0.6437,0.6437,0.6437,0.6437,0.6437,0.6437,0.6437,0.6437,0.6539,0.6745,0.6745,0.6745,0.6745,0.6745,0.6642,0.6439,0.6442,0.6442,0.6442,0.6442,0.6481,0.6563,0.6574,0.6617,0.6688,0.6694,0.682,0.6948,0.7234,0.7495,0.7722,0.7648,0.7706,0.7901,0.7695,0.8142,0.91,0.9067,0.9899,1.1754,1.1831,1.1892,1.2065,1.2076,1.1567,0.0,1.0713,0.0,0.0,0.0,0.0,0.0,0.0,0.0,0.0,1.3496,1.4002,1.4542,1.4638,1.4771,1.4886,1.4937,1.4867,1.4771,1.3698,1.2931,1.2937,1.1934,1.1057,1.0571,0.9887,0.9313,0.8714,0.811,0.7405,0.6661,0.6649,0.7059,0.7664,0.7397,0.704,0.694,0.6303,0.6003,0.6007,0.5889,0.5891,0.5889,0.5895,0.5763,0.5893,0.5833,0.5882,0.5888,0.5939,0.5994,0.6012,0.6076,0.6119,0.6108,0.6117,0.6139,0.6184,0.6198,0.6178,0.0641,0.0748,0.2512,0.4581,0.669,0.6436,0.6458,0.6437,0.6437,0.6437,0.6437,0.6437,0.6437,0.6437,0.6437,0.6437,0.6437,0.6437,0.6437,0.6439,0.6439,0.6439,0.6439,0.6453,0.6458,0.6458,0.6366,0.6369,0.6369,0.6369,0.6407,0.6491,0.6487,0.6372,0.6352,0.0,0.0,0.0,0.7197,0.7459,0.7691,0.7606,0.7619,0.7717,0.7784,0.0,0.7921,0.7897,0.8726,1.0413,1.0232,0.0,0.0,0.0,0.0,0.0,0.0,0.0,0.0,0.0,0.0,0.0,1.2304,1.2612,1.3411,1.4059,1.433,1.4223,1.4701,1.4621,1.379,1.3969,1.3902,1.3238,1.2657,1.2165,1.217,1.073,0.9561,0.9466,0.8399,0.7465,0.6978,0.6575,0.6243,0.5676,0.5503,0.5656,0.5951,0.6014,0.589,0.5881,0.5777,0.5669,0.5669,0.5669,0.5669,0.5669,0.5669,0.5667,0.5667,0.568,0.5696,0.5698,0.571,0.5753,0.5818,0.5847,0.5867,0.5859,0.5861,0.5923,0.6133,0.6178,0.6159,-0.0,-0.0,0.1155,0.2283,0.0,0.5562,0.5809,0.4931,0.5947,0.6453,0.6448,0.6442,0.6437,0.6437,0.6437,0.6437,0.6437,0.6437,0.6442,0.645,0.645,0.645,0.6456,0.6366,0.5859,0.4841,0.4843,0.4847,0.4847,0.4847,0.4822,0.4777,0.482,0.4818,0.4773,0.5822,0.6492,0.6849,0.7233,0.7463,0.7638,0.7806,0.7806,0.7825,0.7848,0.0,0.0,0.0,0.0,0.0,0.0,0.0,0.0,1.1148,0.0,1.1359,1.1558,1.1698,1.1698,1.1811,1.1978,1.221,1.2339,1.2576,1.2968,1.3281,1.352,1.352,1.3761,1.3759,1.3166,1.3064,1.2851,1.237,1.1385,1.0596,1.0498,0.9213,0.8226,0.8127,0.7235,0.6483,0.6287,0.5789,0.5545,0.5258,0.5175,0.5194,0.5255,0.5437,0.5576,0.5576,0.5578,0.5578,0.5578,0.5576,0.5578,0.5573,0.5543,0.5518,0.5514,0.5547,0.5563,0.5535,0.558,0.5649,0.5643,0.5682,0.5712,0.5712,0.5712,0.5747,0.5892,0.5914,0.5904,-0.0,-0.0,-0.0,-0.0,0.0309,0.424,0.482,0.3327,0.0,0.0,0.0,0.6448,0.6442,0.6442,0.6442,0.6445,0.6445,0.6442,0.6453,0.6366,0.6057,0.5859,0.5864,0.6173,0.5459,0.3831,0.3024,0.2621,0.262,0.262,0.262,0.2619,0.2611,0.3008,0.3812,0.5231,0.6245,0.6842,0.7134,0.7426,0.754,0.7743,0.7928,0.8001,0.7879,0.7746,0.7607,0.7597,0.7819,0.8329,0.8598,0.9138,1.0083,1.0553,1.1026,1.1452,1.1786,1.2027,1.2102,1.2113,1.2215,1.2463,1.2651,1.2684,1.249,1.2479,1.2554,1.2743,1.2759,1.2764,1.2759,1.217,1.178,1.1775,1.01,0.9019,0.892,0.7829,0.7039,0.6939,0.6339,0.5871,0.5846,0.5351,0.4981,0.5061,0.5084,0.5096,0.513,0.5292,0.5439,0.5475,0.5469,0.5461,0.5482,0.5486,0.5486,0.5484,0.5431,0.5386,0.5392,0.5439,0.5451,0.5408,0.5508,0.5553,0.5527,0.5573,0.5616,0.5618,0.562,0.5608,0.558,0.5573,0.5582,-0.0,-0.0,-0.0,-0.0,0.0203,0.2639,0.3446,0.3236,0.3531,0.4642,0.6374,0.6372,0.6372,0.6372,0.6372,0.6369,0.6369,0.6369,0.6372,0.6271,0.4539,0.3627,0.3731,0.5567,0.6284,0.567,0.2221,0.0404,-0.0,-0.0,0.0505,-0.0,0.0497,0.2365,0.5541,0.5003,0.5338,0.6959,0.7126,0.722,0.7235,0.7543,0.7681,0.7848,0.7824,0.7743,0.7604,0.76,0.8052,0.895,0.8463,0.8647,0.9606,0.9935,1.0186,1.0508,1.1279,1.193,1.2328,1.2361,1.2468,1.2689,1.2748,1.2748,1.2721,1.2716,1.2727,1.2759,1.2764,1.2759,1.2764,1.1673,1.0979,1.0783,0.9304,0.8223,0.8124,0.6933,0.6139,0.6139,0.5438,0.5037,0.5056,0.496,0.4894,0.4969,0.499,0.5018,0.5088,0.5137,0.523,0.5345,0.5331,0.5322,0.5369,0.5398,0.539,0.54,0.5382,0.5359,0.5359,0.5371,0.5384,0.5382,0.5406,0.5439,0.548,0.5514,0.5518,0.5516,0.5516,0.548,0.5359,0.5322,0.5328,-0.0,-0.0,-0.0,-0.0,0.0101,0.101,0.1415,0.1415,0.1513,0.2017,0.3025,0.4135,0.4643,0.4643,0.4643,0.4643,0.4643,0.4643,0.5253,0.6282,0.5361,0.3734,0.1715,0.2524,0.2929,0.2727,0.101,-0.0,-0.0,-0.0,-0.0,-0.0,0.2048,0.4475,0.6997,0.6079,0.6023,0.7256,0.7244,0.7238,0.7441,0.7566,0.7784,0.7814,0.7814,0.7706,0.7489,0.7709,0.7879,0.7905,0.7625,0.7773,0.8403,0.903,0.9616,1.0244,1.1361,1.1984,1.2199,1.2339,1.2517,1.2737,1.2646,1.2635,1.2754,1.2759,1.2759,1.2764,1.2262,1.1965,1.1868,1.0587,0.9702,0.9501,0.8117,0.7132,0.6833,0.6034,0.5338,0.5338,0.5035,0.4834,0.4832,0.4832,0.4845,0.4892,0.4898,0.4934,0.5016,0.4992,0.5026,0.5188,0.5198,0.5192,0.5228,0.5235,0.5235,0.5235,0.5235,0.5233,0.5233,0.5235,0.5255,0.5296,0.5306,0.5322,0.5363,0.5363,0.5365,0.5363,0.5363,0.5318,0.5255,0.5173,0.5132,-0.0,-0.0,-0.0,-0.0,-0.0,-0.0,-0.0,-0.0,-0.0,-0.0,-0.0,0.1814,0.2519,0.2519,0.2519,0.2519,0.2519,0.2519,0.333,0.4857,0.496,0.3133,-0.0,-0.0,-0.0,-0.0,-0.0,0.0402,0.1204,0.1299,0.1086,0.1163,0.3833,0.6056,0.7591,0.6914,0.687,0.7448,0.7254,0.7362,0.7592,0.7677,0.7797,0.7763,0.776,0.7668,0.7502,0.7804,0.7664,0.7031,0.7009,0.7085,0.7344,0.8313,0.9212,1.0074,1.1312,1.1995,1.2048,1.2226,1.2409,1.2581,1.2436,1.2431,1.2646,1.2689,1.2711,1.2651,1.1868,1.1268,1.1072,0.9505,0.8322,0.8117,0.6927,0.6037,0.5739,0.5135,0.4832,0.4832,0.4832,0.4832,0.4832,0.4832,0.4836,0.4836,0.4832,0.4867,0.4916,0.4875,0.4906,0.4998,0.5063,0.5094,0.51,0.5114,0.5116,0.5106,0.5114,0.5124,0.5122,0.5114,0.513,0.52,0.5212,0.5216,0.5216,0.5239,0.5253,0.5263,0.5265,0.5237,0.5173,0.5053,0.4967,-0.0,-0.0,-0.0,-0.0,-0.0,-0.0,-0.0,-0.0,-0.0,-0.0,-0.0,-0.0,-0.0,0.0303,-0.0,-0.0,-0.0,-0.0,-0.0,-0.0,-0.0,-0.0,-0.0,-0.0,-0.0,-0.0,-0.0,0.1774,0.4636,0.4947,0.4466,0.3449,0.368,0.4814,0.636,0.6804,0.7058,0.7367,0.7256,0.7219,0.744,0.7624,0.775,0.7621,0.7617,0.7672,0.7719,0.7811,0.7746,0.7486,0.7286,0.7085,0.7012,0.812,0.8987,0.9319,1.0806,1.1822,1.2107,1.207,1.2097,1.22,1.2102,1.2188,1.2431,1.2452,1.2544,1.2608,1.1765,1.1175,1.1072,0.8905,0.7422,0.7223,0.6032,0.4935,0.4935,0.4834,0.4832,0.4832,0.4832,0.4832,0.4832,0.4832,0.4832,0.4832,0.4832,0.4839,0.4855,0.4851,0.4836,0.4877,0.493,0.5014,0.5069,0.5104,0.5081,0.509,0.5102,0.5086,0.5075,0.5084,0.5114,0.5108,0.512,0.512,0.5139,0.5179,0.523,0.5204,0.52,0.5188,0.5039,0.4926,0.4879,0.0956,0.094,0.0925,0.0611,-0.0,-0.0,-0.0,-0.0,-0.0,-0.0,-0.0,-0.0,-0.0,-0.0,-0.0,-0.0,-0.0,-0.0,-0.0,-0.0,-0.0,-0.0,-0.0,0.2727,0.362,0.3279,0.2557,0.2921,0.4432,0.5588,0.5786,0.5359,0.5341,0.5982,0.6933,0.6904,0.7053,0.7503,0.7416,0.7306,0.7359,0.7553,0.7522,0.7475,0.7465,0.7441,0.7438,0.7584,0.7577,0.736,0.7139,0.7002,0.6805,0.8277,0.9095,0.908,1.0602,1.1532,1.1634,1.1763,1.1838,1.1838,1.1844,1.2,1.2361,1.2285,1.235,1.249,1.1277,1.0293,1.0096,0.8117,0.6634,0.6434,0.5837,0.5438,0.5037,0.5037,0.5037,0.4834,0.4832,0.4832,0.4832,0.4832,0.4832,0.4832,0.4834,0.4834,0.4834,0.4832,0.4832,0.4839,0.4869,0.4898,0.4945,0.4947,0.4949,0.4947,0.4945,0.4947,0.4953,0.4947,0.4959,0.5016,0.5026,0.5028,0.5028,0.5047,0.5084,0.509,0.5086,0.5055,0.4983,0.49,0.4847,0.1355,0.1437,0.1531,0.1015,0.0202,0.0202,0.0202,0.0202,0.0101,0.0101,0.0202,0.0404,0.0303,0.0202,0.0101,-0.0,-0.0,-0.0,-0.0,-0.0,0.1111,-0.0,0.2121,0.4343,0.5812,0.5814,0.4871,0.4409,0.4593,0.5729,0.6512,0.6494,0.6678,0.6949,0.7218,0.7025,0.7072,0.7438,0.736,0.7292,0.7265,0.7288,0.7305,0.7305,0.7309,0.7272,0.7214,0.7417,0.7438,0.7224,0.7275,0.7331,0.7183,0.8727,0.9616,0.9763,1.0738,1.1354,1.1267,1.151,1.1602,1.1602,1.1602,1.1774,1.2091,1.2054,1.2145,1.2384,1.0674,0.9535,0.9406,0.7627,0.6239,0.6042,0.5942,0.5739,0.5338,0.534,0.5238,0.4935,0.4935,0.4834,0.4834,0.4834,0.4935,0.4935,0.4935,0.4935,0.4935,0.4935,0.4834,0.4935,0.4836,0.4836,0.4832,0.4849,0.4832,0.4832,0.4847,0.4851,0.4832,0.4836,0.4843,0.493,0.4932,0.4939,0.4943,0.4945,0.5076,0.4973,0.4973,0.4965,0.4926,0.4871,0.4845,0.0826,0.0953,0.1358,0.1333,0.0808,0.0808,0.0808,0.0707,0.0404,0.0404,0.0909,0.1414,0.1313,0.0909,0.0505,-0.0,-0.0,-0.0,-0.0,0.0606,0.3942,0.5982,0.5982,0.4841,0.5088,0.6566,0.6263,0.6182,0.6406,0.6649,0.6723,0.6805,0.6799,0.6884,0.7074,0.7064,0.7058,0.7187,0.7166,0.7099,0.7,0.7095,0.7153,0.7163,0.7156,0.7217,0.7329,0.7366,0.7366,0.7356,0.7938,0.8222,0.8239,0.9578,1.0783,1.1402,1.1613,1.1521,1.1338,1.1365,1.1289,1.1283,1.1386,1.1396,1.1763,1.1768,1.1881,1.2086,1.0414,0.9304,0.9379,0.7528,0.6139,0.6042,0.5839,0.5636,0.5636,0.5636,0.5436,0.5238,0.514,0.5138,0.4935,0.5037,0.514,0.514,0.514,0.5238,0.5336,0.5135,0.5035,0.5037,0.5037,0.4834,0.4834,0.4832,0.4832,0.4834,0.4834,0.4834,0.4834,0.4834,0.4841,0.4845,0.4958,0.4966,0.4863,0.489,0.5043,0.5058,0.5051,0.5033,0.4987,0.4853,0.4834,0.1324,0.1339,0.1536,0.1525,0.1314,0.1313,0.1313,0.1415,0.2624,0.3026,0.2924,0.3425,0.3524,0.3321,0.3219,0.292,0.252,0.2215,0.2013,0.2214,0.4033,0.5555,0.6779,0.6456,0.644,0.6855,0.6966,0.6888,0.691,0.6969,0.6969,0.6966,0.6966,0.7054,0.7051,0.7139,0.7139,0.7044,0.7058,0.6937,0.696,0.7027,0.7044,0.7048,0.7139,0.7163,0.7221,0.7224,0.7492,0.8112,0.8308,0.8682,0.9311,1.0257,1.1161,1.1774,1.1785,1.1547,1.116,1.1268,1.1273,1.1144,1.1268,1.1451,1.1639,1.1709,1.186,1.1796,1.0398,0.9386,0.9139,0.7528,0.6237,0.6237,0.6137,0.6034,0.5939,0.5839,0.5739,0.5539,0.5438,0.5438,0.5336,0.5436,0.5436,0.5436,0.5436,0.5536,0.5536,0.5436,0.5336,0.5438,0.5336,0.5336,0.5336,0.4935,0.4834,0.4834,0.4935,0.5037,0.5037,0.5236,0.524,0.524,0.5236,0.5236,0.5249,0.5256,0.5306,0.5304,0.5302,0.5196,0.5046,0.5037,0.4935,0.1609,0.1616,0.2019,0.2119,0.212,0.2522,0.2622,0.2823,0.3929,0.4431,0.4331,0.4929,0.5027,0.4926,0.5125,0.5129,0.4834,0.473,0.4628,0.4526,0.4931,0.5947,0.7068,0.7463,0.741,0.7152,0.7114,0.7171,0.7227,0.7163,0.7139,0.7139,0.7139,0.7139,0.7139,0.7139,0.7139,0.7112,0.7,0.698,0.7051,0.698,0.6973,0.7065,0.7115,0.7139,0.7139,0.7271,0.7679,0.8364,0.8828,0.9586,1.059,1.1123,1.1594,1.202,1.2037,1.1712,1.1324,1.1343,1.1364,1.1128,1.1252,1.1445,1.1666,1.1698,1.1871,1.1707,1.0805,0.9651,0.9107,0.7858,0.683,0.6537,0.6437,0.6337,0.6142,0.6139,0.6039,0.5737,0.5636,0.5636,0.5636,0.5636,0.5737,0.5737,0.5737,0.5737,0.5837,0.5737,0.5636,0.5737,0.5636,0.5536,0.5536,0.5336,0.5133,0.5236,0.5236,0.5338,0.5338,0.5536,0.5634,0.5634,0.5634,0.5634,0.5634,0.5634,0.5634,0.5634,0.5548,0.5459,0.5338,0.534,0.5236,0.1591,0.1816,0.2723,0.3224,0.3323,0.4124,0.4724,0.4524,0.4219,0.442,0.4926,0.5634,0.5734,0.5327,0.6032,0.6434,0.6439,0.716,0.7266,0.6859,0.7156,0.7253,0.7459,0.7553,0.7498,0.7211,0.7118,0.7238,0.7319,0.7204,0.7139,0.7139,0.7139,0.7139,0.7139,0.7139,0.7139,0.7109,0.7,0.6939,0.6932,0.6939,0.6943,0.697,0.7075,0.7228,0.7224,0.7703,0.8158,0.8462,0.9635,1.0985,1.1887,1.2183,1.2278,1.2316,1.2363,1.2112,1.1768,1.1688,1.1521,1.1316,1.1348,1.1451,1.165,1.1698,1.1747,1.1716,1.1101,1.0319,0.921,0.8437,0.7512,0.6634,0.6437,0.6437,0.6337,0.6437,0.6339,0.6039,0.5839,0.5636,0.5636,0.5837,0.5939,0.6042,0.6042,0.6039,0.6237,0.5934,0.5837,0.5939,0.5839,0.5834,0.5734,0.5636,0.5636,0.5636,0.5636,0.5639,0.5639,0.5737,0.5834,0.5834,0.5834,0.5834,0.5834,0.5834,0.5837,0.5837,0.5737,0.5636,0.5639,0.5639,0.5536,0.2708,0.2821,0.3825,0.4323,0.4325,0.4724,0.4824,0.4924,0.5327,0.5729,0.6032,0.6936,0.7238,0.7135,0.7338,0.7537,0.7537,0.7849,0.7856,0.7553,0.755,0.755,0.765,0.7743,0.7788,0.7513,0.7397,0.7265,0.7217,0.7166,0.7139,0.7139,0.7139,0.7139,0.7139,0.7139,0.7139,0.7126,0.7,0.6973,0.7051,0.6976,0.6973,0.7068,0.7731,0.8105,0.8101,0.8229,0.8979,1.0167,1.0569,1.1227,1.2046,1.2312,1.235,1.2407,1.2357,1.2283,1.1952,1.178,1.1699,1.1527,1.144,1.1462,1.1661,1.1698,1.1838,1.1983,1.1243,1.051,1.035,0.9598,0.8307,0.6623,0.6437,0.6437,0.6437,0.6437,0.6337,0.6237,0.6237,0.6137,0.6137,0.6237,0.6239,0.6239,0.6239,0.6339,0.6337,0.6237,0.6137,0.6239,0.6137,0.6034,0.6037,0.6037,0.6037,0.5937,0.5937,0.5837,0.5939,0.5939,0.6037,0.6034,0.6034,0.6034,0.6134,0.6037,0.6037,0.6137,0.6137,0.6037,0.5939,0.5839,0.5837,0.3801,0.3924,0.4926,0.5427,0.5427,0.5827,0.5929,0.6029,0.6736,0.7039,0.7138,0.764,0.8038,0.8038,0.8038,0.8038,0.8038,0.8038,0.7939,0.7746,0.7746,0.7743,0.7733,0.7878,0.7913,0.7736,0.7495,0.7356,0.7309,0.7197,0.7139,0.7139,0.7139,0.7139,0.7139,0.7139,0.7139,0.7122,0.6917,0.6997,0.7078,0.7339,0.7508,0.772,0.8475,0.9048,0.9302,0.9316,0.9823,1.0964,1.1222,1.1669,1.2332,1.2379,1.2344,1.2468,1.2534,1.2454,1.2203,1.2032,1.186,1.178,1.1613,1.1717,1.1905,1.1876,1.1956,1.2048,1.1626,1.113,1.0863,1.0441,0.922,0.7809,0.7229,0.6833,0.6537,0.6437,0.6437,0.6337,0.6337,0.6437,0.6437,0.6437,0.6437,0.6437,0.6437,0.6437,0.6437,0.6437,0.6437,0.6437,0.6337,0.6337,0.6337,0.6337,0.6337,0.6337,0.6239,0.6139,0.6139,0.6239,0.6337,0.6237,0.6237,0.6237,0.6237,0.6337,0.6337,0.6437,0.6437,0.6337,0.6139,0.6139,0.6139,0.4946,0.502,0.6032,0.6534,0.6637,0.7437,0.7736,0.7939,0.7939,0.7939,0.7942,0.7939,0.8038,0.8038,0.8038,0.8038,0.8038,0.8038,0.8038,0.7939,0.7939,0.7939,0.7925,0.7929,0.7906,0.7896,0.7597,0.7485,0.7529,0.7302,0.7153,0.7173,0.7156,0.7139,0.7139,0.7139,0.7139,0.7122,0.7101,0.7198,0.7302,0.7959,0.8455,0.8615,0.9258,1.003,1.0526,1.0647,1.0733,1.099,1.1607,1.2128,1.2524,1.2445,1.2427,1.2681,1.2705,1.2619,1.2448,1.2363,1.2198,1.2037,1.1963,1.2152,1.2269,1.2148,1.2121,1.2254,1.2102,1.1744,1.1076,1.0905,1.0504,0.9763,0.8517,0.7528,0.6634,0.6537,0.6437,0.6437,0.6437,0.6437,0.6437,0.6437,0.6437,0.6437,0.6437,0.6437,0.6437,0.6437,0.6437,0.6437,0.6437,0.6437,0.6437,0.6437,0.6437,0.6337,0.6339,0.6339,0.6339,0.6337,0.6437,0.6437,0.6437,0.6437,0.6437,0.6437,0.6437,0.6437,0.6437,0.6437,0.6337,0.6339,0.6339,0.6592,0.6722,0.7528,0.7832,0.7836,0.8038,0.8137,0.8233,0.8038,0.8137,0.8237,0.8137,0.8038,0.8038,0.8038,0.8038,0.8038,0.8038,0.8038,0.8038,0.8038,0.8038,0.8038,0.7997,0.7936,0.7868,0.7746,0.7665,0.759,0.7488,0.7389,0.7305,0.7272,0.7228,0.7139,0.7228,0.7139,0.7228,0.7807,0.8051,0.8257,0.9013,0.952,0.9557,1.0383,1.0867,1.123,1.1849,1.1975,1.1723,1.1998,1.2252,1.2403,1.2361,1.2427,1.265,1.2705,1.2705,1.2619,1.2448,1.2363,1.2283,1.2123,1.2152,1.238,1.232,1.2496,1.2654,1.2845,1.2731,1.2416,1.2411,1.191,1.0765,0.9304,0.8021,0.7528,0.6833,0.6437,0.6437,0.6537,0.6537,0.6537,0.6437,0.6437,0.6437,0.6437,0.6437,0.6437,0.6437,0.6437,0.6437,0.6437,0.6437,0.6437,0.6437,0.6437,0.6437,0.6437,0.6337,0.6337,0.6437,0.6437,0.6437,0.6437,0.6437,0.6437,0.6437,0.6437,0.6437,0.6437,0.6437,0.6437,0.6337,0.6337,0.7822,0.7922,0.8428,0.8528,0.8528,0.8432,0.8432,0.8528,0.8432,0.8432,0.8531,0.8432,0.8233,0.8137,0.8137,0.8137,0.8137,0.8137,0.8237,0.8333,0.8336,0.8237,0.8038,0.8038,0.7991,0.7909,0.7838,0.7733,0.7688,0.7809,0.797,0.8061,0.8236,0.8356,0.8356,0.8356,0.8356,0.8444,0.8794,0.9061,0.9148,1.0014,1.0448,1.06,1.1321,1.1663,1.1651,1.2218,1.2337,1.2071,1.2161,1.2312,1.2312,1.2312,1.2433,1.2674,1.2705,1.2705,1.2705,1.2619,1.2534,1.2534,1.2369,1.2359,1.247,1.2423,1.2615,1.2825,1.2917,1.2927,1.3121,1.3177,1.2942,1.2155,1.0578,0.93,0.8814,0.8219,0.7822,0.7627,0.7329,0.703,0.7033,0.6734,0.6437,0.6437,0.6437,0.6437,0.6437,0.6437,0.6537,0.6734,0.6637,0.6637,0.6637,0.6637,0.6437,0.6437,0.6634,0.6637,0.6437,0.6437,0.6437,0.6437,0.6437,0.6437,0.6437,0.6437,0.6437,0.6437,0.6437,0.6437,0.6437,0.6637,0.6637,0.8821,0.8924,0.8829,0.8829,0.8829,0.8825,0.873,0.8829,0.8726,0.8825,0.8825,0.8825,0.8627,0.8432,0.8432,0.8428,0.8432,0.8432,0.851,0.87,0.8898,0.8799,0.843,0.8506,0.8517,0.8488,0.8275,0.8364,0.8608,0.8966,0.8947,0.9118,0.9823,1.0096,0.9836,1.0005,1.0183,0.9923,1.0009,1.0183,1.0361,1.1058,1.158,1.1729,1.2114,1.2272,1.224,1.2346,1.234,1.1986,1.221,1.2361,1.2373,1.2361,1.2469,1.2644,1.2705,1.2705,1.2705,1.2699,1.2699,1.2705,1.2705,1.2729,1.2715,1.259,1.2715,1.3016,1.2661,1.2923,1.3279,1.3425,1.342,1.3044,1.2252,1.1268,1.0293,0.9801,0.9608,0.9608,0.8715,0.8319,0.7922,0.7425,0.6833,0.7627,0.7428,0.7528,0.7528,0.7528,0.7528,0.7329,0.7229,0.6933,0.6933,0.6833,0.6634,0.6534,0.6833,0.6833,0.6437,0.6437,0.6437,0.6437,0.6437,0.6437,0.6437,0.6437,0.6537,0.6437,0.6437,0.6437,0.6437,0.6833,0.7033,0.9426,0.9426,0.9232,0.9137,0.9034,0.8928,0.8928,0.913,0.8928,0.8928,0.9031,0.8928,0.8825,0.8726,0.873,0.8726,0.8825,0.8814,0.8667,0.8758,0.9751,0.9707,0.9515,0.9753,0.9887,0.9972,1.0635,1.0868,1.0938,1.0641,1.0726,1.0729,1.0685,1.0524,1.0611,1.0697,1.0524,1.0611,1.1139,1.1488,1.166,1.2357,1.2796,1.2869,1.2983,1.3024,1.2903,1.3018,1.3002,1.2698,1.2541,1.2668,1.2566,1.259,1.2632,1.2674,1.2705,1.2705,1.2705,1.2705,1.2705,1.2705,1.2735,1.2795,1.3019,1.2937,1.3069,1.3315,1.3525,1.3554,1.366,1.359,1.3534,1.3437,1.3238,1.2948,1.236,1.0886,1.0002,0.9706,0.9505,0.9308,0.9312,0.911,0.8814,0.8913,0.8814,0.8916,0.8814,0.8715,0.8513,0.8315,0.8319,0.8219,0.812,0.7922,0.7624,0.7425,0.7624,0.772,0.7325,0.693,0.7126,0.683,0.6437,0.6537,0.6933,0.6833,0.6933,0.6736,0.6637,0.6833,0.7129,0.7428,0.7627,0.9624,0.9624,0.943,0.943,0.9331,0.9229,0.9229,0.9331,0.9229,0.9229,0.9327,0.9225,0.9126,0.9031,0.9031,0.9225,0.9805,1.0386,1.0631,1.0766,1.1225,1.1337,1.1362,1.1592,1.1687,1.1226,1.1512,1.1895,1.1833,1.202,1.1962,1.1956,1.202,1.221,1.1929,1.1912,1.2089,1.1997,1.2351,1.2705,1.2784,1.313,1.3398,1.3398,1.3398,1.3313,1.3209,1.33,1.3231,1.3084,1.3049,1.2899,1.2747,1.2723,1.2699,1.2705,1.2705,1.2705,1.2705,1.2705,1.2705,1.2711,1.2813,1.2874,1.3025,1.3127,1.3357,1.3532,1.3749,1.392,1.4076,1.4016,1.3919,1.3823,1.3732,1.3732,1.3437,1.236,1.1477,1.1277,1.1077,1.0877,1.0681,1.0489,1.0092,0.9887,0.9788,0.9792,0.9694,0.9592,0.9694,0.9596,0.9604,0.9604,0.9406,0.9205,0.8806,0.8806,0.9004,0.9099,0.8901,0.8506,0.8212,0.772,0.7329,0.7726,0.8024,0.7726,0.7726,0.8124,0.8219,0.8021,0.8021,0.8513,0.8616,0.9624,0.9624,0.96,0.96,0.962,0.9596,0.9596,0.9628,0.9624,0.9723,0.9821,0.9817,0.9912,0.9821,0.9916,1.0301,1.1175,1.1945,1.22,1.2229,1.2512,1.2655,1.2769,1.3268,1.3339,1.2188,1.2538,1.2639,1.2853,1.2978,1.3282,1.304,1.3573,1.3576,1.3515,1.3659,1.3483,1.3307,1.3392,1.3483,1.3483,1.3483,1.3568,1.3574,1.3568,1.3483,1.3483,1.3483,1.347,1.3476,1.3476,1.3264,1.3008,1.2813,1.279,1.279,1.279,1.279,1.2705,1.2705,1.2705,1.2717,1.2958,1.2994,1.2958,1.32,1.3435,1.358,1.3755,1.4008,1.4256,1.4202,1.4298,1.4202,1.4112,1.4027,1.3931,1.3732,1.3437,1.3147,1.2452,1.2058,1.1858,1.1658,1.1161,1.0863,1.0863,1.0765,1.0667,1.0769,1.097,1.1165,1.1272,1.0881,1.0681,1.0485,1.0186,0.9985,1.0181,1.028,1.0275,1.0079,0.9592,0.881,0.8517,0.8913,0.9011,0.8913,0.911,0.9608,0.9509,0.9011,0.9209,0.9702,0.9706,0.9624,0.9612,0.9466,0.9486,0.9592,0.9466,0.9583,0.9612,0.9702,1.0109,1.0863,1.0974,1.1336,1.1745,1.2047,1.2242,1.2431,1.2915,1.2929,1.2987,1.3337,1.3655,1.3827,1.4433,1.4724,1.483,1.4633,1.4603,1.4716,1.4819,1.4398,1.4448,1.4256,1.4077,1.4037,1.4004,1.3997,1.3913,1.3913,1.3913,1.3913,1.3913,1.3913,1.3913,1.3913,1.3828,1.3737,1.3828,1.3913,1.3646,1.3652,1.362,1.349,1.336,1.3215,1.3052,1.2966,1.2881,1.2826,1.2711,1.2705,1.2765,1.2994,1.3103,1.3115,1.3326,1.3538,1.3616,1.3785,1.4026,1.4268,1.4298,1.4298,1.4298,1.4298,1.4208,1.4208,1.4112,1.3913,1.363,1.334,1.3141,1.2937,1.2834,1.2635,1.2436,1.2436,1.2441,1.2441,1.2543,1.2748,1.2845,1.3044,1.2452,1.1858,1.1755,1.1463,1.1063,1.1161,1.1263,1.1356,1.1458,1.1068,1.0485,0.9895,0.9895,0.9998,1.0096,1.0194,1.0592,1.0395,1.01,1.0493,1.0984,1.0811,0.949,0.9575,0.9957,1.0066,1.0224,1.0728,1.0863,1.0782,1.0972,1.1149,1.1447,1.1616,1.1872,1.2326,1.2453,1.28,1.3476,1.4178,1.4195,1.4376,1.4647,1.4797,1.4686,1.5226,1.5391,1.5398,1.5411,1.5538,1.5765,1.5319,1.5104,1.4883,1.4509,1.4249,1.4122,1.4088,1.4088,1.4088,1.4088,1.4088,1.4088,1.4088,1.4088,1.4088,1.4088,1.3997,1.3997,1.3997,1.4004,1.3913,1.3913,1.3913,1.3913,1.3828,1.3652,1.3398,1.3234,1.3126,1.301,1.2899,1.2765,1.294,1.3169,1.3151,1.3145,1.3338,1.367,1.3767,1.3942,1.4153,1.4286,1.4298,1.4298,1.4298,1.4298,1.4298,1.4298,1.4298,1.4112,1.3919,1.3823,1.3817,1.3913,1.3811,1.3913,1.3919,1.3919,1.3919,1.3823,1.3829,1.3732,1.3732,1.3727,1.3431,1.2931,1.2737,1.2635,1.2339,1.2237,1.2339,1.2533,1.2732,1.2737,1.2452,1.196,1.117,1.1668,1.2058,1.1868,1.1673,1.177,1.1868,1.1965,1.2073,1.2001,0.9997,0.9962,1.0707,1.0986,1.108,1.1781,1.1976,1.1994,1.205,1.2128,1.2232,1.2232,1.2433,1.2834,1.2989,1.3456,1.4514,1.5249,1.5398,1.5358,1.5285,1.5425,1.5558,1.5471,1.5324,1.5398,1.5398,1.5478,1.5511,1.5351,1.5137,1.483,1.4563,1.4335,1.4128,1.4088,1.4088,1.4088,1.4088,1.4088,1.4088,1.4088,1.4088,1.4088,1.4088,1.4088,1.4088,1.4088,1.425,1.4334,1.4412,1.4503,1.458,1.4657,1.4398,1.4062,1.3606,1.3515,1.3417,1.3386,1.3293,1.3453,1.3483,1.3306,1.3191,1.347,1.3803,1.393,1.4129,1.4268,1.4292,1.4298,1.4298,1.4298,1.4298,1.4298,1.4298,1.4298,1.4298,1.4208,1.4298,1.4298,1.4202,1.4202,1.4106,1.4106,1.4112,1.4112,1.4112,1.4022,1.4022,1.4112,1.4112,1.4112,1.3817,1.3619,1.3613,1.3511,1.3414,1.3414,1.3709,1.4004,1.3817,1.3431,1.3232,1.264,1.3335,1.3539,1.3044,1.2851,1.3346,1.3443,1.3147,1.3077,1.3116,1.1791,1.1615,1.1784,1.1784,1.1763,1.186,1.1871,1.2016,1.214,1.2426,1.314,1.3272,1.3646,1.4269,1.4475,1.4689,1.4916,1.5053,1.517,1.5157,1.497,1.5003,1.509,1.5044,1.5197,1.5331,1.5378,1.5244,1.5117,1.5017,1.4877,1.4596,1.4349,1.4115,1.4102,1.4088,1.4088,1.4088,1.4088,1.4088,1.4166,1.4166,1.4166,1.425,1.425,1.4334,1.4412,1.4496,1.4664,1.5228,1.5228,1.5643,1.6206,1.637,1.6363,1.5876,1.5036,1.396,1.4025,1.4203,1.4326,1.4417,1.4244,1.3798,1.3748,1.3644,1.3909,1.3912,1.4147,1.4286,1.4298,1.4298,1.4298,1.4298,1.4298,1.4298,1.4298,1.4298,1.4298,1.4298,1.4298,1.4298,1.4298,1.4298,1.4298,1.4298,1.4298,1.4298,1.4304,1.4208,1.4214,1.4208,1.4298,1.4208,1.4208,1.4106,1.4106,1.4298,1.4298,1.4202,1.4298,1.4298,1.4298,1.401,1.3811,1.3619,1.3817,1.3823,1.3732,1.3732,1.3829,1.3829,1.3835,1.3881,1.3928,1.3093,1.1822,1.2445,1.2719,1.2796,1.3227,1.3417,1.333,1.356,1.3629,1.3767,1.3754,1.4187,1.4696,1.487,1.497,1.506,1.4943,1.4963,1.4943,1.4823,1.4903,1.5177,1.5197,1.5264,1.5248,1.5231,1.497,1.4743,1.4724,1.4616,1.4496,1.4242,1.4095,1.4088,1.4088,1.4088,1.4088,1.4173,1.4419,1.4748,1.4901,1.5061,1.5553,1.5553,1.5477,1.5477,1.556,1.5718,1.6124,1.6124,1.6296,1.6617,1.6698,1.6698,1.6656,1.6475,1.6118,1.598,1.592,1.5981,1.6116,1.5965,1.5736,1.512,1.4805,1.4381,1.3894,1.4141,1.437,1.4394,1.4298,1.4298,1.4298,1.4394,1.4298,1.4298,1.4298,1.4298,1.4298,1.4298,1.4298,1.4298,1.4298,1.4298,1.4298,1.4298,1.4298,1.4298,1.4304,1.4304,1.4304,1.4298,1.4298,1.4304,1.4202,1.4202,1.4298,1.4298,1.4298,1.4298,1.4298,1.4298,1.4298,1.4106,1.4106,1.4112,1.4112,1.4016,1.4016,1.4106,1.4112,1.4124,1.4159,1.4279,1.3926,1.2366,1.338,1.3754,1.369,1.4495,1.4661,1.442,1.4535,1.4389,1.4115,1.4032,1.4226,1.4561,1.4778,1.4845,1.4798,1.4825,1.4743,1.4743,1.477,1.4816,1.4993,1.5197,1.5363,1.5205,1.5871,1.5665,1.5247,1.5,1.4991,1.4402,1.4195,1.4095,1.4088,1.4173,1.4173,1.458,1.4824,1.5235,1.5643,1.5718,1.6041,1.6453,1.6698,1.6698,1.6698,1.6617,1.6617,1.7017,1.7025,1.7188,1.7513,1.7719,1.7686,1.7828,1.8077,1.8395,1.808,1.7818,1.7822,1.7792,1.7709,1.7011,1.6392,1.6169,1.5971,1.5212,1.5188,1.5216,1.5051,1.4956,1.4771,1.4675,1.4484,1.4394,1.4394,1.4484,1.449,1.4298,1.4298,1.4298,1.4298,1.4298,1.4298,1.4298,1.4298,1.4298,1.4298,1.4298,1.4298,1.4298,1.4298,1.4298,1.4298,1.4298,1.4298,1.4298,1.4298,1.4298,1.4298,1.4298,1.4298,1.4298,1.4328,1.4298,1.4208,1.4298,1.4298,1.4298,1.4202,1.4298,1.4316,1.4377,1.4558,1.4423,1.4138,1.4787,1.4857,1.453,1.4685,1.4601,1.4363,1.4384,1.4191,1.3957,1.3973,1.4559,1.4748,1.486,1.4803,1.4572,1.4318,1.4555,1.4464,1.4168,1.4624,1.5033,1.5526,1.5821,1.595,1.6406,1.6667,1.6683,1.6171,1.5405,1.4348,1.4608,1.4257,1.4334,1.458,1.4824,1.5311,1.5801,1.6288,1.6535,1.6617,1.6698,1.6772,1.6772,1.669,1.6698,1.6944,1.7269,1.7917,1.7917,1.8167,1.8603,1.8878,1.8869,1.9011,1.9623,1.9995,1.9782,1.9259,1.8819,1.8637,1.8411,1.8229,1.7606,1.7379,1.7212,1.7065,1.6692,1.672,1.664,1.6358,1.5798,1.5609,1.533,1.5146,1.5051,1.486,1.4765,1.449,1.449,1.486,1.4675,1.4771,1.4394,1.4394,1.4298,1.4298,1.4298,1.4298,1.4298,1.4298,1.4298,1.4298,1.4298,1.4298,1.4298,1.4298,1.4298,1.4298,1.4298,1.4304,1.4395,1.4413,1.4455,1.4377,1.4328,1.4389,1.4407,1.4334,1.4322,1.4419,1.4558,1.4684,1.4847,1.5785,1.6238,1.6131,1.5678,1.4999,1.4915,1.4821,1.4519,1.4728,1.4914,1.5072,1.5708,1.6157,1.6175,1.6281,1.6198,1.6198,1.6116,1.6041,1.6041,1.6049,1.6073,1.6392,1.6423,1.68,1.6692,1.7022,1.698,1.6775,1.6992,1.6476,1.5801,1.5718,1.5718,1.5718,1.556,1.5899,1.6147,1.6624,1.6944,1.7432,1.7513,1.7755,1.8318,1.8318,1.8318,1.8318,1.8318,1.8487,1.8647,1.8727,1.8966,1.9231,1.9512,1.9613,1.9696,2.0438,2.0741,2.0961,2.0563,2.061,2.0529,2.039,1.992,1.9069,1.892,1.843,1.818,1.794,1.794,1.7475,1.7196,1.6915,1.6727,1.6358,1.6075,1.5893,1.5798,1.5792,1.5704,1.5798,1.6075,1.5704,1.533,1.4867,1.449,1.4394,1.4298,1.4298,1.4298,1.4298,1.4298,1.4298,1.4298,1.4298,1.4298,1.4298,1.4298,1.4304,1.4328,1.4364,1.4527,1.46,1.46,1.4636,1.4654,1.4636,1.4576,1.4491,1.4358,1.4461,1.4648,1.4805,1.4944,1.5113,1.6627,1.7166,1.7045,1.653,1.5974,1.565,1.5546,1.5556,1.5789,1.5986,1.6451,1.7097,1.7413,1.7471,1.7415,1.7334,1.7253,1.718,1.7261,1.718,1.7131,1.7335,1.7474,1.7614,1.7664,1.7631,1.7863,1.7966,1.7878,1.7683,1.7747,1.7755,1.7521,1.735,1.6698,1.7033,1.7196,1.7367,1.7506,1.7784,1.8467,1.846,1.8567,1.9134,1.9134,1.9134,1.9054,1.9045,1.9054,1.9134,1.9213,1.9213,1.9347,1.9448,1.9641,1.9989,2.0393,2.0814,2.1126,2.1465,2.1624,2.1445,2.1454,2.106,2.0718,2.0357,1.9869,1.9413,1.9055,1.8772,1.858,1.8495,1.8218,1.8033,1.7289,1.6915,1.7016,1.6922,1.7016,1.7109,1.7102,1.6821,1.664,1.6177,1.533,1.486,1.4394,1.4298,1.4298,1.4298,1.4298,1.4298,1.4298,1.4298,1.4298,1.4394,1.449,1.4298,1.4316,1.4395,1.4473,1.4752,1.491,1.4847,1.4896,1.4968,1.4902,1.4862,1.4558,1.434,1.4533,1.4757,1.4859,1.4998,1.5246,1.6527,1.6927,1.7338,1.7618,1.7827,1.7025,1.6903,1.7145,1.7318,1.7414,1.7431,1.7509,1.7785,1.8017,1.8149,1.8141,1.806,1.7819,1.7666,1.7827,1.798,1.761,1.7797,1.8236,1.8691,1.8763,1.9038,1.9304,1.9539,1.9292,1.9371,1.9371,1.9054,1.8496,1.7017,1.7585,1.8374,1.9039,1.9039,1.9245,1.9435,1.9245,1.924,1.9213,1.9292,1.9292,1.9292,1.9292,1.9292,1.9292,1.9292,1.9329,1.9421,1.9632,1.9842,2.009,2.0668,2.1007,2.1154,2.153,2.1695,2.1731,2.1731,2.1553,2.1553,2.1374,2.1195,2.0546,2.0628,2.0718,2.0439,2.0076,1.9621,1.9155,1.8495,1.8311,1.8311,1.8403,1.8495,1.8588,1.794,1.7382,1.7296,1.7016,1.6075,1.533,1.458,1.4394,1.4675,1.486,1.5051,1.5146,1.5235,1.5146,1.5235,1.4771,1.458,1.4394,1.4756,1.5261,1.5414,1.571,1.5657,1.5368,1.5783,1.6387,1.5702,1.5002,1.5312,1.5654,1.4845,1.4817,1.4914,1.5101,1.5403,1.8035,1.8892,1.8761,1.9085,1.9441,1.8149,1.7536,1.7631,1.8062,1.8294,1.8443,1.9012,1.9519,1.9659,1.9599,1.952,1.9511,1.959,1.9511,1.9432,1.9353,1.9362,1.945,1.9371,1.9608,1.9529,1.9863,1.9951,1.9784,1.9942,1.9942,1.9863,1.9784,1.9301,1.8736,1.8843,1.9192,1.9515,1.9479,1.9485,1.9815,1.9549,1.9292,1.9292,1.9292,1.9292,1.9292,1.9292,1.9292,1.9292,1.9292,1.9412,1.954,1.9769,1.9934,2.0356,2.0934,2.0989,2.1328,2.1695,2.1722,2.1731,2.1731,2.1731,2.1642,2.1642,2.1562,2.1562,2.1463,2.1365,2.1105,2.1015,2.0645,2.0538,2.0076,2.0068,2.0076,2.0068,2.0068,2.0076,1.9704,1.8872,1.8503,1.8295,1.7557,1.7059,1.6595,1.6096,1.6271,1.6358,1.6546,1.6546,1.6546,1.6452,1.6264,1.5798,1.5925,1.6121,1.6505,1.7022,1.7107,1.6819,1.7102,1.7164,1.751,1.7716,1.715,1.6714,1.7062,1.7071,1.6236,1.5702,1.5825,1.5799,1.5686,1.8991,1.9837,1.944,1.9841,2.0294,1.9045,1.8426,1.8407,1.8907,1.908,1.9042,1.9898,2.0322,2.0352,2.0488,2.0576,2.0576,2.0566,2.0566,2.0576,2.0566,2.0333,2.0333,2.042,2.0255,2.0177,2.0177,2.0186,2.0177,2.0177,2.0098,2.0108,2.0029,1.9784,1.9539,1.9515,1.9866,2.0153,2.0142,1.9845,2.0049,1.9928,1.9469,1.9469,1.939,1.9381,1.9292,1.9292,1.9292,1.9292,1.9356,1.9512,1.9696,1.9842,2.0072,2.0677,2.1126,2.1227,2.1594,2.1722,2.1731,2.1731,2.1731,2.1731,2.1731,2.1642,2.1642,2.1642,2.1731,2.1651,2.1482,2.1482,2.1383,2.1186,2.1096,2.1006,2.1087,2.0988,2.0817,2.0916,2.0817,2.0175,1.9737,1.9477,1.9079,1.8846,1.8706,1.8218,1.7729,1.7714,1.7714,1.7714,1.7512,1.7225,1.7124,1.6915,1.7188,1.7846,1.8163,1.8357,1.8291,1.8017,1.8513,1.8993,1.8774,1.8671,1.8571,1.8569,1.8445,1.8103,1.7431,1.7061,1.6964,1.6864,1.6717,1.9185,1.9805,1.9492,1.9909,2.0372,1.9816,1.9608,1.9856,1.9866,1.9662,1.9385,1.9788,2.0098,2.0107,2.04,2.0557,2.0576,2.0576,2.0576,2.0576,2.0576,2.0566,2.0566,2.0576,2.0489,2.0566,2.0498,2.0411,2.0566,2.0489,2.042,2.0342,2.0264,2.0177,2.002,2.0046,2.05,2.0702,2.0339,2.0282,2.0583,2.0269,1.9846,1.9711,1.9613,1.9478,1.9381,1.9301,1.9292,1.9311,1.9347,1.9613,1.9815,1.9943,2.0448,2.0952,2.1429,2.163,2.1713,2.1731,2.1731,2.1731,2.1731,2.1731,2.1731,2.1731,2.1731,2.1731,2.1731,2.1731,2.1651,2.1651,2.1651,2.1553,2.1472,2.1463,2.1454,2.1365,2.1284,2.1195,2.1105,2.0835,2.0698,2.052,2.0281,2.0348,2.0062,1.9764,1.9231,1.8575,1.8575,1.8559,1.8256,1.7923,1.7815,1.8202,1.8527,1.9129,1.892,1.9043,1.9033,1.9295,1.9844,2.0076,1.9671,1.953,1.9968,1.9767,1.9396,1.907,1.9164,1.852,1.8365,1.8331,1.8408,2.0254,2.0714,2.0992,2.1043,2.0947,2.1014,2.0675,1.998,2.0215,2.0127,1.9756,2.0185,2.0426,2.04,2.0518,2.0634,2.0644,2.0576,2.0576,2.0644,2.0867,2.0722,2.0644,2.0712,2.0644,2.0644,2.0722,2.0799,2.0722,2.0644,2.0722,2.0489,2.0712,2.0557,2.0557,2.0411,2.0825,2.0857,2.0385,2.0529,2.0799,2.0339,2.0207,2.0146,1.9865,1.972,1.9673,1.9613,1.9534,1.9497,1.9694,1.9943,2.0301,2.0365,2.064,2.1053,2.1447,2.1731,2.1731,2.1731,2.1731,2.1731,2.1731,2.1731,2.1731,2.1731,2.1731,2.1731,2.1731,2.1731,2.1731,2.1731,2.1731,2.1651,2.1562,2.1651,2.1642,2.1642,2.1463,2.1472,2.1374,2.1347,2.1302,2.1405,2.1229,2.1406,2.145,2.119,2.0746,2.0052,1.9723,1.9715,1.9467,1.9225,1.9551,1.9954,2.0143,2.0305,2.0126,2.0273,2.0982,2.1309,2.15,2.1347,2.1073,2.1269,2.1626,2.1325,2.0732,2.1325,2.1435,2.0421,1.9736,1.9804,1.9791,2.1155,2.1533,2.1882,2.1935,2.1914,2.2158,2.1795,2.1179,2.0949,2.0577,2.0246,2.0971,2.1261,2.1261,2.1197,2.1318,2.1614,2.1308,2.1308,2.169,2.1461,2.1614,2.1538,2.1461,2.169,2.1538,2.1538,2.1756,2.1461,2.1538,2.1603,2.1603,2.1538,2.1538,2.1614,2.17,2.166,2.1328,2.0958,2.0796,2.0745,2.0649,2.056,2.0684,2.0353,2.0296,2.0445,2.0404,2.062,2.079,2.1191,2.1375,2.1455,2.122,2.1034,2.142,2.1566,2.198,2.2157,2.1811,2.1989,2.2078,2.1998,2.1731,2.1731,2.1731,2.1731,2.1731,2.1731,2.1731,2.1731,2.1731,2.1731,2.1731,2.1731,2.1731,2.1731,2.1731,2.1651,2.1651,2.1607,2.1581,2.168,2.1904,2.2146,2.2125,2.2317,2.2339,2.1887,2.1299,2.1138,2.1122,2.094,2.0724,2.1103,2.1151,2.1164,2.1259,2.1621,2.1948,2.2789,2.2828,2.2492,2.2509,2.2636,2.2619,2.2492,2.2417,2.2181,2.2653,2.2653,2.1895,2.1135,2.1159,2.1067,2.1903,2.2243,2.2358,2.2666,2.3051,2.3095,2.301,2.2977,2.1945,2.1146,2.1092,2.1786,2.2179,2.2082,2.1881,2.2136,2.2328,2.2124,2.2134,2.2957,2.266,2.2585,2.266,2.2957,2.2585,2.2809,2.2883,2.251,2.2809,2.2734,2.2574,2.3021,2.2809,2.266,2.2585,2.2585,2.2563,2.2348,2.1727,2.1348,2.1411,2.1233,2.0958,2.1271,2.1401,2.1471,2.1949,2.241,2.2824,2.3224,2.343,2.3329,2.3032,2.2505,2.228,2.218,2.2385,2.2658,2.2931,2.2687,2.2765,2.2677,2.2422,2.2422,2.2422,2.1909,2.1731,2.1731,2.1731,2.1731,2.1731,2.1731,2.1731,2.1731,2.1731,2.1731,2.1731,2.1731,2.1731,2.1688,2.1825,2.1826,2.2044,2.2269,2.2695,2.2786,2.2967,2.319,2.2912,2.2353,2.2232,2.2375,2.2084,2.187,2.1786,2.191,2.1843,2.209,2.2522,2.2743,2.3032,2.3238,2.3356,2.3247,2.3046,2.3046,2.2937,2.2955,2.2854,2.2854,2.2863,2.278,2.2586,2.2452,2.2214,2.2793,2.2846,2.3294,2.3589,2.3795,2.3829,2.3829,2.3818,2.3559,2.2966,2.2502,2.239,2.2517,2.2864,2.2469,2.2589,2.2914,2.2947,2.2872,2.3095,2.318,2.3327,2.3106,2.3327,2.318,2.3032,2.3032,2.318,2.3254,2.318,2.3106,2.3032,2.318,2.3254,2.3254,2.3254,2.3254,2.3254,2.2916,2.2562,2.2849,2.3107,2.3161,2.3324,2.3393,2.3292,2.3594,2.3658,2.369,2.3784,2.4089,2.4373,2.4514,2.4299,2.418,2.4114,2.3856,2.3943,2.3953,2.3887,2.3887,2.3973,2.3897,2.3887,2.3464,2.2344,2.182,2.182,2.182,2.182,2.182,2.182,2.182,2.182,2.1741,2.1741,2.1741,2.175,2.175,2.1887,2.2043,2.2217,2.2437,2.2777,2.314,2.3459,2.3813,2.3914,2.3678,2.3308,2.3117,2.3084,2.2961,2.2721,2.2631,2.2542,2.2447,2.2599,2.2806,2.3108,2.3393,2.3529,2.3555,2.3447,2.3347,2.3347,2.3356,2.3264,2.3264,2.3226,2.3256,2.3361,2.3484,2.3469,2.3255,2.3452,2.3652,2.4417,2.4755,2.4755,2.4791,2.4779,2.4743,2.4543,2.4294,2.4169,2.3796,2.3712,2.3891,2.339,2.3311,2.3711,2.361,2.3829,2.3986,2.3913,2.4143,2.4059,2.3913,2.4131,2.4059,2.4059,2.4131,2.3913,2.4059,2.4131,2.3986,2.3986,2.3925,2.3998,2.3986,2.4009,2.4059,2.4009,2.4118,2.4168,2.3977,2.3919,2.4126,2.441,2.4555,2.517,2.5225,2.5508,2.5451,2.5639,2.5661,2.5626,2.5189,2.4957,2.4872,2.4872,2.5052,2.5147,2.5073,2.4999,2.5084,2.4669,2.4402,2.4241,2.329,2.329,2.329,2.329,2.329,2.3028,2.3028,2.2677,2.2501,2.2026,2.1796,2.1832,2.1869,2.1951,2.2107,2.2208,2.2245,2.2474,2.2731,2.3067,2.3405,2.3831,2.407,2.3996,2.3978,2.3849,2.3721,2.3444,2.3363,2.3199,2.303,2.3021,2.3105,2.3206,2.3511,2.3836,2.3746,2.3755,2.3655,2.3646,2.3546,2.3555,2.3636,2.3687,2.36,2.3861,2.4012,2.4257,2.4417,2.4297,2.3816,2.4464,2.5455,2.5828,2.5676,2.5606,2.5557,2.5423,2.5034,2.501,2.5114,2.4999,2.5189,2.4897,2.4448,2.4791,2.4767,2.4385,2.4696,2.4945,2.5087,2.4945,2.4945,2.517,2.5016,2.5016,2.5016,2.5016,2.5016,2.5016,2.5016,2.5241,2.5324,2.5265,2.5372,2.5337,2.5266,2.5266,2.529,2.5385,2.4919,2.4242,2.4506,2.467,2.497,2.5532,2.6462,2.7024,2.7505,2.7413,2.7174,2.7094,2.686,2.6389,2.6047,2.588,2.5964,2.6224,2.6329,2.5997,2.5997,2.5924,2.5168,2.4914,2.4914,2.484,2.4754,2.4669,2.4669,2.4317,2.4145,2.3887,2.3541,2.3202,2.2656,2.2279,2.2344,2.2429,2.2597,2.2765,2.2786,2.2805,2.2908,2.3065,2.3171,2.3483,2.3675,2.3868,2.4015,2.4051,2.4015,2.3886,2.3776,2.3587,2.3657,2.3542,2.3435,2.3624,2.3708,2.4051,2.4161,2.4053,2.4053,2.4053,2.4053,2.3863,2.389,2.4016,2.4077,2.4128,2.4427,2.4702,2.4868,2.5047,2.5192,2.4129,2.457,2.5661,2.605,2.5898,2.5828,2.5583,2.5215,2.5093,2.4872,2.4585,2.4511,2.4499,2.4638,2.4138,2.4222,2.4716,2.472,2.5063,2.5241,2.5312,2.5312,2.5312,2.5312,2.5312,2.5312,2.5312,2.5312,2.5312,2.5312,2.5312,2.5312,2.5312,2.5504,2.5925,2.5937,2.5913,2.6057,2.631,2.6406,2.6226,2.5953,2.6261,2.6706,2.7274,2.7696,2.8152,2.8199,2.8279,2.8267,2.8176,2.8075,2.7914,2.7661,2.7406,2.7151,2.7151,2.7244,2.7255,2.7092,2.7185,2.701,2.6517,2.6528,2.6445,2.6373,2.6279,2.6113,2.5768,2.4925,2.4659,2.4488,2.4231,2.4166,2.3774,2.3767,2.3847,2.4125,2.4325,2.4395,2.4447,2.4443,2.4404,2.4402,2.4122,2.4337,2.4319,2.4487,2.4651,2.451,2.435,2.4328,2.4287,2.4005,2.4042,2.3969,2.396,2.4033,2.4079,2.418,2.4216,2.4161,2.4161,2.428,2.4235,2.4099,2.4254,2.429,2.4508,2.4672,2.4936,2.5277,2.5596,2.5727,2.581]},{"header":{"parameterUnit":"m.s-1","parameterCategory":1,"la1":31.0,"la2":29.5877,"lo1":-88.7671,"lo2":-86.6584,"dy":0.0162,"dx":0.0185,"nx":115,"ny":88,"refTime":"2024-04-10T12:00:00:Z","depth":0,"parameterNumber":3,"parameterNumberName":"V-component_of_WINDS"},"data":[0.0,0.0,0.0,0.0,0.0,0.0,0.0,0.0,0.0,0.0,0.0,0.0,0.0,0.0,0.0,0.0,0.0,0.0,0.0,0.0,0.0,0.0,0.0,0.0,0.0,0.0,0.0,0.0,0.0,0.0,0.0,0.0,0.0,0.0,0.0,0.0,0.0,0.0,0.0,0.0,0.0,0.0,0.0,0.0,0.0,0.0,0.0,0.0,0.0,0.0,0.0,0.0,0.0,0.0,0.0,0.0,0.0,0.0,0.0,0.0,0.0,0.0,0.0,0.0,0.0,0.0,0.0,0.0,0.0,0.0,0.0,0.0,0.0,0.0,0.0,0.0,0.0,0.0,0.0,0.0,0.0,0.0,0.0,0.0,0.0,0.0,0.0,0.0,0.0,0.0,0.0,0.0,0.0,0.0,0.0,0.0,0.0,0.0,0.0,0.0,0.0,0.0,0.0,0.0,0.0,0.0,0.0,0.0,0.0,0.0,0.0,0.0,0.0,0.0,0.0,0.0,0.0,0.0,0.0,0.0,0.0,0.0,0.0,0.0,0.0,0.0,0.0,0.0,0.0,0.0,0.0,0.0,0.0,0.0,0.0,0.0,0.0,0.0,0.0,0.0,0.0,0.0,0.0,0.0,0.0,0.0,0.0,0.0,0.0,0.0,0.0,0.0,0.0,0.0,0.0,0.0,0.0,0.0,0.0,0.0,0.0,0.0,0.0,0.0,0.0,0.0,0.0,0.0,0.0,0.0,0.0,0.0,0.0,0.0,0.0,0.0,0.0,0.0,0.0,0.0,0.0,0.0,0.0,0.0,0.0,0.0,0.0,0.0,0.0,0.0,0.0,0.0,0.0,0.0,0.0,0.0,0.0,0.0,0.0,0.0,0.0,0.0,0.0,0.0,0.0,0.0,0.0,0.0,0.0,0.0,0.0,0.0,0.0,0.0,0.0,0.0,0.0,0.0,0.0,0.0,0.0,0.0,0.0,0.0,0.0,0.0,0.0,0.0,0.0,0.0,0.0,0.0,0.0,0.0,0.0,0.0,0.0,0.0,0.0,0.0,0.0,0.0,0.0,0.0,0.0,0.0,0.0,0.0,0.0,0.0,0.0,0.0,0.0,0.0,0.0,0.0,0.0,0.0,0.0,0.0,0.0,0.0,0.0,0.0,0.0,0.0,0.0,0.0,0.0,0.0,0.0,0.0,0.0,0.0,0.0,0.0,0.0,0.0,0.0,0.0,0.0,0.0,0.0,0.0,0.0,0.0,0.0,0.0,0.0,0.0,0.0,0.0,0.0,0.0,0.0,0.0,0.0,0.0,0.0,0.0,0.0,0.0,0.0,0.0,0.0,0.0,0.0,0.0,0.0,0.0,0.0,0.0,0.0,0.0,0.0,0.0,0.0,0.0,0.0,0.0,0.0,0.0,0.0,0.0,0.0,0.0,0.0,0.0,0.0,0.0,0.0,0.0,0.0,0.0,0.0,0.0,0.0,0.0,0.0,0.0,0.0,0.0,0.0,0.0,0.0,0.0,0.0,0.0,0.0,0.0,0.0,0.0,0.0,0.0,0.0,0.0,0.0,0.0,0.0,0.0,0.0,0.0,0.0,0.0,0.0,0.0,0.0,0.0,0.0,0.0,0.0,0.0,0.0,0.0,0.0,0.0,0.0,0.0,0.0,0.0,0.0,0.0,0.0,0.0,0.0,0.0,0.0,0.0,0.0,0.0,0.0,0.0,0.0,0.0,0.0,0.0,0.0,0.0,0.0,0.0,0.0,0.0,0.0,0.0,0.0,0.0,0.0,0.0,0.0,0.0,0.0,0.0,0.0,0.0,0.0,0.0,0.0,0.0,0.0,0.0,0.0,0.0,0.0,0.0,0.0,0.0,0.0,0.0,0.0,0.0,0.0,0.0,0.0,0.0,0.0,0.0,0.0,0.0,0.0,0.0,0.0,0.0,0.0,0.0,0.0,0.0,0.0,0.0,0.0,0.0,0.0,0.0,0.0,0.0,0.0,0.0,0.0,0.0,0.0,0.0,0.0,0.0,0.0,0.0,0.0,0.0,0.0,0.0,0.0,0.0,0.0,0.0,0.0,0.0,0.0,0.0,0.0,0.0,0.0,0.0,0.0,0.0,0.0,0.0,0.0,0.0,0.0,0.0,0.0,0.0,0.0,0.0,0.0,0.0,0.0,0.0,0.0,0.0,0.0,0.0,0.0,0.0,0.0,0.0,0.0,0.0,0.0,0.0,0.0,0.0,0.0,0.0,0.0,0.0,0.0,0.0,0.0,0.0,0.0,0.0,0.0,0.0,0.0,0.0,0.0,0.0,0.0,0.0,0.0,0.0,0.0,0.0,0.0,0.0,0.0,0.0,0.0,0.0,0.0,0.0,0.0,0.0,0.0,0.0,0.0,0.0,0.0,0.0,0.0,0.0,0.0,0.0,0.0,0.0,0.0,0.0,0.0,0.0,0.0,0.0,0.0,0.0,0.0,0.0,0.0,0.0,0.0,0.0,0.0,0.0,0.0,0.0,0.0,0.0,0.0,0.0,0.0,0.0,0.0,0.0,0.0,0.0,0.0,0.0,0.0,0.0,0.0,0.0,0.0,0.0,0.0,0.0,0.0,0.0,0.0,0.0,0.0,0.0,0.0,0.0,0.0,0.0,0.0,0.0,0.0,0.0,0.0,0.0,0.0,0.0,0.0,0.0,0.0,0.0,0.0,0.0,0.0,0.0,0.0,0.0,0.0,0.0,0.0,0.0,0.0,0.0,0.0,0.0,0.0,0.0,0.0,0.0,0.0,0.0,0.0,0.0,0.0,0.0,0.0,0.0,0.0,0.0,0.0,0.0,0.0,0.0,0.0,0.0,0.0,0.0,0.0,0.0,0.0,0.0,0.0,0.0,0.0,0.0,0.0,0.0,0.0,0.0,0.0,0.0,0.0,0.0,0.0,0.0,0.0,0.0,0.0,0.0,0.0,0.0,0.0,0.0,0.0,0.0,0.0,0.0,0.0,0.0,0.0,0.0,0.0,0.0,0.0,0.0,0.0,0.0,0.0,0.0,0.0,0.0,0.0,0.0,0.0,0.0,0.0,0.0,0.0,0.0,0.0,0.0,0.0,0.0,0.0,0.0,0.0,0.0,0.0,0.0,0.0,0.0,0.0,0.0,0.0,0.0,0.0,0.0,0.0,0.0,0.0,0.0,0.0,0.0,0.0,0.0,0.0,0.0,0.0,0.0,0.0,0.0,0.0,0.0,0.0,0.0,0.0,0.0,0.0,0.0,0.0,0.0,0.0,0.0,0.0,0.0,0.0,0.0,0.0,0.0,0.0,0.0,0.0,0.0,0.0,0.0,0.0,0.0,0.0,0.0,0.0,0.0,0.0,0.0,0.0,0.0,0.0,0.0,0.0,0.0,0.0,0.0,0.0,0.0,0.0,0.0,0.0,0.0,0.0,0.0,0.0,0.0,0.0,0.0,0.0,0.0,0.0,0.0,0.0,0.0,0.0,0.0,0.0,0.0,0.0,0.0,0.0,0.0,0.0,0.0,0.0,0.0,0.0,0.0,0.0,0.0,0.0,0.0,0.0,0.0,0.0,0.0,0.0,0.0,0.0,0.0,0.0,0.0,0.0,0.0,0.0,0.0,0.0,0.0,0.0,0.0,0.0,0.0,0.0,0.0,0.0,0.0,0.0,0.0,0.0,0.0,0.0,0.0,0.0,0.0,0.0,0.0,0.0,0.0,0.0,0.0,0.0,0.0,0.0,0.0,0.0,0.0,0.0,0.0,0.0,0.0,0.0,0.0,0.0,0.0,0.0,0.0,0.0,0.0,0.0,0.0,0.0,0.0,0.0,0.0,0.0,0.0,0.0,0.0,0.0,0.0,0.0,0.0,0.0,0.0,0.0,0.0,0.0,0.0,0.0,0.0,0.0,0.0,0.0,0.0,0.0,0.0,0.0,0.0,0.0,0.0,0.0,0.0,0.0,0.0,0.0,0.0,0.0,0.0,0.0,0.0,0.0,0.0,0.0,0.0,0.0,0.0,0.0,0.0,0.0,0.0,0.0,0.0,0.0,0.0,0.0,0.0,0.0,0.0,0.0,0.0,0.0,0.0,0.0,0.0,0.0,0.0,0.0,0.0,0.0,0.0,0.0,0.0,0.0,0.0,0.0,0.0,0.0,0.0,0.0,0.0,0.0,0.0,0.0,0.0,0.0,0.0,0.0,0.0,0.0,0.0,0.0,0.0,0.0,0.0,0.0,0.0,0.0,0.0,-2.851,0.0,0.0,0.0,0.0,0.0,0.0,0.0,0.0,0.0,0.0,0.0,0.0,0.0,0.0,0.0,0.0,0.0,0.0,0.0,0.0,0.0,0.0,0.0,0.0,0.0,0.0,0.0,0.0,0.0,0.0,0.0,0.0,0.0,0.0,0.0,0.0,0.0,0.0,0.0,0.0,0.0,0.0,0.0,0.0,0.0,0.0,0.0,0.0,0.0,0.0,0.0,0.0,0.0,0.0,0.0,0.0,0.0,0.0,0.0,0.0,0.0,0.0,0.0,0.0,0.0,0.0,0.0,0.0,0.0,0.0,0.0,0.0,0.0,0.0,0.0,0.0,0.0,0.0,0.0,0.0,0.0,0.0,0.0,0.0,0.0,0.0,0.0,0.0,0.0,0.0,0.0,0.0,0.0,0.0,0.0,0.0,0.0,0.0,0.0,0.0,0.0,0.0,0.0,0.0,0.0,0.0,0.0,0.0,0.0,0.0,-3.141,-2.9907,-3.2057,-3.1761,-2.8698,0.0,0.0,0.0,0.0,0.0,0.0,0.0,0.0,0.0,0.0,0.0,0.0,0.0,0.0,0.0,0.0,0.0,0.0,0.0,0.0,0.0,0.0,0.0,0.0,0.0,0.0,0.0,0.0,0.0,0.0,0.0,0.0,0.0,0.0,0.0,0.0,0.0,0.0,0.0,0.0,0.0,0.0,0.0,0.0,0.0,0.0,0.0,0.0,0.0,0.0,0.0,0.0,0.0,0.0,0.0,0.0,0.0,0.0,0.0,0.0,0.0,0.0,0.0,0.0,0.0,0.0,0.0,0.0,0.0,0.0,0.0,0.0,0.0,0.0,0.0,0.0,0.0,0.0,0.0,0.0,0.0,0.0,0.0,0.0,0.0,0.0,0.0,0.0,0.0,0.0,0.0,0.0,0.0,0.0,0.0,0.0,0.0,0.0,0.0,0.0,0.0,0.0,0.0,0.0,0.0,0.0,0.0,0.0,0.0,0.0,0.0,0.0,-3.3198,-3.2952,-2.9961,0.0,0.0,0.0,0.0,0.0,0.0,0.0,0.0,0.0,0.0,0.0,0.0,0.0,0.0,0.0,0.0,0.0,0.0,0.0,0.0,0.0,0.0,0.0,0.0,0.0,0.0,0.0,0.0,0.0,0.0,0.0,0.0,0.0,0.0,0.0,0.0,0.0,0.0,0.0,0.0,0.0,0.0,0.0,0.0,0.0,0.0,0.0,0.0,0.0,0.0,0.0,0.0,0.0,0.0,0.0,0.0,0.0,0.0,0.0,0.0,0.0,0.0,0.0,0.0,0.0,0.0,0.0,0.0,0.0,0.0,0.0,0.0,0.0,0.0,0.0,0.0,0.0,0.0,0.0,0.0,0.0,0.0,0.0,0.0,0.0,0.0,0.0,0.0,0.0,0.0,0.0,0.0,0.0,0.0,0.0,0.0,0.0,0.0,0.0,0.0,0.0,0.0,0.0,0.0,0.0,0.0,0.0,0.0,0.0,0.0,-3.172,-3.5196,-3.4879,0.0,-3.2724,0.0,0.0,0.0,0.0,0.0,0.0,0.0,0.0,0.0,0.0,0.0,0.0,0.0,0.0,0.0,0.0,0.0,0.0,0.0,0.0,0.0,0.0,0.0,0.0,0.0,0.0,0.0,0.0,0.0,0.0,0.0,0.0,0.0,0.0,0.0,0.0,0.0,0.0,0.0,0.0,0.0,0.0,0.0,0.0,0.0,0.0,0.0,0.0,0.0,0.0,0.0,0.0,0.0,0.0,0.0,0.0,0.0,0.0,0.0,0.0,0.0,0.0,0.0,0.0,0.0,0.0,0.0,0.0,0.0,0.0,0.0,0.0,0.0,0.0,0.0,0.0,0.0,0.0,0.0,0.0,0.0,0.0,0.0,0.0,0.0,0.0,0.0,0.0,0.0,0.0,0.0,0.0,0.0,0.0,0.0,0.0,0.0,0.0,0.0,0.0,0.0,0.0,0.0,0.0,0.0,0.0,0.0,0.0,0.0,0.0,-3.182,-3.4634,-3.4113,-3.3131,0.0,0.0,0.0,0.0,0.0,0.0,0.0,0.0,0.0,0.0,0.0,0.0,0.0,0.0,0.0,0.0,0.0,0.0,0.0,0.0,0.0,0.0,0.0,0.0,0.0,0.0,0.0,0.0,0.0,0.0,0.0,0.0,0.0,0.0,0.0,0.0,0.0,0.0,0.0,0.0,0.0,0.0,0.0,0.0,0.0,0.0,0.0,0.0,0.0,0.0,0.0,0.0,0.0,0.0,0.0,0.0,0.0,0.0,0.0,0.0,0.0,0.0,0.0,0.0,0.0,0.0,0.0,0.0,0.0,0.0,0.0,0.0,0.0,0.0,0.0,0.0,0.0,0.0,0.0,0.0,0.0,0.0,0.0,0.0,0.0,0.0,0.0,0.0,0.0,0.0,0.0,0.0,0.0,0.0,0.0,0.0,0.0,0.0,0.0,0.0,0.0,0.0,0.0,0.0,0.0,0.0,0.0,0.0,0.0,0.0,-3.1913,-3.2861,-3.5004,-3.4107,-3.2807,-3.1368,0.0,0.0,0.0,0.0,0.0,0.0,0.0,0.0,0.0,0.0,0.0,0.0,0.0,0.0,0.0,0.0,0.0,0.0,0.0,0.0,0.0,0.0,0.0,0.0,0.0,0.0,0.0,0.0,0.0,0.0,0.0,0.0,0.0,0.0,0.0,0.0,0.0,0.0,0.0,0.0,0.0,0.0,0.0,0.0,0.0,0.0,0.0,0.0,0.0,0.0,0.0,0.0,0.0,0.0,0.0,0.0,0.0,0.0,0.0,0.0,0.0,0.0,0.0,0.0,0.0,0.0,0.0,0.0,0.0,0.0,0.0,0.0,0.0,0.0,0.0,0.0,0.0,0.0,0.0,0.0,0.0,0.0,0.0,0.0,0.0,0.0,0.0,0.0,0.0,0.0,0.0,0.0,0.0,0.0,0.0,0.0,0.0,0.0,0.0,0.0,0.0,0.0,0.0,0.0,0.0,0.0,0.0,0.0,-3.7918,-3.5251,-3.5314,-3.8495,-3.5894,-3.4031,0.0,0.0,0.0,0.0,0.0,0.0,0.0,0.0,0.0,0.0,0.0,0.0,0.0,0.0,0.0,0.0,0.0,0.0,0.0,0.0,0.0,0.0,0.0,0.0,0.0,0.0,0.0,0.0,0.0,0.0,0.0,0.0,0.0,0.0,0.0,0.0,0.0,0.0,0.0,0.0,0.0,0.0,0.0,0.0,0.0,0.0,0.0,0.0,0.0,0.0,0.0,0.0,0.0,0.0,0.0,0.0,0.0,0.0,0.0,0.0,0.0,0.0,0.0,0.0,0.0,0.0,0.0,0.0,0.0,0.0,0.0,0.0,0.0,0.0,0.0,0.0,0.0,0.0,0.0,0.0,0.0,0.0,0.0,0.0,0.0,0.0,0.0,0.0,0.0,0.0,0.0,0.0,0.0,0.0,0.0,0.0,0.0,0.0,0.0,0.0,0.0,0.0,0.0,0.0,0.0,0.0,0.0,0.0,0.0,-3.3567,-3.4731,-3.5891,-3.7161,-3.5796,-3.439,0.0,0.0,0.0,0.0,0.0,0.0,0.0,0.0,0.0,0.0,0.0,0.0,0.0,0.0,0.0,0.0,0.0,0.0,0.0,0.0,0.0,0.0,0.0,0.0,0.0,0.0,0.0,0.0,0.0,0.0,0.0,0.0,0.0,0.0,0.0,0.0,0.0,0.0,0.0,0.0,0.0,0.0,0.0,0.0,0.0,0.0,0.0,0.0,0.0,0.0,0.0,0.0,0.0,0.0,0.0,0.0,0.0,0.0,0.0,0.0,0.0,0.0,0.0,0.0,0.0,0.0,0.0,0.0,0.0,0.0,0.0,0.0,0.0,0.0,0.0,0.0,0.0,0.0,0.0,0.0,0.0,0.0,0.0,0.0,0.0,0.0,0.0,0.0,0.0,0.0,0.0,0.0,0.0,0.0,0.0,0.0,0.0,0.0,0.0,0.0,0.0,0.0,0.0,0.0,0.0,0.0,0.0,0.0,0.0,-3.2536,0.0,-3.7458,-3.6881,-3.5923,-3.4167,0.0,0.0,0.0,0.0,0.0,0.0,0.0,0.0,0.0,0.0,0.0,0.0,0.0,0.0,0.0,0.0,0.0,0.0,0.0,0.0,0.0,0.0,0.0,0.0,0.0,0.0,0.0,0.0,0.0,0.0,0.0,0.0,0.0,0.0,0.0,0.0,0.0,0.0,0.0,0.0,0.0,0.0,0.0,0.0,0.0,0.0,0.0,0.0,0.0,0.0,0.0,0.0,0.0,0.0,0.0,0.0,0.0,0.0,0.0,0.0,0.0,0.0,0.0,0.0,0.0,0.0,0.0,0.0,0.0,0.0,0.0,0.0,0.0,0.0,0.0,0.0,0.0,0.0,0.0,0.0,0.0,0.0,0.0,0.0,0.0,0.0,0.0,0.0,0.0,0.0,0.0,0.0,0.0,0.0,0.0,0.0,0.0,0.0,0.0,0.0,0.0,0.0,0.0,0.0,0.0,0.0,0.0,0.0,-3.0665,-3.5753,-3.9087,-3.9927,-3.8266,-3.6379,-3.3601,0.0,0.0,0.0,0.0,0.0,0.0,0.0,0.0,0.0,0.0,0.0,0.0,0.0,0.0,0.0,0.0,0.0,0.0,0.0,0.0,0.0,0.0,0.0,0.0,0.0,0.0,0.0,0.0,0.0,0.0,0.0,0.0,0.0,0.0,0.0,0.0,0.0,0.0,0.0,0.0,0.0,0.0,0.0,0.0,0.0,0.0,0.0,0.0,0.0,0.0,0.0,0.0,0.0,0.0,0.0,0.0,0.0,0.0,0.0,0.0,0.0,0.0,0.0,0.0,0.0,0.0,0.0,0.0,0.0,0.0,0.0,0.0,0.0,0.0,0.0,0.0,0.0,0.0,0.0,0.0,0.0,0.0,0.0,0.0,0.0,0.0,0.0,0.0,0.0,0.0,0.0,0.0,0.0,0.0,0.0,0.0,0.0,0.0,0.0,0.0,0.0,0.0,0.0,0.0,0.0,0.0,0.0,0.0,0.0,-3.347,-3.6855,-3.8855,-3.8989,-3.636,-3.4747,0.0,0.0,0.0,0.0,0.0,0.0,0.0,0.0,0.0,0.0,0.0,0.0,0.0,0.0,0.0,0.0,0.0,0.0,0.0,0.0,0.0,0.0,0.0,0.0,0.0,0.0,0.0,0.0,0.0,0.0,0.0,0.0,0.0,0.0,0.0,0.0,0.0,0.0,0.0,0.0,0.0,0.0,0.0,0.0,0.0,0.0,0.0,0.0,0.0,0.0,0.0,0.0,0.0,0.0,0.0,0.0,0.0,0.0,0.0,0.0,0.0,0.0,0.0,0.0,0.0,0.0,0.0,0.0,0.0,0.0,0.0,0.0,0.0,0.0,0.0,0.0,0.0,0.0,0.0,0.0,0.0,0.0,0.0,0.0,0.0,0.0,0.0,0.0,0.0,0.0,0.0,0.0,0.0,0.0,0.0,0.0,0.0,0.0,0.0,0.0,0.0,0.0,0.0,0.0,0.0,0.0,0.0,0.0,0.0,-3.332,-3.7053,-3.9233,-3.9591,-3.6867,-3.5351,-3.516,0.0,0.0,0.0,0.0,0.0,0.0,0.0,0.0,0.0,0.0,0.0,0.0,0.0,0.0,0.0,0.0,0.0,0.0,0.0,0.0,0.0,0.0,0.0,0.0,0.0,0.0,0.0,0.0,0.0,0.0,0.0,0.0,0.0,0.0,0.0,0.0,0.0,0.0,0.0,0.0,0.0,0.0,0.0,0.0,0.0,0.0,0.0,0.0,0.0,0.0,0.0,0.0,0.0,0.0,0.0,0.0,0.0,0.0,0.0,0.0,0.0,0.0,0.0,0.0,0.0,0.0,0.0,0.0,0.0,0.0,0.0,0.0,0.0,0.0,0.0,0.0,0.0,0.0,0.0,0.0,0.0,0.0,0.0,0.0,0.0,0.0,0.0,0.0,0.0,0.0,0.0,0.0,0.0,0.0,0.0,0.0,0.0,0.0,0.0,0.0,0.0,0.0,0.0,0.0,0.0,0.0,0.0,0.0,-3.4917,-3.9095,-4.0774,-3.9841,-3.7753,-3.5497,0.0,0.0,0.0,0.0,0.0,0.0,0.0,0.0,0.0,0.0,0.0,0.0,0.0,0.0,0.0,0.0,0.0,0.0,0.0,0.0,0.0,0.0,0.0,0.0,0.0,0.0,0.0,0.0,0.0,0.0,0.0,0.0,0.0,0.0,0.0,0.0,0.0,0.0,0.0,0.0,0.0,0.0,0.0,0.0,0.0,0.0,0.0,0.0,0.0,0.0,0.0,0.0,0.0,0.0,0.0,0.0,0.0,0.0,0.0,0.0,0.0,0.0,0.0,0.0,0.0,0.0,0.0,0.0,0.0,0.0,0.0,0.0,0.0,0.0,0.0,0.0,0.0,0.0,0.0,0.0,0.0,0.0,0.0,0.0,0.0,0.0,0.0,0.0,0.0,0.0,0.0,0.0,0.0,0.0,0.0,0.0,0.0,0.0,0.0,0.0,0.0,0.0,0.0,0.0,0.0,0.0,0.0,0.0,0.0,-3.7638,-3.9369,-4.0118,-3.9985,-3.8117,-3.6778,0.0,0.0,0.0,0.0,0.0,0.0,0.0,0.0,0.0,0.0,0.0,0.0,0.0,0.0,0.0,0.0,0.0,0.0,0.0,0.0,0.0,0.0,0.0,0.0,0.0,0.0,0.0,0.0,0.0,0.0,0.0,0.0,0.0,0.0,0.0,0.0,0.0,0.0,0.0,0.0,0.0,0.0,0.0,0.0,0.0,0.0,0.0,0.0,0.0,0.0,0.0,0.0,0.0,0.0,0.0,0.0,0.0,0.0,0.0,0.0,0.0,0.0,0.0,0.0,0.0,0.0,0.0,0.0,0.0,0.0,0.0,0.0,0.0,0.0,0.0,0.0,0.0,0.0,0.0,0.0,0.0,0.0,0.0,0.0,0.0,0.0,0.0,0.0,0.0,0.0,0.0,0.0,0.0,0.0,0.0,0.0,0.0,0.0,0.0,0.0,0.0,0.0,0.0,0.0,0.0,0.0,0.0,0.0,-3.5668,-3.7561,-3.9077,-3.9712,-3.9432,-3.8201,-3.7377,0.0,0.0,0.0,0.0,0.0,0.0,0.0,0.0,0.0,0.0,0.0,0.0,0.0,0.0,0.0,0.0,0.0,0.0,0.0,0.0,0.0,0.0,0.0,0.0,0.0,0.0,0.0,0.0,0.0,0.0,0.0,0.0,0.0,0.0,0.0,0.0,0.0,0.0,0.0,0.0,0.0,0.0,0.0,0.0,0.0,0.0,0.0,0.0,0.0,0.0,0.0,0.0,0.0,0.0,0.0,0.0,0.0,0.0,0.0,0.0,0.0,0.0,0.0,0.0,0.0,0.0,0.0,0.0,0.0,0.0,0.0,0.0,0.0,0.0,0.0,0.0,0.0,0.0,0.0,0.0,0.0,0.0,0.0,0.0,0.0,0.0,0.0,0.0,0.0,0.0,0.0,0.0,0.0,0.0,0.0,0.0,0.0,0.0,0.0,0.0,0.0,0.0,0.0,0.0,0.0,0.0,0.0,0.0,-3.5609,-3.604,-3.8281,-3.9136,-3.8556,-3.8236,-3.7481,0.0,0.0,0.0,0.0,0.0,0.0,0.0,0.0,0.0,0.0,0.0,0.0,0.0,0.0,0.0,0.0,0.0,0.0,0.0,0.0,0.0,0.0,0.0,0.0,0.0,0.0,0.0,0.0,0.0,0.0,0.0,0.0,0.0,0.0,0.0,0.0,0.0,0.0,0.0,0.0,0.0,0.0,0.0,0.0,0.0,0.0,0.0,0.0,0.0,0.0,0.0,0.0,0.0,0.0,0.0,0.0,0.0,0.0,0.0,0.0,0.0,0.0,0.0,0.0,0.0,0.0,0.0,0.0,0.0,0.0,0.0,0.0,0.0,0.0,0.0,0.0,0.0,0.0,0.0,0.0,0.0,0.0,0.0,0.0,0.0,0.0,0.0,0.0,0.0,0.0,0.0,0.0,0.0,0.0,0.0,0.0,0.0,0.0,0.0,0.0,0.0,0.0,0.0,0.0,0.0,0.0,0.0,0.0,-3.5813,-3.6689,-3.7249,-3.8026,-3.9185,-3.8112,-3.6963,0.0,0.0,0.0,0.0,0.0,0.0,0.0,0.0,0.0,0.0,0.0,0.0,0.0,0.0,0.0,0.0,0.0,0.0,0.0,0.0,0.0,0.0,0.0,0.0,0.0,0.0,0.0,0.0,0.0,0.0,0.0,0.0,0.0,0.0,0.0,0.0,0.0,0.0,0.0,0.0,0.0,0.0,0.0,0.0,0.0,0.0,0.0,0.0,-3.9939,0.0,0.0,0.0,0.0,0.0,0.0,0.0,0.0,0.0,0.0,0.0,0.0,0.0,0.0,0.0,0.0,0.0,0.0,0.0,0.0,0.0,0.0,0.0,0.0,0.0,0.0,0.0,0.0,0.0,0.0,0.0,0.0,0.0,0.0,0.0,0.0,0.0,0.0,0.0,0.0,0.0,0.0,0.0,0.0,0.0,0.0,0.0,0.0,0.0,0.0,0.0,0.0,0.0,0.0,0.0,0.0,0.0,0.0,0.0,-3.5409,-3.641,-3.6724,-3.7541,-3.88,-3.8223,-3.7136,0.0,0.0,0.0,0.0,0.0,0.0,0.0,0.0,0.0,0.0,0.0,0.0,0.0,0.0,0.0,0.0,0.0,0.0,0.0,0.0,0.0,0.0,0.0,0.0,0.0,0.0,0.0,0.0,0.0,0.0,0.0,0.0,0.0,0.0,0.0,0.0,0.0,0.0,0.0,0.0,0.0,0.0,0.0,0.0,0.0,0.0,0.0,0.0,0.0,0.0,0.0,0.0,0.0,0.0,0.0,0.0,0.0,0.0,0.0,0.0,0.0,0.0,0.0,0.0,0.0,0.0,0.0,0.0,0.0,0.0,0.0,0.0,0.0,0.0,0.0,0.0,0.0,0.0,0.0,0.0,0.0,0.0,0.0,0.0,0.0,0.0,0.0,0.0,0.0,0.0,0.0,0.0,0.0,0.0,0.0,0.0,0.0,0.0,0.0,0.0,0.0,0.0,0.0,0.0,0.0,0.0,0.0,-3.3893,-3.4868,-3.5928,-3.6523,-3.7307,-3.8322,-3.8273,-3.7359,-3.5574,0.0,0.0,0.0,0.0,0.0,0.0,0.0,0.0,0.0,0.0,0.0,0.0,0.0,0.0,0.0,0.0,0.0,0.0,0.0,0.0,0.0,0.0,0.0,0.0,0.0,0.0,0.0,0.0,0.0,0.0,0.0,0.0,0.0,0.0,0.0,0.0,0.0,0.0,-3.6526,-3.9336,0.0,0.0,0.0,0.0,0.0,0.0,0.0,0.0,-4.3549,0.0,0.0,0.0,0.0,0.0,0.0,0.0,0.0,0.0,0.0,0.0,0.0,0.0,0.0,0.0,0.0,0.0,0.0,0.0,0.0,0.0,0.0,0.0,0.0,0.0,0.0,0.0,0.0,0.0,0.0,0.0,0.0,0.0,0.0,0.0,0.0,0.0,0.0,0.0,0.0,0.0,0.0,0.0,0.0,0.0,0.0,0.0,0.0,0.0,0.0,0.0,0.0,0.0,0.0,0.0,0.0,-3.4682,-3.4416,-3.4876,-3.6102,-3.6492,-3.7064,-3.7935,-3.7723,-3.6884,-3.541,0.0,0.0,0.0,0.0,0.0,0.0,0.0,0.0,0.0,0.0,0.0,0.0,0.0,0.0,0.0,0.0,0.0,0.0,0.0,0.0,0.0,0.0,0.0,0.0,0.0,0.0,0.0,0.0,0.0,0.0,0.0,0.0,0.0,0.0,0.0,0.0,0.0,0.0,0.0,-4.2921,-4.4328,0.0,0.0,0.0,0.0,0.0,0.0,0.0,0.0,-4.6536,0.0,0.0,0.0,0.0,0.0,0.0,0.0,0.0,0.0,0.0,0.0,0.0,0.0,0.0,0.0,0.0,0.0,0.0,0.0,0.0,0.0,0.0,0.0,0.0,0.0,0.0,0.0,0.0,0.0,0.0,0.0,0.0,0.0,0.0,0.0,0.0,0.0,0.0,0.0,0.0,0.0,0.0,0.0,0.0,0.0,0.0,0.0,0.0,0.0,0.0,0.0,0.0,0.0,0.0,0.0,-3.3657,-3.4577,-3.5704,-3.689,-3.706,-3.7578,-3.855,-3.7711,-3.6643,0.0,0.0,0.0,0.0,0.0,0.0,0.0,0.0,0.0,0.0,0.0,0.0,0.0,0.0,0.0,0.0,0.0,0.0,0.0,0.0,0.0,0.0,0.0,0.0,0.0,0.0,0.0,0.0,0.0,0.0,0.0,0.0,0.0,0.0,0.0,0.0,0.0,0.0,0.0,0.0,-4.4455,-4.5914,-4.7135,0.0,0.0,0.0,0.0,0.0,0.0,-4.5573,-4.6051,0.0,0.0,0.0,0.0,0.0,0.0,0.0,0.0,0.0,0.0,0.0,0.0,0.0,0.0,0.0,0.0,0.0,0.0,0.0,0.0,0.0,0.0,0.0,0.0,0.0,0.0,0.0,0.0,0.0,0.0,0.0,0.0,0.0,0.0,0.0,0.0,0.0,0.0,0.0,0.0,0.0,0.0,0.0,0.0,0.0,0.0,0.0,0.0,0.0,0.0,0.0,0.0,0.0,0.0,0.0,-3.2631,-3.4699,-3.6428,-3.7605,-3.7812,-3.8293,-3.9148,-3.8133,-3.6869,0.0,0.0,0.0,0.0,0.0,0.0,0.0,0.0,0.0,0.0,0.0,0.0,0.0,0.0,0.0,0.0,0.0,0.0,0.0,0.0,0.0,0.0,0.0,0.0,0.0,0.0,0.0,0.0,0.0,0.0,0.0,0.0,0.0,0.0,0.0,0.0,0.0,0.0,0.0,0.0,0.0,-4.7235,-4.8115,-4.8128,0.0,0.0,0.0,0.0,-4.5497,-4.6317,0.0,0.0,0.0,0.0,0.0,0.0,0.0,0.0,0.0,0.0,0.0,0.0,0.0,0.0,0.0,0.0,0.0,0.0,0.0,0.0,0.0,0.0,0.0,0.0,0.0,0.0,0.0,0.0,0.0,0.0,0.0,0.0,0.0,0.0,0.0,0.0,0.0,0.0,0.0,0.0,0.0,0.0,0.0,0.0,0.0,0.0,0.0,0.0,0.0,0.0,0.0,0.0,0.0,0.0,0.0,0.0,-3.3496,-3.4902,-3.634,-3.7806,-3.8367,-3.8704,-3.886,-3.8966,-3.8046,0.0,0.0,0.0,0.0,0.0,0.0,0.0,0.0,0.0,0.0,0.0,0.0,0.0,0.0,0.0,0.0,0.0,0.0,0.0,0.0,0.0,0.0,0.0,0.0,0.0,0.0,0.0,0.0,0.0,0.0,0.0,0.0,0.0,0.0,0.0,0.0,0.0,0.0,0.0,0.0,0.0,-4.8759,-4.6597,-4.7338,-4.776,0.0,0.0,-4.7736,-4.9609,-5.1698,0.0,0.0,0.0,0.0,0.0,0.0,0.0,0.0,0.0,0.0,0.0,0.0,0.0,0.0,0.0,0.0,0.0,0.0,0.0,0.0,0.0,0.0,0.0,0.0,0.0,0.0,0.0,0.0,0.0,0.0,0.0,0.0,0.0,0.0,0.0,0.0,0.0,0.0,0.0,0.0,0.0,0.0,0.0,0.0,0.0,0.0,0.0,0.0,0.0,0.0,0.0,0.0,0.0,0.0,0.0,-3.1977,-3.345,-3.5706,-3.7476,-3.8707,-3.9247,-3.9594,-3.9714,-3.9092,-3.8003,0.0,0.0,0.0,0.0,0.0,0.0,0.0,0.0,0.0,0.0,0.0,0.0,0.0,0.0,0.0,0.0,0.0,0.0,0.0,0.0,0.0,0.0,0.0,0.0,0.0,0.0,0.0,0.0,0.0,0.0,0.0,0.0,0.0,0.0,0.0,0.0,0.0,0.0,0.0,0.0,0.0,0.0,-4.8354,-4.9351,0.0,0.0,0.0,-4.9642,-5.0267,0.0,0.0,0.0,0.0,0.0,0.0,0.0,0.0,0.0,0.0,0.0,0.0,0.0,0.0,0.0,0.0,0.0,0.0,0.0,0.0,0.0,0.0,0.0,0.0,0.0,0.0,0.0,0.0,0.0,0.0,0.0,0.0,0.0,0.0,0.0,0.0,0.0,0.0,0.0,0.0,0.0,0.0,0.0,0.0,0.0,0.0,0.0,0.0,0.0,0.0,0.0,0.0,0.0,0.0,0.0,0.0,0.0,-3.3523,-3.6432,-3.852,-3.9508,-3.9931,-4.0196,-4.0368,-3.9225,0.0,0.0,0.0,0.0,0.0,0.0,0.0,0.0,0.0,0.0,0.0,0.0,0.0,0.0,0.0,0.0,0.0,0.0,0.0,0.0,0.0,0.0,0.0,0.0,0.0,0.0,0.0,-3.0592,0.0,0.0,0.0,0.0,0.0,0.0,0.0,0.0,0.0,0.0,0.0,0.0,0.0,0.0,-4.7745,-4.9269,-5.0689,-5.1528,0.0,0.0,-5.1417,-5.1218,-5.223,-5.185,0.0,0.0,0.0,0.0,0.0,0.0,0.0,0.0,0.0,0.0,0.0,0.0,0.0,0.0,0.0,0.0,0.0,0.0,0.0,0.0,0.0,0.0,0.0,0.0,0.0,0.0,0.0,0.0,0.0,0.0,0.0,0.0,0.0,0.0,0.0,0.0,0.0,0.0,0.0,0.0,0.0,0.0,0.0,0.0,0.0,0.0,0.0,0.0,0.0,0.0,0.0,0.0,0.0,0.0,-3.3036,-3.4252,-3.6841,-3.8792,-3.9885,-4.0254,-4.0353,-4.0383,-3.9658,-3.8243,0.0,0.0,0.0,0.0,0.0,0.0,0.0,0.0,0.0,0.0,0.0,0.0,0.0,0.0,0.0,0.0,0.0,0.0,0.0,0.0,0.0,0.0,0.0,0.0,0.0,0.0,0.0,0.0,0.0,0.0,0.0,0.0,0.0,0.0,0.0,0.0,0.0,0.0,0.0,0.0,0.0,-4.7235,-4.7486,-4.9924,-5.2084,0.0,-5.3,-5.3238,-5.4,-5.6391,-5.5976,-4.938,0.0,0.0,0.0,0.0,0.0,0.0,0.0,0.0,0.0,0.0,0.0,0.0,0.0,0.0,0.0,0.0,0.0,0.0,0.0,0.0,0.0,0.0,0.0,0.0,0.0,0.0,0.0,0.0,0.0,0.0,0.0,0.0,0.0,0.0,0.0,0.0,0.0,0.0,0.0,0.0,0.0,0.0,0.0,0.0,0.0,0.0,0.0,0.0,0.0,0.0,0.0,0.0,0.0,-3.3232,-3.5078,-3.741,-3.9256,-4.0542,-4.096,-4.1146,-4.1146,-4.0893,-3.932,0.0,0.0,0.0,0.0,0.0,0.0,0.0,0.0,0.0,0.0,0.0,0.0,0.0,0.0,0.0,0.0,0.0,0.0,0.0,0.0,0.0,0.0,0.0,0.0,0.0,0.0,0.0,0.0,-3.4562,-3.4873,-3.443,0.0,0.0,0.0,0.0,0.0,0.0,0.0,0.0,0.0,0.0,-4.7931,-4.9569,-5.1706,0.0,0.0,-5.446,-5.4774,-5.5584,-5.5374,-5.3875,-5.0185,-4.8466,0.0,0.0,0.0,0.0,0.0,0.0,0.0,0.0,0.0,0.0,0.0,0.0,0.0,0.0,0.0,0.0,0.0,0.0,0.0,0.0,0.0,0.0,0.0,0.0,0.0,0.0,0.0,0.0,0.0,0.0,0.0,0.0,0.0,0.0,0.0,0.0,0.0,0.0,0.0,0.0,0.0,0.0,0.0,0.0,0.0,0.0,0.0,0.0,0.0,0.0,0.0,0.0,-3.3775,-3.5951,-3.8051,-3.9781,-4.1148,-4.1701,-4.1727,-4.1262,-4.1474,-4.0153,0.0,0.0,0.0,0.0,0.0,0.0,0.0,0.0,0.0,0.0,0.0,0.0,0.0,0.0,0.0,0.0,0.0,0.0,0.0,0.0,0.0,0.0,0.0,0.0,0.0,0.0,0.0,0.0,-3.6204,-3.6296,-3.5823,0.0,0.0,0.0,0.0,0.0,0.0,0.0,0.0,0.0,0.0,-4.8826,-5.1146,-5.2485,-5.3451,-5.4011,-5.4196,-5.4402,-5.4931,-5.4161,-5.2697,-5.0258,0.0,0.0,0.0,0.0,0.0,0.0,0.0,0.0,0.0,0.0,0.0,0.0,0.0,0.0,0.0,0.0,0.0,0.0,0.0,0.0,0.0,0.0,0.0,0.0,0.0,0.0,0.0,-3.3201,0.0,0.0,-3.1053,0.0,0.0,0.0,0.0,0.0,0.0,0.0,0.0,0.0,0.0,0.0,0.0,0.0,0.0,0.0,0.0,0.0,0.0,0.0,0.0,0.0,0.0,-3.4822,-3.6777,-3.8812,-4.039,-4.154,-4.2341,-4.1979,-4.0528,-4.125,-4.0546,-3.8142,0.0,0.0,0.0,0.0,0.0,0.0,0.0,0.0,0.0,0.0,0.0,0.0,0.0,0.0,0.0,0.0,0.0,0.0,0.0,0.0,0.0,0.0,0.0,0.0,0.0,0.0,-3.6329,-3.5107,-3.4382,0.0,0.0,0.0,0.0,0.0,0.0,0.0,0.0,0.0,-4.5354,-4.7806,-4.9922,-5.1371,-5.1777,-5.2029,-5.1955,-5.1777,-5.1693,-5.18,-5.3432,-5.3501,0.0,0.0,0.0,0.0,0.0,0.0,0.0,0.0,0.0,0.0,0.0,0.0,0.0,0.0,0.0,0.0,0.0,0.0,0.0,0.0,0.0,0.0,0.0,0.0,0.0,0.0,0.0,-3.5111,-3.3856,0.0,0.0,0.0,0.0,0.0,0.0,0.0,0.0,0.0,0.0,0.0,-3.4671,-3.545,0.0,0.0,0.0,0.0,0.0,0.0,0.0,0.0,0.0,0.0,0.0,0.0,-3.4836,-3.6576,-3.8977,-4.0402,-4.08,-4.1609,-4.1481,-4.042,-4.1181,-4.0789,-3.895,0.0,0.0,0.0,0.0,0.0,0.0,0.0,0.0,0.0,0.0,0.0,0.0,0.0,0.0,0.0,0.0,0.0,0.0,0.0,0.0,0.0,0.0,0.0,0.0,0.0,-3.7104,0.0,0.0,0.0,0.0,0.0,0.0,0.0,0.0,0.0,0.0,0.0,-4.3722,-4.6236,-4.8684,-5.0453,-5.1285,-5.2802,-5.3644,0.0,0.0,0.0,0.0,0.0,0.0,0.0,0.0,0.0,0.0,0.0,0.0,0.0,0.0,-5.5152,-5.1525,-5.0322,-4.9934,-5.0028,0.0,0.0,0.0,0.0,0.0,0.0,0.0,0.0,0.0,0.0,0.0,0.0,0.0,0.0,-3.7067,0.0,-3.5808,0.0,0.0,0.0,0.0,0.0,0.0,0.0,0.0,-3.7206,-3.7638,-3.7376,-3.8058,-3.8244,0.0,-3.7993,-3.7175,0.0,0.0,0.0,0.0,0.0,0.0,0.0,0.0,-3.563,-3.6775,-3.9018,-4.0263,-4.0437,-4.1181,-4.1071,-3.9999,-4.0443,-4.0392,-3.968,-3.7252,-3.5805,0.0,0.0,0.0,0.0,0.0,0.0,0.0,0.0,0.0,0.0,0.0,0.0,0.0,0.0,0.0,0.0,0.0,0.0,0.0,0.0,0.0,0.0,0.0,-3.7837,0.0,0.0,0.0,0.0,0.0,0.0,0.0,0.0,0.0,-4.2271,-4.3223,-4.4894,-4.7716,-4.9487,-5.0769,-5.1347,0.0,0.0,0.0,0.0,0.0,0.0,0.0,-5.2932,-5.3589,-5.3181,-5.3008,-5.3725,-5.638,-5.8121,-5.7027,0.0,0.0,-5.5063,-5.3796,-5.335,-5.3508,-5.3762,-5.3776,-5.332,-5.3924,-5.4358,0.0,0.0,0.0,0.0,0.0,0.0,0.0,0.0,-4.0509,-4.0056,0.0,-3.9013,0.0,0.0,0.0,0.0,-3.7685,-3.9427,0.0,0.0,-4.089,-4.127,-4.0564,-4.0545,-4.0581,-4.0581,-4.0545,-4.0508,-4.0398,-3.798,0.0,0.0,0.0,0.0,0.0,0.0,-3.7038,-3.7379,-3.9007,-4.0025,-4.0393,-4.12,-4.0866,-3.9305,-3.9194,-3.9602,-4.0346,-3.9202,-3.7893,-3.6423,-3.6656,0.0,0.0,0.0,0.0,0.0,0.0,0.0,0.0,0.0,0.0,0.0,0.0,0.0,0.0,0.0,0.0,0.0,0.0,0.0,0.0,-3.7965,0.0,0.0,0.0,0.0,0.0,0.0,0.0,0.0,0.0,0.0,-4.365,-4.5004,-4.6908,-4.9655,0.0,0.0,0.0,0.0,-5.1117,-5.1117,-5.1802,-5.2492,-5.2642,-5.4422,-5.5405,-5.4368,0.0,0.0,-5.65,-5.8325,-5.9507,-5.8111,-5.9158,-6.0007,-5.9351,-5.7691,-5.6681,-5.696,-5.6589,-5.6209,-5.6239,-5.7063,-5.7698,-4.2624,0.0,0.0,0.0,0.0,-4.0792,-4.1038,-4.1691,-4.1551,-4.1047,-4.0315,-4.0211,0.0,0.0,0.0,0.0,0.0,0.0,-4.0654,-4.1017,-4.147,-4.185,-4.214,-4.214,-4.2411,-4.2844,-4.2862,-4.2786,-4.264,-4.1301,-3.948,-3.7202,0.0,0.0,0.0,0.0,-3.6544,-3.696,-3.9229,-4.03,-3.9972,-4.138,-4.1808,-4.1176,-4.0421,-4.0401,-4.1219,-3.9758,-3.8892,-3.8738,-3.7253,0.0,0.0,0.0,0.0,0.0,0.0,0.0,0.0,0.0,0.0,0.0,0.0,0.0,0.0,0.0,0.0,0.0,0.0,0.0,-3.797,-3.7549,-3.7584,0.0,0.0,0.0,0.0,0.0,0.0,0.0,0.0,0.0,-4.6891,-4.7868,-4.8521,0.0,0.0,-5.2072,-5.0749,-5.1918,-5.2734,-5.2159,-5.3048,0.0,-5.448,-5.4916,-5.5664,-5.7059,-5.8513,-5.9418,-5.9335,-6.0422,-6.1038,-6.0119,-6.0834,-6.1286,-6.0559,-5.9898,-5.9425,-5.9546,-5.953,-5.9499,-5.9518,-5.9838,-5.998,-4.5458,-4.3883,-4.2473,-4.2214,-4.2663,-4.229,-4.2556,-4.3278,-4.3152,-4.2832,-4.2366,-4.2348,-4.1501,-4.002,-3.963,0.0,0.0,0.0,-4.2001,-4.2508,-4.2804,-4.3212,-4.3624,-4.3643,-4.3825,-4.4214,-4.3895,-4.3875,-4.4094,-4.294,-4.1518,-3.9806,0.0,0.0,-3.6147,-3.7121,-3.7542,-3.7488,-3.9336,-4.0151,-3.9816,-4.0804,-4.1421,-4.1627,-4.0982,-4.1172,-4.2165,-4.0952,-4.0328,-4.0498,-3.8826,-3.7366,0.0,0.0,0.0,0.0,0.0,0.0,0.0,0.0,0.0,0.0,0.0,-3.6984,-3.6256,0.0,0.0,0.0,-3.7431,-3.8213,-3.8961,-3.8605,0.0,0.0,0.0,0.0,0.0,0.0,0.0,-4.4702,-4.5537,-4.665,-4.8286,-4.9301,-4.9842,-4.9658,-5.1212,-5.1951,-5.0953,0.0,-5.3612,-5.3123,-5.4314,-5.5435,-5.5879,-5.6026,-5.6615,-5.8139,-5.9251,-5.9946,-6.0181,-6.067,-6.0943,-6.0938,-6.1017,-6.1074,-6.092,-6.0841,-6.0798,-6.075,-6.0817,-6.0901,-6.0901,-6.0901,-6.0922,-4.7889,-4.6888,-4.4114,-4.3406,-4.4036,-4.3895,-4.4252,-4.4916,-4.4935,-4.4912,-4.4912,-4.4912,-4.404,-4.2557,-4.1815,0.0,-4.2633,-4.3431,-4.3786,-4.3817,-4.4554,-4.4896,-4.4896,-4.4896,-4.4924,-4.4916,-4.4195,-4.4214,-4.4865,-4.3418,-4.2616,-4.2436,-4.0853,-3.9577,-3.8702,-3.9304,-3.9345,-3.8646,-3.9423,-3.9916,-4.0072,-4.0106,-4.0495,-4.1345,-4.1306,-4.1921,-4.3149,-4.2502,-4.1975,-4.164,-4.0867,-3.9369,-3.7068,0.0,0.0,0.0,0.0,0.0,0.0,0.0,0.0,0.0,0.0,0.0,0.0,0.0,0.0,-3.8192,-3.8971,0.0,-4.0473,-4.0545,0.0,0.0,0.0,-4.213,-4.2203,-4.3815,-4.5008,-4.5201,0.0,0.0,-4.8296,-4.9644,-5.0736,-5.1092,-5.1021,-5.1179,-5.1907,-5.3176,-5.4015,-5.4065,-5.5427,-5.6568,-5.6687,-5.7277,-5.7791,-5.8116,-5.8888,-5.9453,-5.9512,-5.9531,-5.988,-6.0499,-6.0074,-5.9765,-6.0576,-6.0712,-6.0882,-6.0674,-6.0847,-6.0963,-6.0943,-6.0963,-6.1022,-4.8077,-4.7265,-4.6441,-4.6182,-4.6259,-4.5433,-4.5188,-4.5342,-4.5204,-4.512,-4.512,-4.512,-4.4527,-4.3457,-4.3306,-4.3283,-4.345,-4.4246,-4.4608,-4.4623,-4.4813,-4.4909,-4.489,-4.4909,-4.502,-4.5187,-4.5015,-4.5132,-4.5451,-4.4506,-4.3679,-4.3028,-4.2588,-4.1128,-3.8702,-3.8776,-3.8877,-3.8898,-3.97,-4.0844,-4.2268,-4.2718,-4.3061,-4.3292,-4.3107,-4.3147,-4.3478,-4.3326,-4.2831,-4.2018,-4.121,-3.9883,-3.7897,-3.7131,0.0,0.0,0.0,0.0,0.0,0.0,0.0,0.0,0.0,-3.8409,-3.6254,0.0,-3.8844,0.0,-3.9441,-4.0416,-4.075,-4.0821,0.0,0.0,-4.2621,-4.2636,-4.3244,-4.4005,-4.4715,-4.5361,-4.6036,-4.7027,-4.8498,-4.9148,-4.9773,-5.0565,-5.2063,-5.3015,-5.292,-5.4185,-5.517,-5.5193,-5.5588,-5.619,-5.6706,-5.7593,-5.8115,-5.8254,-5.8449,-5.8645,-5.8798,-5.8836,-5.8929,-5.9242,-5.9157,-5.908,-5.9293,-5.9323,-5.9362,-5.9425,-6.034,-6.1271,-6.1271,-6.1252,-6.1268,-4.8569,-4.8436,-4.7637,-4.7469,-4.7618,-4.6214,-4.5626,-4.5626,-4.5526,-4.5454,-4.5454,-4.5454,-4.5185,-4.4706,-4.4687,-4.4669,-4.467,-4.5093,-4.5304,-4.5285,-4.5285,-4.5285,-4.5304,-4.5285,-4.5379,-4.5522,-4.5522,-4.561,-4.5723,-4.5298,-4.466,-4.3781,-4.3781,-4.273,-4.0728,-4.0671,-4.0534,-4.0296,-4.0684,-4.1618,-4.3041,-4.3403,-4.375,-4.4124,-4.3656,-4.3495,-4.371,-4.3387,-4.3023,-4.2636,-4.1795,-4.0703,-3.9331,-3.8446,-3.7499,0.0,0.0,0.0,0.0,0.0,0.0,0.0,0.0,0.0,0.0,0.0,-3.9794,-4.0068,-4.0891,-4.1599,-4.2081,-4.2151,-4.2551,-4.3586,-4.3447,-4.3478,-4.3943,-4.4636,-4.5319,-4.5825,-4.6461,-4.74,-4.884,-4.9179,-4.9625,-5.06,-5.2088,-5.297,-5.2839,-5.4111,-5.5133,-5.4747,-5.5107,-5.5562,-5.5977,-5.6476,-5.6822,-5.6839,-5.6822,-5.6875,-5.6994,-5.7339,-5.7601,-5.7696,-5.7981,-5.8253,-5.8292,-5.8583,-5.8797,-5.8933,-5.9574,-6.0176,-6.0254,-6.0234,-6.0234,-4.9088,-4.9607,-4.8068,-4.7767,-4.8251,-4.6549,-4.5819,-4.58,-4.58,-4.58,-4.58,-4.58,-4.58,-4.58,-4.58,-4.58,-4.58,-4.58,-4.5805,-4.5815,-4.5815,-4.5815,-4.5815,-4.5815,-4.581,-4.5819,-4.5838,-4.5838,-4.5838,-4.5838,-4.5399,-4.4578,-4.4655,-4.4274,-4.3453,-4.3492,-4.3057,-4.2086,-4.2098,-4.2508,-4.3242,-4.3374,-4.3701,-4.4241,-4.3643,-4.3403,-4.3751,-4.3119,-4.2876,-4.3114,-4.2302,-4.1473,-4.0731,-3.981,-3.874,0.0,-3.7361,0.0,0.0,0.0,0.0,0.0,0.0,0.0,0.0,-3.9475,-4.0954,-4.2234,-4.2511,-4.2899,-4.3541,-4.3689,-4.3795,-4.3828,-4.4114,-4.4365,-4.4383,-4.533,-4.6055,-4.6249,-4.7019,-4.7912,-4.8798,-4.912,-4.9547,-5.0598,-5.1368,-5.1866,-5.2056,-5.3475,-5.439,-5.3615,-5.4264,-5.4809,-5.4848,-5.488,-5.49,-5.488,-5.4938,-5.4835,-5.4919,-5.5495,-5.5961,-5.6019,-5.6505,-5.7029,-5.7204,-5.7806,-5.8214,-5.8117,-5.8195,-5.8409,-5.8836,-5.8972,-5.8778,-4.8941,-4.8998,-4.7922,-4.7573,-4.7599,-4.653,-4.5955,-4.58,-4.58,-4.58,-4.58,-4.58,-4.58,-4.58,-4.58,-4.58,-4.58,-4.58,-4.58,-4.5819,-4.5819,-4.5819,-4.5819,-4.5916,-4.5955,-4.5955,-4.6027,-4.6046,-4.6046,-4.6046,-4.5587,-4.4766,-4.5438,-4.5336,-4.449,0.0,0.0,0.0,-4.3589,-4.3981,-4.4179,-4.4848,-4.4925,-4.4333,-4.4143,0.0,-4.3265,-4.3131,-4.2891,-4.2553,-4.1813,0.0,0.0,0.0,0.0,0.0,0.0,0.0,0.0,0.0,0.0,0.0,-4.1536,-4.0933,-3.9793,-4.112,-4.1915,-4.1601,-4.2696,-4.3384,-4.3081,-4.3639,-4.4091,-4.4335,-4.4505,-4.4621,-4.464,-4.5128,-4.547,-4.551,-4.5878,-4.6475,-4.7399,-4.7536,-4.823,-4.9814,-5.0246,-5.0622,-5.1237,-5.2783,-5.378,-5.3702,-5.3831,-5.3941,-5.3941,-5.3941,-5.3941,-5.3941,-5.3941,-5.3922,-5.3922,-5.4038,-5.4194,-5.4213,-5.433,-5.4737,-5.5359,-5.5631,-5.5825,-5.5747,-5.5767,-5.635,-5.835,-5.8778,-5.8603,-4.916,-4.9414,-4.8111,-4.7523,0.0,-4.6996,-4.6474,-4.5947,-4.5945,-4.5916,-4.5877,-4.5838,-4.58,-4.58,-4.58,-4.58,-4.58,-4.58,-4.5838,-4.5896,-4.5896,-4.5896,-4.5935,-4.6027,-4.6054,-4.6055,-4.6074,-4.6113,-4.6113,-4.6113,-4.588,-4.5453,-4.5861,-4.5841,-4.5414,-4.5764,-4.5476,-4.4495,-4.4415,-4.4595,-4.504,-4.5428,-4.5428,-4.4949,-4.4509,0.0,0.0,0.0,0.0,0.0,0.0,0.0,0.0,-4.089,0.0,-3.9614,-4.0309,-4.0797,-4.0797,-4.1191,-4.1773,-4.2581,-4.3031,-4.28,-4.1763,-4.2443,-4.288,-4.288,-4.3644,-4.3972,-4.3745,-4.4102,-4.4449,-4.4605,-4.4827,-4.5,-4.5023,-4.5283,-4.5493,-4.551,-4.568,-4.6129,-4.6964,-4.7146,-4.7745,-4.8996,-4.924,-4.9415,-4.9998,-5.1727,-5.3048,-5.3048,-5.3067,-5.3067,-5.3067,-5.3048,-5.3067,-5.3028,-5.2737,-5.2504,-5.2465,-5.2776,-5.2931,-5.2659,-5.3086,-5.3747,-5.3689,-5.4058,-5.4349,-5.4349,-5.4349,-5.4679,-5.6058,-5.6272,-5.6175,-4.9316,-4.9805,-4.8086,-4.7344,-4.7284,-4.7271,-4.6842,-4.613,0.0,0.0,0.0,-4.5877,-4.5838,-4.5838,-4.5838,-4.5858,-4.5858,-4.5838,-4.5916,-4.6027,-4.6009,-4.6054,-4.6093,-4.6112,-4.6123,-4.6111,-4.6131,-4.6156,-4.6137,-4.6137,-4.6137,-4.6117,-4.5981,-4.5898,-4.5877,-4.5914,-4.5886,-4.5781,-4.5044,-4.4977,-4.5671,-4.5657,-4.5545,-4.5374,-4.4682,-4.3932,-4.3143,-4.3085,-4.2708,-4.1875,-4.2259,-4.2086,-4.1206,-4.1552,-4.151,-4.0948,-4.1443,-4.1942,-4.2205,-4.2243,-4.26,-4.3463,-4.412,-4.4233,-4.3557,-4.352,-4.3782,-4.4439,-4.4496,-4.4515,-4.4496,-4.464,-4.4745,-4.4726,-4.5094,-4.5342,-4.5362,-4.5563,-4.5731,-4.5746,-4.5833,-4.6151,-4.6765,-4.6962,-4.7395,-4.8153,-4.8366,-4.8483,-4.8813,-5.0348,-5.1746,-5.2096,-5.2037,-5.196,-5.2154,-5.2193,-5.2193,-5.2173,-5.1668,-5.1241,-5.1299,-5.1746,-5.1863,-5.1455,-5.2407,-5.2834,-5.2581,-5.3028,-5.3436,-5.3455,-5.3475,-5.3358,-5.3086,-5.3028,-5.3106,-4.8965,-4.8926,-4.7207,-4.6484,-4.6484,-4.6468,-4.6376,-4.6274,-4.6154,-4.6095,-4.6085,-4.6065,-4.6065,-4.6065,-4.6065,-4.6046,-4.6046,-4.6046,-4.6065,-4.6079,-4.6085,-4.6088,-4.6119,-4.6169,-4.6176,-4.6177,-4.6236,-4.6287,-4.6269,-4.6269,-4.6267,-4.6172,-4.5525,-4.5133,-4.513,-4.5684,-4.596,-4.5881,-4.5638,-4.5584,-4.568,-4.569,-4.5291,-4.4509,-4.4374,-4.3912,-4.3124,-4.3104,-4.2923,-4.2565,-4.2067,-4.1571,-4.1199,-4.0599,-4.0476,-4.0999,-4.1017,-4.1605,-4.2994,-4.3106,-4.3482,-4.4252,-4.4458,-4.4458,-4.4364,-4.4346,-4.4383,-4.4496,-4.4515,-4.4496,-4.4515,-4.4732,-4.4868,-4.4915,-4.5225,-4.5473,-4.5491,-4.5708,-4.586,-4.586,-4.5949,-4.5994,-4.6169,-4.6219,-4.656,-4.7279,-4.7473,-4.7745,-4.8405,-4.8871,-4.9765,-5.0853,-5.0717,-5.0639,-5.1086,-5.1358,-5.128,-5.1377,-5.1202,-5.0989,-5.0989,-5.1105,-5.1222,-5.1202,-5.1435,-5.1746,-5.2135,-5.2465,-5.2504,-5.2484,-5.2484,-5.2135,-5.0989,-5.0639,-5.0697,-4.8887,-4.8086,-4.6836,-4.6289,-4.6289,-4.6297,-4.6306,-4.6306,-4.6225,-4.6186,-4.6151,-4.6104,-4.6114,-4.6114,-4.6114,-4.6114,-4.6114,-4.6114,-4.6108,-4.6156,-4.6154,-4.6158,-4.6218,-4.624,-4.6235,-4.6248,-4.6278,-4.6289,-4.6289,-4.6289,-4.6055,-4.5566,-4.468,-4.4443,-4.4808,-4.4666,-4.4989,-4.5816,-4.5738,-4.57,-4.5687,-4.5211,-4.4718,-4.4316,-4.4316,-4.3701,-4.247,-4.372,-4.3571,-4.1639,-4.2168,-4.1942,-4.0844,-4.073,-4.0836,-4.1086,-4.1318,-4.1792,-4.2543,-4.3031,-4.3651,-4.4421,-4.4102,-4.4064,-4.4477,-4.4496,-4.4496,-4.4515,-4.4595,-4.4655,-4.4681,-4.4962,-4.5161,-4.5184,-4.5453,-4.5677,-4.5723,-4.5835,-4.596,-4.596,-4.5975,-4.5997,-4.5977,-4.5977,-4.6094,-4.654,-4.6599,-4.6948,-4.7725,-4.7492,-4.7822,-4.9357,-4.9454,-4.9396,-4.9745,-4.9804,-4.9804,-4.9804,-4.9804,-4.9784,-4.9784,-4.9804,-4.9998,-5.0386,-5.0484,-5.0639,-5.1027,-5.1027,-5.1047,-5.1027,-5.1027,-5.06,-4.9998,-4.9221,-4.8832,-4.9121,-4.8105,-4.7012,-4.6484,-4.6308,-4.6289,-4.6289,-4.6289,-4.6289,-4.6269,-4.623,-4.6175,-4.6142,-4.6142,-4.6142,-4.6142,-4.6142,-4.6142,-4.6169,-4.621,-4.6219,-4.6261,-4.6289,-4.6289,-4.6289,-4.6269,-4.6113,-4.6014,-4.598,-4.5802,-4.5241,-4.4399,-4.3817,-4.3782,-4.4177,-4.3655,-4.3998,-4.5112,-4.5163,-4.5205,-4.5365,-4.4677,-4.422,-4.4028,-4.4008,-4.3489,-4.2547,-4.4259,-4.4025,-4.1459,-4.2453,-4.2341,-4.0611,-4.0862,-4.1129,-4.1168,-4.1493,-4.183,-4.2018,-4.2637,-4.3275,-4.3876,-4.3369,-4.3351,-4.4102,-4.4252,-4.4327,-4.4486,-4.4681,-4.4776,-4.4825,-4.5203,-4.5455,-4.5453,-4.5669,-4.5854,-4.5912,-4.5964,-4.5977,-4.5977,-4.5977,-4.5977,-4.5977,-4.5977,-4.6016,-4.6016,-4.5977,-4.6307,-4.6773,-4.6385,-4.6676,-4.755,-4.8172,-4.8463,-4.8522,-4.8658,-4.8677,-4.858,-4.8658,-4.8755,-4.8735,-4.8658,-4.8813,-4.9473,-4.959,-4.9629,-4.9629,-4.9843,-4.9978,-5.0076,-5.0095,-4.9823,-4.9221,-4.8075,-4.7259,-4.9766,-4.9687,-4.8086,-4.7031,-4.6328,-4.6289,-4.6289,-4.6289,-4.6289,-4.6289,-4.6289,-4.6289,-4.6289,-4.6288,-4.6269,-4.6269,-4.6269,-4.6269,-4.6289,-4.6289,-4.6289,-4.6289,-4.6289,-4.6289,-4.6289,-4.6191,-4.5527,-4.516,-4.5055,-4.4275,-4.3404,-4.2634,-4.3144,-4.3091,-4.2555,-4.296,-4.3335,-4.3442,-4.3362,-4.3724,-4.446,-4.4369,-4.3951,-4.322,-4.3201,-4.3508,-4.3778,-4.4297,-4.3932,-4.3006,-4.2961,-4.2341,-4.0808,-4.0363,-4.0539,-4.1185,-4.1043,-4.1229,-4.1879,-4.2093,-4.2187,-4.2198,-4.2205,-4.2506,-4.3351,-4.3426,-4.3745,-4.4336,-4.4688,-4.4819,-4.4825,-4.5285,-4.5571,-4.5603,-4.5815,-4.5986,-4.5986,-4.5997,-4.5977,-4.5977,-4.5977,-4.5977,-4.5977,-4.5977,-4.5977,-4.5977,-4.5977,-4.6035,-4.6191,-4.6152,-4.6016,-4.6404,-4.6909,-4.7706,-4.823,-4.8561,-4.8347,-4.8425,-4.8541,-4.8386,-4.8289,-4.8366,-4.8658,-4.8599,-4.8716,-4.8716,-4.8891,-4.9279,-4.9765,-4.9512,-4.9473,-4.9357,-4.7939,-4.6871,-4.6424,-4.8701,-4.7842,-4.712,-4.6637,-4.6328,-4.6289,-4.6289,-4.6289,-4.6289,-4.6289,-4.6289,-4.6289,-4.6289,-4.6289,-4.6289,-4.6289,-4.6289,-4.6289,-4.6289,-4.6289,-4.6289,-4.6289,-4.6289,-4.6248,-4.599,-4.5468,-4.5025,-4.4572,-4.4016,-4.3175,-4.2518,-4.2121,-4.1986,-4.1899,-4.199,-4.1817,-4.2148,-4.3102,-4.2601,-4.2521,-4.2829,-4.2835,-4.2662,-4.2393,-4.2335,-4.22,-4.2181,-4.3008,-4.297,-4.1739,-4.2094,-4.184,-4.0665,-4.0232,-4.0195,-4.0538,-4.0268,-4.0215,-4.0572,-4.1022,-4.1285,-4.1285,-4.1304,-4.1849,-4.3106,-4.2844,-4.3069,-4.4288,-4.4814,-4.503,-4.5074,-4.5453,-4.5752,-4.578,-4.588,-4.5949,-4.5994,-4.5994,-4.5994,-4.5997,-4.5977,-4.5977,-4.5977,-4.5977,-4.5977,-4.5977,-4.5997,-4.5997,-4.5997,-4.5977,-4.5977,-4.6035,-4.6327,-4.6599,-4.7045,-4.7065,-4.7084,-4.7065,-4.7045,-4.7065,-4.7123,-4.7065,-4.7181,-4.7725,-4.7822,-4.7842,-4.7842,-4.8017,-4.8366,-4.8425,-4.8386,-4.8094,-4.7414,-4.6618,-4.6113,-4.7774,-4.7048,-4.6772,-4.6532,-4.6289,-4.6289,-4.6289,-4.6289,-4.6289,-4.6289,-4.6289,-4.6287,-4.6288,-4.6289,-4.6289,-4.6289,-4.6289,-4.6289,-4.6289,-4.6289,-4.6276,-4.6269,-4.626,-4.6163,-4.5686,-4.4918,-4.448,-4.3782,-4.2801,-4.2092,-4.1702,-4.1586,-4.1003,-4.0977,-4.1466,-4.0885,-4.1155,-4.2181,-4.1739,-4.1354,-4.12,-4.1335,-4.1431,-4.1431,-4.145,-4.1239,-4.0912,-4.2066,-4.2181,-4.0969,-4.1258,-4.105,-4.0223,-3.9776,-3.9671,-3.9897,-3.9727,-3.9596,-3.962,-4.014,-4.0459,-4.0459,-4.0459,-4.106,-4.2168,-4.2036,-4.2355,-4.3547,-4.4459,-4.4857,-4.5223,-4.5577,-4.5847,-4.5893,-4.5906,-4.5912,-4.596,-4.598,-4.5972,-4.5986,-4.5986,-4.5997,-4.5997,-4.5997,-4.5986,-4.5986,-4.5986,-4.5986,-4.5986,-4.5986,-4.5997,-4.5986,-4.6016,-4.6016,-4.5977,-4.6133,-4.5977,-4.5977,-4.6113,-4.6152,-4.5977,-4.6016,-4.6074,-4.6909,-4.6929,-4.6987,-4.7026,-4.7045,-4.7306,-4.7317,-4.7317,-4.724,-4.6871,-4.6346,-4.6094,-4.7317,-4.8526,-4.7871,-4.6993,-4.6301,-4.6301,-4.6301,-4.6303,-4.6287,-4.6287,-4.628,-4.6287,-4.629,-4.628,-4.6267,-4.6289,-4.6289,-4.6289,-4.6289,-4.6265,-4.6219,-4.6216,-4.6216,-4.6055,-4.5537,-4.4597,-4.3871,-4.264,-4.1026,-4.0829,-4.0718,-4.0665,-4.0626,-4.0592,-4.0639,-4.0581,-4.0543,-4.0758,-4.0642,-4.0258,-3.97,-4.0239,-4.0566,-4.0623,-4.0585,-4.0931,-4.1566,-4.1777,-4.1777,-4.172,-4.0837,-3.9964,-3.9182,-3.8776,-3.8884,-3.9439,-3.952,-3.9527,-3.9539,-3.9633,-3.9695,-3.9677,-3.9708,-4.0071,-4.1022,-4.1041,-4.1436,-4.2149,-4.3377,-4.4247,-4.509,-4.5594,-4.586,-4.5893,-4.5899,-4.5905,-4.5905,-4.5905,-4.5929,-4.5972,-4.6003,-4.5983,-4.5986,-4.5994,-4.6003,-4.6003,-4.6003,-4.5972,-4.5941,-4.5964,-4.5975,-4.5994,-4.5994,-4.5997,-4.5997,-4.5977,-4.5977,-4.5997,-4.5997,-4.5997,-4.5997,-4.5997,-4.6055,-4.6094,-4.6199,-4.6277,-4.6268,-4.6521,-4.6996,-4.7132,-4.7073,-4.6899,-4.6471,-4.6171,-4.5997,-4.6661,-4.7188,-4.6908,-4.6577,-4.6309,-4.629,-4.629,-4.6306,-4.6215,-4.617,-4.6157,-4.6084,-4.6057,-4.6052,-4.604,-4.6099,-4.6162,-4.6119,-4.6108,-4.6099,-4.6093,-4.6072,-4.6047,-4.5935,-4.5109,-4.3901,-4.337,-4.2294,-4.0746,-4.0558,-4.0558,-4.0539,-4.0539,-4.0523,-4.0504,-4.0489,-4.0489,-4.0466,-4.0027,-3.985,-3.9985,-3.9854,-3.995,-4.0485,-4.0489,-4.0623,-4.095,-4.0969,-4.0921,-4.0783,-4.0385,-3.9986,-3.9543,-3.9309,-3.9245,-3.9432,-3.9469,-3.9296,-3.892,-3.9295,-3.9314,-3.8863,-3.9295,-3.9934,-4.0591,-4.0835,-4.136,-4.2535,-4.2898,-4.369,-4.4919,-4.5594,-4.5827,-4.5827,-4.5841,-4.5835,-4.5887,-4.5899,-4.5912,-4.5937,-4.5949,-4.5949,-4.5941,-4.5929,-4.5929,-4.5929,-4.5929,-4.5917,-4.5917,-4.5929,-4.5941,-4.5949,-4.5941,-4.5941,-4.5941,-4.5986,-4.5997,-4.5997,-4.5986,-4.5994,-4.5994,-4.5953,-4.5991,-4.5991,-4.5953,-4.5953,-4.6069,-4.6127,-4.6574,-4.6554,-4.6535,-4.6507,-4.6072,-4.5994,-4.5986,-4.6066,-4.628,-4.6245,-4.6221,-4.624,-4.6201,-4.6176,-4.6164,-4.6063,-4.6018,-4.6027,-4.5928,-4.5897,-4.5908,-4.5867,-4.5906,-4.5997,-4.5968,-4.5959,-4.5949,-4.5947,-4.5945,-4.5924,-4.5822,-4.4881,-4.332,-4.2514,-4.1732,-4.0989,-4.0623,-4.0489,-4.0489,-4.0489,-4.0489,-4.0489,-4.0489,-4.0489,-4.0335,-3.97,-3.9585,-3.9988,-3.9585,-3.9546,-4.0065,-4.0354,-4.0489,-4.0489,-4.0207,-3.9972,-3.9775,-3.9414,-3.9176,-3.918,-3.9113,-3.9139,-3.9317,-3.9373,-3.9226,-3.8852,-3.9233,-3.9308,-3.8807,-3.9239,-3.9915,-4.0685,-4.0797,-4.1398,-4.2215,-4.2939,-4.3533,-4.4268,-4.5141,-4.5703,-4.5786,-4.58,-4.5814,-4.588,-4.586,-4.5874,-4.5893,-4.5905,-4.5905,-4.5905,-4.5905,-4.5893,-4.5893,-4.5893,-4.5893,-4.588,-4.5893,-4.5905,-4.5893,-4.5905,-4.5917,-4.5917,-4.5941,-4.5944,-4.5953,-4.5953,-4.596,-4.596,-4.5917,-4.5886,-4.5886,-4.5886,-4.5886,-4.5886,-4.5886,-4.5886,-4.5886,-4.6014,-4.6123,-4.596,-4.598,-4.5953,-4.5558,-4.6214,-4.617,-4.6098,-4.6072,-4.5987,-4.591,-4.593,-4.592,-4.5901,-4.5908,-4.5886,-4.5873,-4.5863,-4.5815,-4.578,-4.5819,-4.5851,-4.5873,-4.5896,-4.5831,-4.5796,-4.5803,-4.5748,-4.4807,-4.3092,-4.1424,-4.1046,-4.1508,-4.0854,-4.0489,-4.0489,-4.0489,-4.0489,-4.0489,-4.0489,-4.0489,-4.0315,-3.97,-3.9354,-3.9315,-3.9354,-3.9373,-3.9527,-4.0123,-4.0473,-4.0454,-3.9629,-3.9219,-3.8975,-3.7936,-3.7384,-3.7988,-3.8059,-3.8356,-3.9061,-3.921,-3.9309,-3.9413,-3.9458,-3.9527,-3.9464,-3.9577,-3.9934,-4.0628,-4.0797,-4.0966,-4.1543,-4.254,-4.3399,-4.3329,-4.444,-4.5497,-4.5752,-4.58,-4.58,-4.5814,-4.58,-4.5833,-4.5874,-4.5899,-4.5905,-4.5905,-4.588,-4.5887,-4.5893,-4.5893,-4.5874,-4.5827,-4.5848,-4.588,-4.5887,-4.5899,-4.5861,-4.5873,-4.5905,-4.5905,-4.5905,-4.5905,-4.5925,-4.5925,-4.5893,-4.5861,-4.5861,-4.5861,-4.5861,-4.5861,-4.5861,-4.588,-4.588,-4.5893,-4.5905,-4.5925,-4.5925,-4.5917,-4.5916,-4.6125,-4.6033,-4.5949,-4.5969,-4.591,-4.5899,-4.5889,-4.5863,-4.5835,-4.5815,-4.5727,-4.57,-4.5696,-4.5684,-4.5651,-4.5651,-4.5678,-4.5717,-4.5748,-4.5728,-4.5728,-4.5712,-4.5657,-4.4737,-4.3159,-4.195,-4.12,-4.0931,-4.0642,-4.0489,-4.0489,-4.0489,-4.0489,-4.0489,-4.0489,-4.0489,-4.0412,-3.97,-3.9546,-3.9988,-3.9565,-3.9546,-4.0085,-4.0241,-4.0286,-4.0267,-4.0002,-3.968,-3.9312,-3.8437,-3.7903,-3.7917,-3.7894,-3.8292,-3.9053,-3.9192,-3.9256,-3.9399,-3.9451,-3.9495,-3.9546,-3.9571,-3.9971,-4.0666,-4.0797,-4.1285,-4.2138,-4.2705,-4.2951,-4.3954,-4.4204,-4.4822,-4.5675,-4.58,-4.58,-4.58,-4.58,-4.5814,-4.5827,-4.5827,-4.5841,-4.5841,-4.5827,-4.5847,-4.5847,-4.5847,-4.5833,-4.5814,-4.5827,-4.5841,-4.5847,-4.5841,-4.5835,-4.5854,-4.5854,-4.5854,-4.5867,-4.5867,-4.588,-4.5887,-4.5887,-4.5854,-4.5835,-4.5835,-4.5835,-4.5822,-4.5854,-4.5854,-4.5841,-4.5841,-4.5854,-4.5887,-4.5899,-4.588,-4.5741,-4.6005,-4.5908,-4.5852,-4.5852,-4.5803,-4.5809,-4.5796,-4.5757,-4.5731,-4.5715,-4.5654,-4.5586,-4.5586,-4.5586,-4.5586,-4.5586,-4.5586,-4.5603,-4.5676,-4.5676,-4.5657,-4.5599,-4.5257,-4.4874,-4.3874,-4.2508,-4.172,-4.145,-4.0816,-4.0489,-4.0489,-4.0489,-4.0489,-4.0489,-4.0489,-4.0489,-4.0392,-3.9734,-3.9681,-4.0142,-3.9599,-3.9547,-4.0183,-3.9871,-3.9584,-3.9505,-3.9181,-3.9037,-3.8874,-3.819,-3.7872,-3.8236,-3.8098,-3.8274,-3.8951,-3.9156,-3.9202,-3.9301,-3.9354,-3.9406,-3.9451,-3.952,-3.9877,-4.0514,-4.0746,-4.1353,-4.2018,-4.2278,-4.2654,-4.3568,-4.3912,-4.4325,-4.5447,-4.5642,-4.5723,-4.5786,-4.58,-4.58,-4.5814,-4.5814,-4.58,-4.58,-4.58,-4.58,-4.58,-4.58,-4.58,-4.58,-4.58,-4.58,-4.58,-4.5814,-4.5814,-4.5814,-4.5814,-4.5814,-4.5814,-4.5847,-4.586,-4.586,-4.5847,-4.5814,-4.5827,-4.5827,-4.5827,-4.5827,-4.5814,-4.5814,-4.58,-4.58,-4.5814,-4.586,-4.586,-4.586,-4.516,-4.5839,-4.5815,-4.5766,-4.5771,-4.5668,-4.5618,-4.5603,-4.5603,-4.5603,-4.5622,-4.5603,-4.5586,-4.5586,-4.5586,-4.5586,-4.5586,-4.5586,-4.5586,-4.5603,-4.5603,-4.5603,-4.5526,-4.497,-4.4836,-4.4778,-4.3085,-4.245,-4.2701,-4.1412,-4.0566,-4.0681,-4.0585,-4.0489,-4.0489,-4.0489,-4.0489,-4.0392,-3.9762,-3.9804,-4.038,-3.9559,-3.9356,-4.0101,-3.9315,-3.8783,-3.861,-3.807,-3.7742,-3.8013,-3.738,-3.7604,-3.8544,-3.8302,-3.8247,-3.9027,-3.9101,-3.9129,-3.9183,-3.921,-3.9283,-3.9373,-3.9436,-3.9746,-4.0446,-4.0686,-4.0918,-4.1368,-4.186,-4.2347,-4.2829,-4.3336,-4.4178,-4.4968,-4.5399,-4.5594,-4.5752,-4.5786,-4.58,-4.58,-4.58,-4.58,-4.58,-4.58,-4.58,-4.58,-4.58,-4.58,-4.58,-4.58,-4.58,-4.58,-4.58,-4.58,-4.58,-4.58,-4.58,-4.5814,-4.5833,-4.5833,-4.5833,-4.5814,-4.58,-4.58,-4.58,-4.58,-4.58,-4.58,-4.58,-4.58,-4.58,-4.58,-4.5814,-4.5833,-4.5833,-4.5462,-4.566,-4.5594,-4.5582,-4.5601,-4.5586,-4.5568,-4.5531,-4.5586,-4.5568,-4.555,-4.5568,-4.5586,-4.5586,-4.5586,-4.5586,-4.5586,-4.5586,-4.5586,-4.5586,-4.5586,-4.5586,-4.5586,-4.5355,-4.5009,-4.4624,-4.3932,-4.347,-4.3047,-4.1934,-4.1377,-4.1431,-4.0723,-4.0473,-4.0489,-4.0473,-4.0489,-4.0473,-4.0166,-4.0018,-4.0136,-3.9833,-3.9654,-3.9806,-3.9437,-3.9185,-3.9164,-3.8756,-3.7981,-3.718,-3.7482,-3.7708,-3.8172,-3.8042,-3.8247,-3.8934,-3.9101,-3.9101,-3.9129,-3.9183,-3.921,-3.9256,-3.9346,-3.9746,-4.0493,-4.0614,-4.1193,-4.2043,-4.2679,-4.2978,-4.3659,-4.4006,-4.4448,-4.4839,-4.5225,-4.549,-4.5594,-4.5723,-4.58,-4.58,-4.5786,-4.5786,-4.5786,-4.58,-4.58,-4.58,-4.58,-4.58,-4.58,-4.58,-4.58,-4.58,-4.58,-4.58,-4.58,-4.58,-4.58,-4.58,-4.58,-4.5814,-4.5814,-4.58,-4.58,-4.58,-4.58,-4.58,-4.58,-4.58,-4.58,-4.58,-4.58,-4.58,-4.58,-4.5814,-4.5814,-4.5524,-4.5507,-4.5475,-4.5457,-4.5457,-4.5495,-4.5495,-4.5457,-4.5495,-4.5495,-4.5476,-4.5495,-4.5531,-4.5568,-4.5568,-4.5568,-4.5568,-4.5568,-4.555,-4.5513,-4.5532,-4.555,-4.5586,-4.5586,-4.5316,-4.4855,-4.4451,-4.3855,-4.3049,-4.2134,-4.1487,-4.0992,-4.0479,-4.0175,-4.0175,-4.0175,-4.0175,-4.0157,-4.0082,-4.0042,-4.0022,-3.9794,-3.9683,-3.9561,-3.9158,-3.8752,-3.8408,-3.8457,-3.7968,-3.7151,-3.7429,-3.7894,-3.7894,-3.7894,-3.8265,-3.9008,-3.9101,-3.9101,-3.9101,-3.9129,-3.9156,-3.9156,-3.9229,-3.9498,-3.9852,-4.001,-4.0626,-4.1624,-4.1922,-4.2614,-4.3596,-4.4129,-4.4402,-4.4584,-4.4924,-4.5206,-4.5343,-4.5454,-4.5524,-4.5577,-4.5626,-4.5673,-4.5692,-4.5737,-4.58,-4.58,-4.58,-4.58,-4.58,-4.58,-4.5786,-4.5737,-4.5771,-4.5771,-4.5771,-4.5771,-4.58,-4.58,-4.5752,-4.5771,-4.58,-4.58,-4.58,-4.58,-4.58,-4.58,-4.58,-4.58,-4.58,-4.58,-4.58,-4.58,-4.58,-4.5771,-4.5771,-4.5381,-4.5381,-4.5419,-4.5419,-4.5419,-4.54,-4.5438,-4.5419,-4.5419,-4.54,-4.54,-4.54,-4.5438,-4.5495,-4.5495,-4.5475,-4.5495,-4.5495,-4.5361,-4.5285,-4.5247,-4.5266,-4.4939,-4.5342,-4.5399,-4.5246,-4.465,-4.4057,-4.3273,-4.2183,-4.1208,-4.071,-4.0144,-3.9754,-3.9819,-3.9757,-3.9731,-3.9797,-3.9775,-3.9731,-3.9705,-3.9537,-3.9408,-3.9282,-3.8715,-3.805,-3.7671,-3.7718,-3.77,-3.6891,-3.7578,-3.8042,-3.8079,-3.8042,-3.8377,-3.8915,-3.9101,-3.9101,-3.9101,-3.9082,-3.9082,-3.9101,-3.9101,-3.9175,-3.9426,-3.963,-4.0021,-4.097,-4.0775,-4.1941,-4.3098,-4.3911,-4.424,-4.4393,-4.4557,-4.4776,-4.503,-4.514,-4.5201,-4.5201,-4.5362,-4.5436,-4.5507,-4.5591,-4.5723,-4.5577,-4.561,-4.5594,-4.5594,-4.5594,-4.5594,-4.5626,-4.5642,-4.5708,-4.5708,-4.5723,-4.5752,-4.5766,-4.5723,-4.5723,-4.58,-4.58,-4.58,-4.58,-4.58,-4.58,-4.58,-4.58,-4.5786,-4.58,-4.58,-4.58,-4.58,-4.5723,-4.5692,-4.5319,-4.5319,-4.5379,-4.5418,-4.5419,-4.54,-4.54,-4.538,-4.54,-4.54,-4.54,-4.54,-4.54,-4.5419,-4.5438,-4.5419,-4.54,-4.5343,-4.5112,-4.4538,-4.4911,-4.4241,-4.3823,-4.445,-4.5061,-4.4982,-4.4729,-4.4412,-4.3872,-4.2678,-4.185,-4.1487,-4.0226,-3.9622,-3.9599,-3.9576,-3.9622,-3.9599,-3.9494,-3.9414,-3.9364,-3.9192,-3.9092,-3.9027,-3.8803,-3.8645,-3.8563,-3.8627,-3.8302,-3.7951,-3.8312,-3.8702,-3.8674,-3.8748,-3.8878,-3.9008,-3.9101,-3.9101,-3.9101,-3.9101,-3.9101,-3.9101,-3.9194,-3.938,-4.0067,-4.0114,-4.0523,-4.1285,-4.1935,-4.2664,-4.3655,-4.4106,-4.4266,-4.4296,-4.4335,-4.4421,-4.4568,-4.491,-4.5115,-4.518,-4.5203,-4.5244,-4.5263,-4.5284,-4.5343,-4.5323,-4.5343,-4.5342,-4.5343,-4.5362,-4.538,-4.5417,-4.5436,-4.5454,-4.5472,-4.5507,-4.5558,-4.5591,-4.5558,-4.5522,-4.5607,-4.5688,-4.5638,-4.5703,-4.58,-4.5786,-4.5708,-4.5723,-4.5708,-4.5757,-4.5771,-4.5723,-4.5658,-4.561,-4.5577,-4.5277,-4.5277,-4.5338,-4.5338,-4.5359,-4.536,-4.536,-4.5359,-4.536,-4.536,-4.5339,-4.5341,-4.5361,-4.54,-4.54,-4.5341,-4.5159,-4.4988,-4.471,-4.4417,-4.4605,-4.4234,-4.3542,-4.3643,-4.4002,-4.4202,-4.4512,-4.4391,-4.378,-4.298,-4.2063,-4.1353,-4.0255,-3.9626,-3.9324,-3.9268,-3.9234,-3.9242,-3.9173,-3.9101,-3.9055,-3.896,-3.891,-3.891,-3.891,-3.8939,-3.8913,-3.8902,-3.8699,-3.8543,-3.8719,-3.8832,-3.8656,-3.8869,-3.9082,-3.9101,-3.9101,-3.9101,-3.9101,-3.9101,-3.9101,-3.912,-3.9435,-3.9621,-4.0085,-4.0401,-4.1107,-4.1646,-4.2314,-4.3162,-4.3974,-4.4116,-4.4147,-4.4177,-4.4226,-4.4226,-4.4296,-4.4568,-4.4783,-4.4814,-4.4843,-4.4872,-4.4919,-4.4985,-4.5055,-4.5061,-4.5082,-4.5101,-4.5123,-4.5125,-4.5123,-4.5144,-4.5182,-4.5182,-4.5223,-4.5245,-4.5304,-4.5304,-4.5265,-4.5227,-4.5266,-4.5342,-4.5416,-4.5522,-4.5626,-4.556,-4.5509,-4.556,-4.556,-4.5491,-4.5454,-4.549,-4.549,-4.538,-4.5381,-4.5277,-4.5277,-4.5163,-4.5163,-4.5258,-4.5144,-4.5144,-4.5297,-4.5277,-4.5256,-4.5235,-4.5216,-4.5175,-4.5235,-4.5194,-4.5068,-4.4819,-4.458,-4.4369,-4.4097,-4.3998,-4.3774,-4.3456,-4.3061,-4.2957,-4.3216,-4.3726,-4.3717,-4.339,-4.2782,-4.1808,-4.0737,-3.9986,-3.9427,-3.8973,-3.884,-3.8881,-3.8921,-3.8892,-3.8881,-3.8881,-3.8881,-3.8851,-3.887,-3.8851,-3.8881,-3.8881,-3.8881,-3.8844,-3.8862,-3.8862,-3.8522,-3.8321,-3.8572,-3.9073,-3.9073,-3.9073,-3.9073,-3.9101,-3.9101,-3.9101,-3.9138,-3.9881,-3.9993,-3.9881,-4.0624,-4.1349,-4.1794,-4.2333,-4.3113,-4.3875,-4.4036,-4.4005,-4.4036,-4.4085,-4.4153,-4.4184,-4.4226,-4.4296,-4.4383,-4.4522,-4.461,-4.4643,-4.4676,-4.4762,-4.4815,-4.4815,-4.4839,-4.4862,-4.4858,-4.483,-4.4781,-4.4795,-4.4891,-4.4919,-4.4966,-4.5014,-4.5039,-4.4995,-4.4973,-4.4954,-4.4998,-4.5125,-4.5323,-4.5399,-4.5323,-4.5304,-4.5323,-4.5284,-4.5201,-4.5222,-4.5304,-4.5264,-4.5161,-4.518,-4.5277,-4.522,-4.4532,-4.4628,-4.5125,-4.4532,-4.4607,-4.522,-4.5161,-4.5132,-4.4815,-4.4849,-4.4638,-4.4612,-4.4572,-4.4519,-4.4447,-4.4308,-4.3999,-4.3493,-4.3285,-4.2981,-4.2556,-4.2519,-4.2461,-4.2465,-4.2802,-4.3019,-4.3042,-4.2138,-4.152,-4.0799,-3.9706,-3.894,-3.883,-3.8738,-3.8719,-3.875,-3.875,-3.875,-3.875,-3.875,-3.875,-3.875,-3.875,-3.878,-3.8792,-3.878,-3.875,-3.8803,-3.8822,-3.873,-3.863,-3.8799,-3.8931,-3.9007,-3.9036,-3.9064,-3.9185,-3.912,-3.9101,-3.9287,-3.9993,-4.0327,-4.0364,-4.1014,-4.1664,-4.1906,-4.2426,-4.3169,-4.3912,-4.4005,-4.4005,-4.4005,-4.4005,-4.4055,-4.4055,-4.4085,-4.4128,-4.4237,-4.4325,-4.4364,-4.4383,-4.4393,-4.443,-4.4465,-4.4465,-4.4484,-4.4484,-4.4476,-4.4458,-4.443,-4.4393,-4.4522,-4.4643,-4.465,-4.4726,-4.4787,-4.4762,-4.4757,-4.4713,-4.4707,-4.4806,-4.4966,-4.5099,-4.5099,-4.5096,-4.5074,-4.5052,-4.4981,-4.5026,-4.5094,-4.5004,-4.4887,-4.5029,-4.4647,-4.4569,-4.4005,-4.404,-4.4284,-4.3843,-4.3568,-4.3649,-4.4004,-4.3899,-4.3479,-4.3353,-4.3547,-4.3705,-4.3791,-4.3915,-4.408,-4.3962,-4.3689,-4.328,-4.3148,-4.2973,-4.235,-4.2408,-4.2286,-4.2304,-4.2341,-4.269,-4.3314,-4.2375,-4.1497,-4.0891,-3.9863,-3.9148,-3.8799,-3.8707,-3.8707,-3.8707,-3.8707,-3.8707,-3.8707,-3.8707,-3.8707,-3.8707,-3.8707,-3.8719,-3.8719,-3.8719,-3.8738,-3.875,-3.875,-3.875,-3.875,-3.878,-3.8822,-3.891,-3.8987,-3.9229,-3.9453,-3.9407,-3.9287,-3.9825,-4.0531,-4.0476,-4.0457,-4.1051,-4.2073,-4.237,-4.2909,-4.3559,-4.3968,-4.4005,-4.4005,-4.4005,-4.4005,-4.4005,-4.4005,-4.4005,-4.4085,-4.4147,-4.4177,-4.4158,-4.4128,-4.414,-4.4128,-4.4147,-4.4147,-4.4147,-4.4177,-4.4195,-4.4226,-4.4226,-4.4207,-4.4277,-4.4365,-4.4421,-4.443,-4.4493,-4.4501,-4.4493,-4.4438,-4.4402,-4.4421,-4.4522,-4.4636,-4.48,-4.4714,-4.461,-4.4681,-4.4732,-4.4707,-4.4681,-4.4655,-4.4667,-4.4787,-4.3735,-4.3583,-4.3346,-4.3256,-4.3232,-4.2843,-4.2464,-4.2175,-4.2728,-4.2645,-4.1965,-4.1965,-4.2313,-4.2642,-4.2819,-4.3003,-4.3378,-4.3063,-4.2886,-4.2776,-4.2573,-4.2669,-4.2745,-4.2506,-4.2103,-4.2304,-4.2304,-4.2525,-4.2616,-4.2176,-4.1589,-4.0744,-4.001,-3.9386,-3.8817,-3.8707,-3.8707,-3.8707,-3.8707,-3.8707,-3.8707,-3.8707,-3.8707,-3.8707,-3.8707,-3.8707,-3.8707,-3.8707,-3.8627,-3.8596,-3.8546,-3.8533,-3.8483,-3.8433,-3.851,-3.8634,-3.8962,-3.9531,-3.9811,-4.0007,-4.0018,-4.05,-4.1189,-4.0651,-4.0298,-4.1152,-4.2482,-4.2872,-4.3485,-4.3912,-4.3986,-4.4005,-4.4005,-4.4005,-4.4005,-4.4005,-4.4005,-4.4005,-4.4005,-4.4055,-4.4005,-4.4005,-4.4036,-4.4036,-4.4067,-4.4067,-4.4085,-4.4085,-4.4085,-4.4135,-4.4135,-4.4085,-4.4085,-4.4085,-4.4158,-4.4199,-4.4181,-4.4192,-4.4221,-4.4221,-4.4151,-4.4079,-4.4158,-4.4277,-4.4317,-4.4448,-4.4306,-4.4285,-4.4393,-4.4449,-4.4344,-4.4314,-4.4383,-4.4505,-4.4636,-4.2881,-4.2241,-4.2133,-4.2133,-4.2058,-4.136,-4.1398,-4.1905,-4.1991,-4.1948,-4.1361,-4.1463,-4.1382,-4.144,-4.1451,-4.148,-4.1544,-4.164,-4.168,-4.1644,-4.113,-4.1222,-4.146,-4.1332,-4.1754,-4.2121,-4.2249,-4.1882,-4.1534,-4.1258,-4.0873,-4.0102,-3.9423,-3.8781,-3.8744,-3.8707,-3.8707,-3.8707,-3.8707,-3.8707,-3.8658,-3.8658,-3.8658,-3.8627,-3.8627,-3.8596,-3.8546,-3.8515,-3.8451,-3.8168,-3.8168,-3.8,-3.7721,-3.765,-3.7632,-3.8093,-3.8915,-3.9976,-4.0161,-4.0388,-4.0738,-4.0996,-4.1366,-4.094,-4.0792,-4.1074,-4.218,-4.2816,-4.354,-4.3968,-4.4005,-4.4005,-4.4005,-4.4005,-4.4005,-4.4005,-4.4005,-4.4005,-4.4005,-4.4005,-4.4005,-4.4005,-4.4005,-4.4005,-4.4005,-4.4005,-4.4005,-4.4005,-4.4023,-4.4055,-4.4073,-4.4055,-4.4005,-4.4055,-4.4055,-4.4067,-4.4067,-4.4005,-4.4005,-4.4036,-4.4005,-4.4005,-4.4005,-4.4097,-4.414,-4.4199,-4.4158,-4.4177,-4.4226,-4.4226,-4.4195,-4.4195,-4.4214,-4.4363,-4.4512,-4.1212,-4.1229,-4.1025,-4.0961,-4.0896,-4.041,-4.01,-4.0129,-4.0526,-4.0441,-3.9981,-3.9944,-4.0062,-4.0377,-4.0855,-4.113,-4.1097,-4.1056,-4.1111,-4.1056,-4.0726,-4.0946,-4.1699,-4.1754,-4.1937,-4.1611,-4.1846,-4.113,-4.0506,-4.018,-4.0157,-3.9827,-3.9129,-3.8726,-3.8707,-3.8707,-3.8707,-3.8707,-3.8676,-3.8564,-3.8419,-3.8318,-3.8234,-3.8016,-3.8016,-3.8068,-3.8068,-3.8034,-3.7948,-3.7756,-3.7756,-3.7703,-3.7542,-3.7505,-3.7505,-3.7631,-3.905,-3.9894,-4.0055,-4.0415,-4.0831,-4.1177,-4.132,-4.1261,-4.1262,-4.1521,-4.2063,-4.276,-4.3522,-4.3899,-4.3974,-4.4005,-4.4005,-4.4005,-4.3974,-4.4005,-4.4005,-4.4005,-4.4005,-4.4005,-4.4005,-4.4005,-4.4005,-4.4005,-4.4005,-4.4005,-4.4005,-4.4005,-4.4005,-4.4023,-4.4023,-4.4023,-4.4005,-4.4005,-4.4023,-4.4036,-4.4036,-4.4005,-4.4005,-4.4005,-4.4005,-4.4005,-4.4005,-4.4005,-4.4067,-4.4067,-4.4085,-4.4085,-4.4116,-4.4116,-4.4067,-4.4085,-4.4123,-4.4234,-4.4606,-3.9326,-3.9823,-3.9989,-3.9944,-3.976,-3.9557,-3.8953,-3.8314,-3.8875,-3.8742,-3.8261,-3.8291,-3.8823,-3.947,-4.0056,-4.024,-4.0382,-4.0455,-4.0506,-4.0506,-4.0579,-4.0708,-4.0914,-4.1192,-4.1089,-4.0668,-4.0812,-4.0284,-3.9462,-3.9075,-3.9309,-3.957,-3.9001,-3.8726,-3.8707,-3.8676,-3.8676,-3.8483,-3.8368,-3.8186,-3.8,-3.7948,-3.7791,-3.7614,-3.7505,-3.7505,-3.7505,-3.7542,-3.7542,-3.734,-3.7358,-3.7283,-3.7132,-3.7358,-3.7288,-3.7588,-3.8766,-3.9673,-3.9904,-4.0256,-4.0745,-4.1163,-4.122,-4.1323,-4.1614,-4.1848,-4.2154,-4.2662,-4.3188,-4.3572,-4.3712,-4.3744,-4.3828,-4.386,-4.3923,-4.3974,-4.3974,-4.3923,-4.3942,-4.4005,-4.4005,-4.4005,-4.4005,-4.4005,-4.4005,-4.4005,-4.4005,-4.4005,-4.4005,-4.4005,-4.4005,-4.4005,-4.4005,-4.4005,-4.4005,-4.4005,-4.4005,-4.4005,-4.4005,-4.4005,-4.4005,-4.4005,-4.4005,-4.4005,-4.4098,-4.4005,-4.4055,-4.4005,-4.4005,-4.4005,-4.4036,-4.4005,-4.4061,-4.4246,-4.4804,-3.733,-3.7564,-3.9031,-3.9213,-3.8606,-3.8506,-3.8036,-3.7416,-3.7471,-3.721,-3.6839,-3.7125,-3.7927,-3.8419,-3.8711,-3.8816,-3.8716,-3.881,-3.893,-3.8944,-3.8927,-3.9113,-3.9418,-3.9667,-3.9656,-3.9478,-3.9608,-3.9265,-3.8599,-3.8097,-3.837,-3.8632,-3.8556,-3.8645,-3.8596,-3.8483,-3.8368,-3.8135,-3.7913,-3.7685,-3.7578,-3.7542,-3.7505,-3.7451,-3.7451,-3.7487,-3.7505,-3.7395,-3.7246,-3.6939,-3.6939,-3.6838,-3.6708,-3.705,-3.7032,-3.7311,-3.8512,-3.9242,-3.946,-4.0605,-4.1777,-4.1859,-4.1596,-4.1185,-4.1477,-4.1445,-4.1811,-4.2503,-4.2923,-4.2996,-4.3069,-4.3177,-4.3406,-4.3474,-4.3594,-4.3679,-4.3712,-4.3777,-4.3809,-4.3942,-4.3942,-4.3777,-4.386,-4.3828,-4.3974,-4.3974,-4.4005,-4.4005,-4.4005,-4.4005,-4.4005,-4.4005,-4.4005,-4.4005,-4.4005,-4.4005,-4.4005,-4.4005,-4.4005,-4.4005,-4.4005,-4.4023,-4.4302,-4.4358,-4.4488,-4.4246,-4.4098,-4.4283,-4.4339,-4.4116,-4.4079,-4.4376,-4.4804,-4.5194,-4.5695,-3.652,-3.647,-3.7774,-3.8323,-3.8322,-3.8354,-3.7867,-3.7335,-3.763,-3.762,-3.7073,-3.7232,-3.738,-3.7649,-3.7667,-3.7703,-3.7703,-3.7738,-3.7791,-3.7791,-3.7809,-3.8096,-3.8385,-3.869,-3.8868,-3.8851,-3.8686,-3.8363,-3.7899,-3.7502,-3.7667,-3.7913,-3.7948,-3.7948,-3.7948,-3.8034,-3.7915,-3.781,-3.7559,-3.7395,-3.717,-3.7132,-3.7017,-3.6741,-3.6741,-3.6741,-3.6741,-3.6741,-3.6678,-3.6597,-3.6557,-3.6433,-3.636,-3.6697,-3.6887,-3.7042,-3.8439,-3.9008,-3.9422,-4.0575,-4.1338,-4.1401,-4.1121,-4.1068,-4.1363,-4.1517,-4.1886,-4.2315,-4.2523,-4.2523,-4.2716,-4.2829,-4.2941,-4.3014,-4.3177,-4.3283,-4.3371,-4.3406,-4.3387,-4.344,-4.3406,-4.3283,-4.344,-4.3594,-4.3795,-4.3942,-4.3974,-4.4005,-4.4005,-4.4005,-4.4005,-4.4005,-4.4005,-4.4005,-4.4005,-4.4005,-4.4005,-4.4005,-4.4023,-4.4098,-4.4209,-4.4711,-4.4934,-4.4934,-4.5045,-4.5101,-4.5045,-4.4859,-4.4599,-4.4191,-4.4506,-4.5082,-4.5565,-4.5992,-4.6513,-3.5455,-3.5588,-3.6553,-3.7345,-3.7862,-3.8018,-3.7533,-3.6872,-3.7198,-3.7433,-3.7167,-3.6874,-3.692,-3.7044,-3.7135,-3.7173,-3.721,-3.7266,-3.7228,-3.7266,-3.7374,-3.7603,-3.7904,-3.799,-3.7881,-3.8026,-3.7874,-3.7457,-3.7066,-3.7073,-3.6999,-3.7017,-3.715,-3.7208,-3.7505,-3.7376,-3.7516,-3.7889,-3.7329,-3.7284,-3.7038,-3.6823,-3.6638,-3.6367,-3.6367,-3.6367,-3.6409,-3.6392,-3.6409,-3.6367,-3.6326,-3.6326,-3.6387,-3.6577,-3.6939,-3.7594,-3.8353,-3.9146,-3.9733,-4.0371,-4.0884,-4.0977,-4.0995,-4.1111,-4.1328,-4.1507,-4.1656,-4.1871,-4.2056,-4.2162,-4.2226,-4.2284,-4.2404,-4.2483,-4.2792,-4.2941,-4.2922,-4.2959,-4.2922,-4.2885,-4.2867,-4.2978,-4.3069,-4.3266,-4.3594,-4.3777,-4.3974,-4.4005,-4.4005,-4.4005,-4.4005,-4.4005,-4.4005,-4.4005,-4.4005,-4.3974,-4.3942,-4.4005,-4.4061,-4.4302,-4.4544,-4.5069,-4.5551,-4.5695,-4.5844,-4.6067,-4.5862,-4.5403,-4.4804,-4.4135,-4.4729,-4.5417,-4.5732,-4.616,-4.6921,-3.4074,-3.4705,-3.5548,-3.6324,-3.696,-3.7358,-3.6877,-3.5945,-3.5905,-3.5902,-3.5937,-3.5899,-3.6264,-3.6738,-3.6803,-3.6786,-3.6825,-3.6943,-3.7038,-3.696,-3.6865,-3.7129,-3.7105,-3.6978,-3.6882,-3.6626,-3.6572,-3.6498,-3.6174,-3.6284,-3.6241,-3.6241,-3.6409,-3.6696,-3.734,-3.7076,-3.7672,-3.8607,-3.7165,-3.697,-3.7136,-3.6772,-3.6377,-3.6326,-3.6284,-3.6284,-3.6284,-3.6284,-3.6284,-3.6284,-3.6284,-3.6353,-3.6525,-3.6922,-3.7318,-3.7784,-3.887,-3.9508,-3.9784,-4.0491,-4.0802,-4.0871,-4.0871,-4.0965,-4.0965,-4.1059,-4.1152,-4.1436,-4.1373,-4.1328,-4.1445,-4.1622,-4.1839,-4.2032,-4.2284,-4.2364,-4.2364,-4.2324,-4.2284,-4.2244,-4.2523,-4.2754,-4.281,-4.2922,-4.3283,-4.3594,-4.3892,-4.3974,-4.386,-4.3777,-4.3712,-4.3679,-4.3627,-4.3679,-4.3627,-4.3828,-4.3892,-4.3974,-4.4101,-4.4321,-4.4764,-4.5303,-4.5796,-4.6264,-4.6496,-4.6597,-4.6255,-4.583,-4.5109,-4.4515,-4.5018,-4.5602,-4.59,-4.6475,-4.7404,-3.4098,-3.4614,-3.5659,-3.6084,-3.6182,-3.6803,-3.6559,-3.5752,-3.5449,-3.533,-3.5428,-3.557,-3.5762,-3.602,-3.6097,-3.6139,-3.6122,-3.6079,-3.6122,-3.6165,-3.6207,-3.6224,-3.6199,-3.6241,-3.6114,-3.6156,-3.6019,-3.5993,-3.6062,-3.5975,-3.5975,-3.6019,-3.6062,-3.6301,-3.6574,-3.6585,-3.7064,-3.7689,-3.7024,-3.6646,-3.7267,-3.6766,-3.6284,-3.6284,-3.6284,-3.6284,-3.6284,-3.6284,-3.6284,-3.6284,-3.6284,-3.6508,-3.6749,-3.718,-3.7491,-3.8284,-3.937,-3.9474,-4.0112,-4.0802,-4.0853,-4.0871,-4.0871,-4.0871,-4.0918,-4.0918,-4.0982,-4.0982,-4.1012,-4.1041,-4.1198,-4.1244,-4.1408,-4.1418,-4.1622,-4.1604,-4.1622,-4.1604,-4.1604,-4.1622,-4.1778,-4.2139,-4.2302,-4.2584,-4.2915,-4.3031,-4.3233,-4.3338,-4.3231,-4.3177,-4.3105,-4.3105,-4.3105,-4.3141,-4.3212,-4.3406,-4.3754,-4.3995,-4.4144,-4.4345,-4.4856,-4.559,-4.6048,-4.6525,-4.6834,-4.7069,-4.6488,-4.592,-4.5333,-4.5058,-4.5532,-4.6255,-4.6956,-4.7562,-4.8277,-3.3911,-3.4532,-3.507,-3.5428,-3.5688,-3.6392,-3.6162,-3.5359,-3.5005,-3.4778,-3.4709,-3.4992,-3.5199,-3.525,-3.5487,-3.5639,-3.5639,-3.5622,-3.5622,-3.5639,-3.5622,-3.5756,-3.5756,-3.5728,-3.58,-3.5844,-3.5844,-3.5861,-3.5844,-3.5844,-3.5888,-3.5905,-3.5949,-3.6062,-3.6174,-3.6319,-3.6973,-3.7507,-3.7291,-3.6741,-3.7119,-3.6895,-3.6233,-3.6233,-3.6276,-3.6259,-3.6284,-3.6284,-3.6284,-3.6284,-3.6404,-3.6697,-3.7042,-3.7318,-3.7749,-3.8888,-3.9733,-3.9922,-4.0612,-4.0853,-4.0871,-4.0871,-4.0871,-4.0871,-4.0871,-4.0918,-4.0918,-4.0918,-4.0871,-4.0935,-4.1047,-4.1047,-4.1076,-4.1134,-4.118,-4.1226,-4.1163,-4.1192,-4.13,-4.1272,-4.13,-4.1596,-4.1849,-4.225,-4.2602,-4.2578,-4.2512,-4.2659,-4.2802,-4.2765,-4.2765,-4.2765,-4.2806,-4.2902,-4.2921,-4.2941,-4.3358,-4.3894,-4.4122,-4.4317,-4.5273,-4.6033,-4.6404,-4.6716,-4.7057,-4.7098,-4.6549,-4.5961,-4.5653,-4.5664,-4.6008,-4.6874,-4.7905,-4.8292,-4.855,-3.3397,-3.4303,-3.3761,-3.431,-3.5464,-3.5933,-3.5557,-3.4566,-3.4583,-3.4227,-3.3575,-3.4447,-3.481,-3.4827,-3.5334,-3.5605,-3.5639,-3.5639,-3.5639,-3.5639,-3.5639,-3.5622,-3.5622,-3.5639,-3.5667,-3.5622,-3.5684,-3.5711,-3.5622,-3.5667,-3.5728,-3.5773,-3.5817,-3.5844,-3.5932,-3.6163,-3.6983,-3.7541,-3.7072,-3.697,-3.7518,-3.6754,-3.6362,-3.6303,-3.6311,-3.6251,-3.6259,-3.6301,-3.6284,-3.6318,-3.6387,-3.6887,-3.7267,-3.7508,-3.8456,-3.9405,-4.0302,-4.0681,-4.0836,-4.0871,-4.0871,-4.0871,-4.0871,-4.0871,-4.0871,-4.0871,-4.0871,-4.0871,-4.0871,-4.0871,-4.0935,-4.0935,-4.0935,-4.0965,-4.1029,-4.1012,-4.0995,-4.1041,-4.1105,-4.1152,-4.1198,-4.1335,-4.1513,-4.184,-4.252,-4.2423,-4.2538,-4.2871,-4.2941,-4.2718,-4.2718,-4.2683,-4.2749,-4.2742,-4.2745,-4.2624,-4.3122,-4.3734,-4.4037,-4.4324,-4.5389,-4.6296,-4.6467,-4.6729,-4.7198,-4.715,-4.6478,-4.6288,-4.6254,-4.6326,-4.6266,-4.6717,-4.7532,-4.7755,-4.7955,-3.3378,-3.3968,-3.4255,-3.4339,-3.4351,-3.4973,-3.4925,-3.4607,-3.5013,-3.4861,-3.4218,-3.4962,-3.5026,-3.5334,-3.5537,-3.556,-3.5577,-3.5639,-3.5639,-3.5577,-3.5424,-3.5532,-3.5577,-3.5515,-3.5577,-3.5577,-3.5532,-3.5487,-3.5532,-3.5577,-3.5532,-3.5667,-3.5515,-3.5605,-3.5605,-3.5711,-3.6622,-3.7053,-3.6399,-3.7035,-3.7331,-3.6693,-3.6454,-3.6532,-3.6397,-3.632,-3.6234,-3.6311,-3.6354,-3.6285,-3.6844,-3.7508,-3.818,-3.8301,-3.8819,-3.9595,-4.0336,-4.0871,-4.0871,-4.0871,-4.0871,-4.0871,-4.0871,-4.0871,-4.0871,-4.0871,-4.0871,-4.0871,-4.0871,-4.0871,-4.0871,-4.0871,-4.0871,-4.0935,-4.0982,-4.0935,-4.0918,-4.0918,-4.1012,-4.1029,-4.1059,-4.1227,-4.136,-4.2009,-4.2579,-4.2469,-4.2556,-4.2969,-4.3012,-4.2758,-4.2782,-4.2764,-4.247,-4.243,-4.2409,-4.2308,-4.2953,-4.3545,-4.3908,-4.4485,-4.5513,-4.6223,-4.6371,-4.6571,-4.6781,-4.6671,-4.6377,-4.6258,-4.6292,-4.6258,-4.623,-4.6686,-4.7065,-4.7227,-4.7486,-3.3047,-3.3477,-3.3857,-3.3939,-3.3906,-3.4283,-3.4376,-3.4392,-3.4693,-3.4415,-3.3862,-3.4222,-3.4526,-3.4526,-3.4931,-3.5131,-3.4927,-3.5115,-3.5115,-3.488,-3.5021,-3.4927,-3.4975,-3.5021,-3.488,-3.4975,-3.4975,-3.4816,-3.5021,-3.4975,-3.4911,-3.4911,-3.4975,-3.4975,-3.4927,-3.4897,-3.5174,-3.5673,-3.5937,-3.6571,-3.6667,-3.6497,-3.6525,-3.6746,-3.6529,-3.6427,-3.6321,-3.6433,-3.6446,-3.6192,-3.6705,-3.7589,-3.8508,-3.9083,-3.956,-4.0284,-4.056,-4.0693,-4.0597,-4.0806,-4.071,-4.0662,-4.0728,-4.0871,-4.0871,-4.0871,-4.0871,-4.0871,-4.0871,-4.0871,-4.0871,-4.0871,-4.0871,-4.0871,-4.0871,-4.0871,-4.0871,-4.0871,-4.0935,-4.0935,-4.1069,-4.1237,-4.1648,-4.2302,-4.277,-4.2957,-4.31,-4.3374,-4.3188,-4.2719,-4.2864,-4.3068,-4.2461,-4.2023,-4.2096,-4.2422,-4.2917,-4.3588,-4.4085,-4.4751,-4.5708,-4.6038,-4.6116,-4.6151,-4.6154,-4.6119,-4.6116,-4.6217,-4.6244,-4.6189,-4.6189,-4.6424,-4.6646,-4.6699,-4.7041,-3.232,-3.2822,-3.2837,-3.329,-3.3855,-3.3919,-3.3953,-3.3905,-3.3792,-3.3354,-3.2948,-3.2916,-3.3194,-3.368,-3.4182,-3.4414,-3.4382,-3.456,-3.4577,-3.4036,-3.4235,-3.4284,-3.4235,-3.4036,-3.4284,-3.4136,-3.4086,-3.4333,-3.4136,-3.4185,-3.4268,-3.3969,-3.4136,-3.4235,-3.4284,-3.4284,-3.4415,-3.4578,-3.511,-3.5706,-3.6169,-3.6047,-3.5937,-3.6658,-3.6696,-3.6632,-3.653,-3.657,-3.6705,-3.6105,-3.6252,-3.7334,-3.8522,-3.9576,-4.0195,-4.0429,-4.0383,-4.0252,-4.012,-4.0303,-4.0237,-4.0286,-4.0451,-4.0451,-4.0451,-4.0776,-4.0871,-4.0871,-4.0871,-4.0871,-4.0871,-4.0871,-4.0871,-4.0871,-4.0871,-4.0871,-4.0871,-4.0871,-4.0871,-4.1004,-4.1263,-4.1484,-4.1899,-4.2552,-4.3366,-4.3539,-4.3885,-4.4076,-4.3781,-4.3169,-4.3166,-4.3444,-4.311,-4.2693,-4.2758,-4.3001,-4.3101,-4.3589,-4.4202,-4.4878,-4.5695,-4.5854,-4.5838,-4.5871,-4.5972,-4.5972,-4.6005,-4.604,-4.609,-4.609,-4.6108,-4.6192,-4.6309,-4.6548,-4.6835,-2.9974,-3.1444,-3.1915,-3.2618,-3.336,-3.3407,-3.3407,-3.3391,-3.3335,-3.3416,-3.3518,-3.3194,-3.3226,-3.358,-3.347,-3.3648,-3.3971,-3.402,-3.407,-3.3919,-3.3885,-3.3783,-3.3935,-3.3783,-3.3885,-3.3986,-3.3986,-3.3885,-3.3834,-3.3885,-3.3935,-3.3986,-3.3885,-3.3834,-3.3834,-3.3834,-3.3834,-3.3834,-3.4134,-3.4743,-3.5185,-3.5413,-3.5495,-3.6088,-3.6368,-3.6386,-3.6331,-3.643,-3.6479,-3.6277,-3.6918,-3.7711,-3.8665,-3.9076,-3.9265,-3.9351,-3.9508,-3.9456,-3.9473,-3.9558,-3.9558,-3.9506,-3.9575,-3.9558,-3.9833,-4.0517,-4.0823,-4.0823,-4.0823,-4.0823,-4.0823,-4.0823,-4.0823,-4.0823,-4.0888,-4.0888,-4.0888,-4.0905,-4.0905,-4.1164,-4.1457,-4.1785,-4.2199,-4.2837,-4.3749,-4.4354,-4.4785,-4.4975,-4.4768,-4.4301,-4.3938,-4.411,-4.4108,-4.388,-4.3707,-4.3534,-4.3583,-4.3878,-4.4518,-4.5109,-4.5665,-4.5684,-4.5736,-4.577,-4.5821,-4.5821,-4.5838,-4.5906,-4.5906,-4.6079,-4.6391,-4.6601,-4.6845,-4.7071,-4.7156,-2.8961,-3.0546,-3.1535,-3.2261,-3.2703,-3.2749,-3.2734,-3.2687,-3.2422,-3.2682,-3.3114,-3.2902,-3.2938,-3.3339,-3.3096,-3.2985,-3.3395,-3.3563,-3.3407,-3.3319,-3.3371,-3.323,-3.3266,-3.3371,-3.3214,-3.3266,-3.3266,-3.3214,-3.3371,-3.3266,-3.3214,-3.3319,-3.3319,-3.3387,-3.3335,-3.3319,-3.3351,-3.3266,-3.3351,-3.3657,-3.4197,-3.4402,-3.513,-3.5768,-3.6189,-3.6233,-3.6451,-3.6532,-3.643,-3.6517,-3.6958,-3.7512,-3.8172,-3.8603,-3.8799,-3.8854,-3.8854,-3.8761,-3.8723,-3.8794,-3.8865,-3.881,-3.9098,-3.9242,-3.9365,-3.9935,-3.9935,-3.9935,-3.9935,-3.9935,-4.0087,-4.0087,-4.0286,-4.0385,-4.0779,-4.0991,-4.106,-4.1129,-4.1285,-4.1578,-4.1767,-4.1836,-4.2268,-4.275,-4.3611,-4.425,-4.482,-4.5268,-4.513,-4.5096,-4.4854,-4.4613,-4.456,-4.4405,-4.4094,-4.4006,-4.3988,-4.4385,-4.4817,-4.5165,-4.5546,-4.5615,-4.5632,-4.5684,-4.5667,-4.5718,-4.5736,-4.5892,-4.6239,-4.6568,-4.683,-4.7126,-4.7351,-4.7664,-4.7945,-2.8763,-3.0076,-3.1435,-3.2038,-3.2135,-3.2191,-3.213,-3.1962,-3.1472,-3.1442,-3.1857,-3.1997,-3.2097,-3.2447,-3.2591,-3.2455,-3.2571,-3.2955,-3.2772,-3.2656,-3.2547,-3.2656,-3.2656,-3.2508,-3.2602,-3.2602,-3.2602,-3.2602,-3.2602,-3.2602,-3.2602,-3.2453,-3.2413,-3.2484,-3.2475,-3.2576,-3.2779,-3.2927,-3.2958,-3.2786,-3.3068,-3.352,-3.4675,-3.5562,-3.6162,-3.6294,-3.659,-3.6688,-3.65,-3.6544,-3.6723,-3.7121,-3.7483,-3.7863,-3.8076,-3.8189,-3.8133,-3.7978,-3.7953,-3.8181,-3.8181,-3.8254,-3.8756,-3.892,-3.892,-3.899,-3.9044,-3.9098,-3.9098,-3.9295,-3.9401,-3.9558,-3.9765,-3.9986,-4.0455,-4.082,-4.094,-4.1094,-4.1403,-4.1711,-4.1967,-4.2001,-4.2412,-4.2926,-4.3578,-4.4165,-4.4527,-4.4889,-4.5165,-4.5234,-4.5165,-4.4923,-4.4716,-4.4595,-4.4492,-4.4509,-4.4543,-4.4665,-4.5062,-4.5234,-4.5441,-4.5476,-4.5476,-4.5476,-4.5476,-4.5598,-4.5892,-4.6135,-4.6499,-4.6847,-4.7176,-4.7452,-4.8026,-4.8372,-4.8913,-2.8502,-2.9939,-3.1268,-3.1883,-3.1981,-3.2038,-3.1734,-3.1277,-3.1125,-3.0852,-3.0632,-3.054,-3.08,-3.1536,-3.1034,-3.1142,-3.1921,-3.2361,-3.2516,-3.2453,-3.2398,-3.2398,-3.2398,-3.2398,-3.2398,-3.2398,-3.2398,-3.2398,-3.2398,-3.2398,-3.2398,-3.2398,-3.2398,-3.2644,-3.3183,-3.3198,-3.3167,-3.3352,-3.3675,-3.3798,-3.3567,-3.3976,-3.4379,-3.512,-3.5867,-3.6257,-3.6523,-3.6585,-3.6523,-3.6508,-3.6554,-3.6754,-3.6876,-3.7042,-3.7207,-3.737,-3.737,-3.7326,-3.7342,-3.746,-3.7417,-3.7519,-3.787,-3.7886,-3.7943,-3.8017,-3.8059,-3.8173,-3.8383,-3.8936,-3.9082,-3.9189,-3.9348,-3.9435,-3.9763,-3.9949,-4.0083,-4.035,-4.0685,-4.1415,-4.2132,-4.2337,-4.2698,-4.335,-4.4197,-4.4592,-4.4557,-4.4866,-4.4932,-4.5142,-4.5318,-4.5041,-4.473,-4.5147,-4.5216,-4.5079,-4.5061,-4.5199,-4.5285,-4.5475,-4.5544,-4.5441,-4.5441,-4.5665,-4.5579,-4.5562,-4.5856,-4.6168,-4.6583,-4.6894,-4.7395,-4.779,-4.8394,-4.8899,-4.9318]}]]